GFSGL_700_spd_003.txt.gz
Wind_Speed
28 29 29 28 25 23 23 20 21 21 22 23 25 23 19 17 15 14 12 14 15 16 19 20 21 22 24 25 28 29 30 31 33 30 32 28 29 32 33 33 36 39 39
26 27 30 33 31 29 27 22 24 22 22 22 23 21 17 15 15 15 16 17 17 18 20 22 23 26 28 28 30 30 30 30 33 32 32 31 32 32 35 37 36 38 43
31 30 31 36 26 26 24 24 24 21 20 21 21 18 15 13 13 16 15 15 17 19 18 21 24 25 26 28 29 29 29 30 33 36 35 35 36 34 36 39 43 42 42
31 35 33 31 23 24 24 25 24 19 20 20 18 17 15 13 15 14 16 16 19 21 21 21 21 25 27 29 30 28 29 31 33 35 36 38 39 39 41 46 47 43 40
33 40 36 29 26 26 25 23 21 18 19 17 15 17 15 15 17 15 16 18 22 20 22 23 23 24 28 30 32 30 31 31 32 34 36 38 38 41 45 49 49 49 36
27 35 39 33 29 28 26 22 18 17 16 12 12 15 18 16 18 16 19 23 21 24 24 24 26 30 28 28 29 29 31 33 32 34 36 37 38 42 48 51 56 53 45
28 33 45 30 29 28 29 22 18 14 12 11 12 16 19 18 22 23 26 26 26 26 28 27 23 25 26 25 24 27 31 32 32 36 38 36 41 43 51 56 57 54 50
32 35 41 32 25 25 22 22 19 15 12 13 14 17 17 20 30 30 30 26 24 27 31 30 30 34 36 33 28 29 31 29 30 33 35 38 41 43 47 56 59 50 53
32 36 39 22 24 23 20 22 19 12 14 15 13 18 23 25 25 29 33 25 29 29 29 23 31 38 35 28 28 30 30 28 29 30 33 39 37 39 47 57 51 45 50
28 30 27 23 23 19 19 18 16 18 16 20 19 23 25 27 28 30 29 33 31 29 25 27 31 31 27 28 28 30 29 27 27 28 32 30 32 41 46 43 46 43 46
24 28 31 30 30 28 30 32 24 18 17 27 22 25 28 25 30 31 31 29 27 26 26 32 28 25 25 26 26 27 29 28 29 32 32 29 32 38 53 40 36 38 38
24 25 27 29 30 32 29 30 27 28 33 15 25 28 25 29 29 29 28 25 27 29 30 29 27 27 25 26 27 27 28 28 30 30 30 29 33 39 52 44 36 17 22
25 26 28 29 34 30 29 30 32 34 35 18 28 25 27 27 29 31 27 29 28 26 28 26 25 27 28 29 29 30 29 28 27 26 27 28 31 38 48 40 35 12 8
23 24 25 31 31 32 37 28 33 28 16 17 21 23 28 29 30 28 29 29 28 28 29 29 21 23 26 26 25 27 27 25 24 22 25 25 30 33 43 36 41 15 10
22 29 32 35 32 9 8 19 23 22 18 20 24 25 27 29 29 30 29 28 28 30 30 22 22 23 25 24 23 23 23 22 21 22 21 24 24 31 39 35 36 23 5
24 29 33 27 32 26 13 14 23 18 19 23 25 27 28 29 32 30 28 27 27 29 27 16 21 21 22 22 21 21 21 22 22 21 22 21 26 26 31 33 33 33 16
21 19 24 15 11 13 15 20 20 18 23 27 27 30 31 34 29 28 28 26 25 26 13 15 16 18 21 22 21 20 20 22 23 21 19 19 19 23 24 28 30 34 27
20 14 17 13 13 15 18 20 21 23 26 26 29 29 30 28 27 27 23 21 21 17 10 13 17 20 20 21 20 19 19 19 19 19 19 19 19 20 19 19 19 28 34
9 15 17 19 24 19 20 25 26 23 25 28 26 27 29 27 25 24 23 21 21 18 17 19 23 24 22 21 20 19 17 17 16 17 17 16 15 15 15 13 17 21 21
20 21 18 18 19 21 23 24 23 24 22 22 27 23 21 19 19 22 22 21 20 21 21 22 23 23 22 20 19 17 15 15 15 15 14 14 13 11 11 11 12 14 20
20 16 16 24 26 22 22 21 22 20 20 25 20 19 18 19 18 21 20 18 18 19 19 20 21 20 19 17 16 14 13 12 11 12 11 11 11 10 10 9 10 11 12
16 22 26 26 24 24 20 20 23 21 23 20 20 17 20 23 19 20 17 17 18 18 18 18 17 17 15 13 12 11 10 9 8 8 8 8 9 10 11 10 9 8 10
24 27 27 25 27 27 25 23 24 24 20 17 19 18 22 22 19 15 15 16 17 17 16 16 14 13 11 9 8 8 7 7 7 6 7 8 8 9 9 10 11 10 8
27 24 24 24 23 23 24 24 25 23 23 20 24 21 26 21 17 17 17 18 17 15 15 14 11 9 7 6 5 6 8 7 7 8 8 8 8 8 8 9 9 10 11
25 24 24 24 23 23 23 22 21 21 21 21 20 19 18 19 19 17 17 16 16 14 13 11 9 7 6 6 6 6 7 8 9 9 10 9 8 8 8 8 8 8 8
24 24 23 21 20 21 20 21 22 21 18 17 15 16 17 18 17 16 15 14 15 13 12 10 9 8 8 8 8 8 7 8 9 10 11 11 10 9 8 7 6 6 7

GFSGL_700_spd_006.txt.gz
Wind_Speed
23 25 29 30 29 28 25 23 20 22 21 21 19 18 19 18 18 18 18 18 17 17 18 19 19 20 22 23 26 29 31 33 34 28 31 28 27 27 30 31 31 33 34
27 29 32 35 34 33 31 27 26 25 23 24 19 18 18 18 18 18 18 17 15 16 18 20 19 23 24 26 28 31 32 31 33 32 29 34 32 29 31 32 34 34 36
29 33 33 35 36 34 35 32 31 25 23 25 21 17 17 18 18 18 19 17 17 17 20 21 21 24 22 24 28 30 33 33 33 35 34 33 34 28 33 34 36 38 38
30 34 37 36 35 35 40 26 28 23 24 23 20 16 15 16 16 17 19 18 18 19 20 20 23 25 24 25 28 32 35 35 34 36 35 34 34 32 36 38 41 42 46
24 26 30 34 40 39 42 30 27 22 25 23 20 15 15 15 17 18 18 19 21 21 20 23 24 26 27 27 25 25 29 29 31 33 35 35 33 35 37 38 41 45 45
24 23 25 33 39 46 43 33 26 25 26 24 24 17 15 17 20 22 21 24 24 25 24 24 25 30 30 28 30 32 31 32 32 34 35 34 33 36 37 41 46 49 56
28 27 29 27 33 45 41 25 29 33 29 20 21 16 15 20 23 25 26 26 27 29 30 28 31 32 31 30 33 37 36 34 35 36 37 35 36 34 41 44 43 50 54
30 31 30 34 35 39 46 35 35 32 23 21 20 18 19 23 26 26 25 26 29 29 29 34 34 31 28 31 37 36 27 29 34 34 36 35 35 38 41 41 45 48 59
21 24 28 31 33 37 39 24 30 30 26 20 22 25 24 27 27 29 30 27 31 30 33 33 32 31 28 32 32 27 25 29 32 32 33 33 37 39 37 43 45 54 63
19 25 24 27 32 32 28 24 31 32 29 26 31 33 28 27 24 32 29 28 32 31 32 31 31 33 34 33 31 30 29 31 34 31 29 33 36 34 33 39 45 53 61
23 24 27 31 30 26 28 30 34 35 25 30 29 30 37 34 24 25 28 32 31 32 30 29 31 31 30 32 31 29 31 32 34 33 31 34 32 30 31 36 42 51 52
30 29 29 30 29 28 27 33 30 28 30 29 32 38 44 32 18 23 28 30 31 29 29 28 27 28 29 31 30 29 31 32 31 30 30 31 29 29 32 36 44 40 39
31 29 30 28 26 23 23 28 35 32 35 29 31 41 25 24 21 25 28 29 28 27 26 26 27 30 31 28 26 26 29 30 30 27 26 26 27 29 33 37 42 41 35
32 27 27 23 21 27 32 35 40 36 40 20 24 28 24 20 22 26 28 28 29 26 25 27 30 31 29 27 26 27 26 27 26 23 22 25 28 29 32 33 38 43 36
33 27 29 29 29 30 30 37 31 29 21 25 23 27 23 21 24 28 30 30 30 26 27 28 30 32 24 23 23 26 27 27 25 23 23 25 25 26 26 27 31 42 37
20 18 15 14 17 16 23 23 28 32 18 21 21 24 23 25 29 31 32 32 28 27 27 27 29 21 16 19 23 25 26 25 24 24 23 24 24 25 24 22 25 32 40
8 8 4 7 11 14 18 17 17 18 20 21 25 25 27 28 32 34 33 28 26 26 25 24 18 12 14 19 22 24 23 22 22 22 22 23 22 23 21 17 21 24 30
7 2 2 5 10 15 18 20 21 21 22 24 27 27 28 30 32 31 29 26 26 26 26 22 19 19 21 24 25 23 23 21 21 20 19 21 20 19 16 13 16 22 25
4 6 9 13 15 18 20 20 20 23 23 27 28 27 28 29 30 26 22 23 24 26 24 23 22 22 24 25 24 22 20 19 17 17 16 16 16 15 14 12 12 16 20
12 12 15 15 13 18 19 21 25 25 26 26 27 24 25 29 24 22 24 24 22 22 22 21 22 22 22 23 21 19 18 16 15 15 14 13 13 13 12 11 12 11 14
12 15 14 9 10 18 25 28 28 27 25 26 24 24 28 24 23 23 24 26 26 23 21 21 21 21 21 19 17 16 14 14 13 12 11 9 9 11 12 12 11 11 10
14 16 15 16 20 23 24 23 22 22 21 24 23 25 23 22 19 24 27 23 25 22 20 21 20 19 17 16 14 12 11 10 10 9 9 8 8 9 11 12 12 11 10
19 19 21 24 27 25 24 23 22 22 22 23 23 21 19 22 25 24 22 19 20 20 20 20 19 17 15 13 11 9 8 8 8 8 9 9 9 8 9 10 11 12 12
20 22 25 25 26 26 24 22 21 20 21 21 19 15 22 24 21 19 20 23 22 21 19 18 17 15 13 10 8 8 8 9 9 9 9 9 9 8 8 8 9 8 10
22 24 23 24 26 25 24 22 20 18 17 15 16 18 18 17 18 19 21 22 21 19 18 16 15 13 11 9 8 8 9 9 10 10 10 10 10 10 8 7 7 7 6
21 22 21 22 22 22 20 17 15 16 16 17 17 17 16 17 19 20 20 19 19 17 17 15 14 13 11 10 9 9 10 11 11 11 11 11 11 10 8 6 5 5 5

GFSGL_700_spd_009.txt.gz
Wind_Speed
21 22 26 31 30 28 26 26 28 23 24 20 21 19 17 17 17 16 16 17 16 17 18 19 19 19 19 21 22 24 25 27 30 24 30 30 25 26 28 31 31 32 33
23 26 27 30 33 27 31 27 29 35 27 25 25 22 20 19 18 18 16 15 16 17 18 20 21 21 20 21 22 22 25 29 34 35 27 28 31 27 29 29 30 32 32
27 27 31 33 37 40 35 38 27 34 33 27 27 23 24 22 18 17 17 16 14 15 18 21 20 21 22 24 24 25 29 28 33 36 33 28 29 28 29 29 30 33 34
27 27 30 33 35 39 41 45 46 33 30 32 28 25 28 25 20 17 16 17 14 17 21 23 22 25 25 25 27 29 31 30 32 34 33 31 29 29 32 32 33 35 36
22 22 22 24 36 42 45 49 48 50 31 30 28 28 29 26 23 19 17 19 19 21 24 25 24 26 26 28 32 32 32 34 38 37 37 36 32 35 37 37 38 38 39
20 20 20 24 29 38 47 49 49 48 30 35 28 30 28 28 24 21 20 21 24 26 27 28 27 27 28 34 33 33 31 35 39 38 34 32 33 36 38 38 38 40 46
28 29 30 31 30 31 35 39 45 46 44 25 35 32 30 25 24 25 24 24 27 29 30 27 29 30 33 35 33 32 30 36 38 35 32 31 36 34 38 39 39 44 47
24 23 24 29 33 33 33 33 35 36 40 31 31 31 26 26 27 29 26 27 28 30 31 31 33 31 35 34 32 30 32 35 36 34 35 36 36 35 39 42 44 47 48
10 10 14 18 23 29 35 32 33 33 38 41 33 32 31 32 35 34 28 35 32 32 30 32 33 34 32 33 35 35 36 33 35 36 35 37 37 36 39 45 43 46 49
11 14 23 24 24 27 30 31 30 30 30 23 33 28 28 29 30 31 34 42 44 36 28 33 35 34 33 35 34 34 34 33 33 33 35 35 35 35 37 39 41 44 48
21 32 37 34 26 27 30 30 27 29 30 33 39 27 32 31 26 32 39 47 33 29 27 31 35 35 35 34 33 33 34 31 30 32 32 31 31 32 32 33 35 41 47
37 34 33 28 30 27 29 27 22 27 28 27 34 34 38 32 28 33 41 34 27 28 26 31 32 35 34 33 33 32 30 28 29 30 31 29 29 30 29 32 35 37 37
27 31 29 26 30 28 24 16 19 23 23 31 32 38 32 25 28 31 31 29 25 26 28 30 33 32 32 32 32 32 29 29 30 30 30 29 29 30 31 33 31 35 35
33 27 24 25 26 26 19 16 16 22 31 30 29 26 28 36 30 26 27 25 25 27 28 31 29 29 30 31 31 27 27 27 29 31 31 29 29 30 31 31 32 33 35
24 19 18 20 20 21 19 19 13 16 19 28 36 26 25 31 26 23 24 24 26 29 31 29 27 28 27 28 24 21 24 26 28 29 29 27 27 27 27 27 27 27 32
13 11 10 12 12 8 9 13 16 17 20 24 26 23 25 25 24 26 26 27 31 31 27 25 25 23 25 19 18 20 23 27 28 27 26 26 25 26 25 22 22 23 28
7 7 10 11 10 10 13 15 16 16 16 16 20 22 22 23 25 27 29 30 32 30 28 26 24 23 23 22 23 24 26 28 28 27 25 23 23 24 23 21 20 20 22
8 10 13 13 11 10 12 15 16 17 17 19 22 24 24 25 25 28 30 31 31 28 24 23 24 25 24 23 24 26 27 27 27 24 22 21 21 21 19 18 20 19 20
9 12 14 12 10 12 16 19 19 20 20 21 23 24 25 24 26 27 28 29 25 23 24 24 23 22 21 22 23 24 25 25 24 21 19 18 17 17 17 17 17 18 18
13 17 15 13 14 15 16 14 16 18 22 26 25 25 23 25 26 27 30 26 23 25 25 22 21 20 20 21 22 23 22 21 19 16 15 14 14 14 14 15 15 15 15
16 16 15 14 14 13 13 16 21 25 26 25 25 24 25 24 26 28 26 24 24 26 27 21 20 20 20 21 21 20 18 16 15 13 12 11 12 12 13 14 15 15 15
16 15 17 16 17 17 18 20 24 21 21 23 23 22 22 23 27 26 24 25 24 22 20 19 20 20 20 20 18 16 14 12 11 11 10 10 10 11 11 13 14 15 15
14 16 19 18 20 21 22 22 22 20 19 20 20 22 22 25 26 24 24 25 23 21 21 21 21 21 20 18 16 13 10 9 9 10 10 10 10 9 10 11 12 12 13
16 17 19 20 21 23 23 22 20 19 20 20 20 22 24 22 20 23 24 20 20 22 22 19 18 18 17 15 12 10 9 9 9 9 10 11 10 9 9 10 10 11 11
18 20 23 24 24 23 24 23 20 20 19 19 18 20 19 18 21 21 20 20 21 21 18 16 16 15 14 12 11 9 9 9 10 10 11 12 12 10 9 8 9 7 8
20 22 23 22 21 21 20 17 16 16 17 18 18 17 17 17 17 19 20 21 21 20 18 16 15 14 13 12 11 10 10 11 11 11 11 11 11 10 7 6 5 6 6

GFSGL_700_spd_012.txt.gz
Wind_Speed
28 24 25 25 25 28 28 25 24 23 26 23 21 24 25 20 19 22 21 19 17 17 15 14 15 16 17 18 18 19 20 23 21 17 23 25 31 37 30 30 31 31 30
23 23 25 26 30 32 32 31 28 21 27 29 22 23 26 26 22 24 25 23 19 17 15 14 18 20 19 18 20 21 21 24 26 29 20 25 32 33 34 32 29 31 32
26 27 28 29 30 31 34 39 37 37 31 28 28 32 26 30 27 26 27 25 21 17 14 15 16 20 19 20 21 23 24 29 27 33 33 31 29 33 31 31 29 28 31
29 29 31 30 31 32 37 42 41 43 42 43 42 35 36 39 29 30 28 27 23 20 17 17 19 22 23 24 25 26 29 31 31 29 28 26 33 29 26 28 27 28 33
30 30 30 31 33 36 40 41 42 48 53 53 55 49 39 37 34 30 29 28 25 22 19 21 24 25 27 28 27 28 31 31 29 29 27 33 32 28 29 33 35 37 35
30 31 27 26 26 28 34 36 40 45 49 54 54 45 44 28 36 36 32 31 26 25 22 23 25 29 26 30 30 30 33 32 31 31 33 35 32 31 31 37 40 40 40
28 28 27 28 30 30 32 32 35 37 41 44 46 44 43 34 31 37 33 33 31 28 27 27 31 32 33 30 32 32 32 32 33 34 38 34 35 35 37 40 39 40 40
33 30 29 29 24 23 20 22 27 33 32 36 36 35 32 30 29 33 35 34 32 26 28 33 37 42 35 31 33 32 31 34 35 35 36 39 39 37 38 41 40 40 40
34 34 30 23 14 16 24 22 22 25 28 32 34 30 31 30 31 33 32 30 31 29 33 37 42 45 38 31 33 33 34 33 35 36 36 39 38 36 38 41 38 40 41
35 31 24 19 22 28 31 27 26 28 28 27 29 28 28 24 32 30 27 38 25 30 38 40 41 38 30 31 31 33 35 33 35 34 37 34 33 34 33 34 35 35 39
30 27 25 24 29 29 27 28 26 28 27 24 21 23 27 28 29 36 36 28 31 33 34 34 31 27 31 31 31 34 34 35 36 34 32 29 31 32 32 32 33 36 40
22 21 24 24 24 26 25 30 27 25 19 18 17 20 23 32 33 28 27 30 31 32 26 28 33 33 32 31 33 32 34 36 35 32 30 29 32 32 32 33 33 35 35
23 23 25 31 33 29 27 29 28 21 18 18 19 18 15 29 25 26 28 24 28 28 28 29 31 31 31 33 31 32 34 35 31 26 26 30 32 31 31 32 32 31 31
28 33 35 29 26 24 25 24 21 19 17 17 16 16 21 16 16 28 29 30 27 31 28 29 30 30 31 30 32 30 31 22 20 23 26 29 29 30 30 30 30 29 28
32 33 31 28 26 26 25 22 22 20 16 14 12 16 23 20 25 21 18 24 26 26 27 28 31 29 27 30 28 28 23 20 22 26 28 29 30 29 28 28 28 26 26
23 24 24 24 23 22 22 20 17 16 16 13 13 17 25 17 16 17 18 22 24 25 26 28 29 28 27 28 26 25 25 25 27 29 29 29 29 28 27 25 24 24 26
19 18 16 15 17 17 18 17 16 16 15 14 13 15 14 14 17 19 21 23 25 26 27 28 28 25 25 25 25 25 24 25 27 28 27 27 26 25 24 23 22 22 22
14 13 12 14 17 16 13 12 13 14 13 12 12 13 16 19 20 22 24 24 27 26 27 23 22 23 23 23 23 23 23 25 26 26 25 23 22 21 20 20 21 21 22
13 12 11 15 15 15 15 14 15 14 15 14 15 17 20 23 23 25 24 25 25 28 26 22 23 22 21 20 20 20 21 23 23 22 20 18 17 17 17 18 18 19 21
17 15 14 17 19 16 13 14 15 14 15 18 21 25 24 24 25 24 24 23 25 25 22 22 23 22 20 19 19 19 21 21 20 18 16 15 14 14 15 15 16 17 19
20 19 17 19 21 18 13 13 12 14 18 23 25 26 22 21 22 22 24 24 24 22 21 19 18 16 17 18 18 19 18 18 16 14 12 12 12 13 15 15 15 15 17
22 23 21 23 22 18 17 17 18 21 22 22 19 22 21 20 21 23 25 26 24 21 22 18 18 18 18 18 18 18 16 15 13 11 11 10 11 12 14 15 15 15 15
23 24 23 23 20 18 19 20 22 23 18 17 15 24 19 21 22 24 25 24 21 20 19 19 20 21 19 18 17 15 14 12 10 10 10 10 10 11 13 14 15 15 14
21 20 20 20 20 20 22 23 22 21 18 19 19 22 22 20 21 21 22 21 20 19 19 18 19 18 16 15 14 13 11 10 10 9 10 11 12 11 13 14 14 14 13
19 19 19 20 21 22 22 22 17 16 19 18 18 19 19 20 19 18 20 19 19 19 17 18 18 17 15 14 13 12 11 10 9 9 9 11 12 11 11 13 12 12 11
17 19 21 22 23 23 23 22 19 17 16 14 13 16 18 18 15 16 22 19 19 19 20 20 18 17 16 15 13 13 12 10 10 9 9 9 10 9 8 10 10 9 10

GFSGL_700_spd_015.txt.gz
Wind_Speed
28 28 27 24 20 20 19 23 25 26 22 25 21 23 24 24 19 19 23 27 25 21 20 17 14 12 14 16 12 13 16 17 18 16 20 24 29 30 32 33 34 36 33
28 29 28 27 25 23 24 27 30 29 31 28 28 27 28 28 23 30 28 29 29 24 24 20 17 17 15 14 14 17 17 25 24 23 25 26 29 31 34 34 38 31 31
27 26 27 28 27 27 28 33 34 34 37 35 36 39 32 38 40 45 45 37 30 27 24 22 19 20 16 15 17 19 21 24 22 29 28 24 25 27 27 32 31 21 28
30 30 28 27 27 29 31 33 37 36 39 44 45 45 48 47 46 51 53 31 33 29 26 24 23 23 22 19 21 23 25 25 29 28 26 30 26 23 31 33 29 25 23
33 31 30 29 30 32 33 34 35 36 38 41 45 49 53 53 52 46 30 29 31 35 30 27 25 23 24 25 27 27 25 27 30 30 28 29 26 30 33 33 34 36 35
34 31 31 31 30 33 33 33 34 34 36 40 40 46 48 49 49 52 38 33 34 34 29 30 27 27 27 28 29 33 31 29 30 31 31 32 30 33 31 33 38 39 42
33 33 31 32 31 32 30 31 31 28 28 27 36 38 40 40 42 42 40 34 34 37 32 28 25 22 27 29 34 42 36 32 32 32 34 32 32 32 36 39 39 38 38
31 30 33 34 31 27 26 25 16 15 19 22 26 28 33 35 36 37 36 35 37 33 27 27 27 27 28 33 39 43 30 31 33 34 35 33 33 36 38 36 33 34 34
35 35 35 33 28 23 22 19 17 21 24 23 24 25 27 31 33 30 27 35 35 32 29 30 27 31 36 37 37 35 28 32 32 36 36 33 35 35 33 34 34 34 34
37 37 34 29 27 25 22 21 22 22 22 24 24 26 26 21 22 24 24 23 26 34 35 36 32 33 33 34 28 29 31 32 34 33 35 38 38 34 29 32 33 34 35
37 34 31 28 26 26 23 19 19 22 25 27 26 26 23 17 18 21 23 22 23 28 24 24 29 30 27 28 29 31 33 34 33 34 36 37 27 30 27 26 35 36 36
36 33 31 30 28 26 22 24 26 26 28 28 27 23 21 18 17 19 27 25 19 22 26 28 31 30 26 28 31 33 34 34 33 34 36 30 25 27 28 30 31 32 31
33 31 30 27 26 23 26 31 31 29 30 29 24 20 18 19 20 16 27 27 22 24 22 23 26 25 28 31 33 34 33 30 30 31 22 23 24 27 28 29 29 29 29
31 29 26 24 28 30 33 34 31 30 29 26 21 21 20 21 21 20 16 18 23 28 24 24 25 27 31 34 37 34 29 26 26 23 22 26 28 29 29 29 28 26 26
27 27 27 28 31 31 31 28 29 27 25 24 23 20 19 17 17 21 20 20 19 19 19 23 24 28 31 33 30 31 32 30 26 24 27 29 29 29 29 27 25 24 24
24 25 24 25 24 23 24 25 24 24 24 20 18 19 16 13 20 20 14 10 15 17 19 22 25 24 26 24 22 25 27 29 30 27 26 27 27 27 26 23 21 21 23
21 21 22 20 19 18 19 20 20 18 17 18 18 14 10 10 12 12 14 15 17 20 22 24 26 19 23 21 23 26 28 30 29 26 25 26 26 24 22 20 19 19 20
19 15 14 16 19 15 16 18 19 20 19 17 15 12 10 11 12 14 17 18 20 21 23 22 23 25 23 25 25 25 26 25 25 24 24 24 22 21 18 17 17 18 20
12 13 15 15 17 15 15 16 16 15 16 15 12 12 12 13 17 19 19 19 19 16 18 25 25 23 23 27 26 23 22 22 22 22 21 19 18 17 16 16 16 17 19
15 17 17 16 13 16 18 16 15 11 12 17 15 14 16 19 21 21 20 20 19 20 24 23 23 23 22 21 18 20 19 19 19 18 17 15 15 15 15 16 15 16 17
16 18 18 18 13 16 17 14 9 7 9 16 19 23 17 17 19 18 22 20 18 20 22 21 22 22 19 18 18 18 18 18 17 16 14 13 14 15 15 16 15 15 16
11 14 15 12 13 12 11 11 10 9 10 10 21 25 25 19 14 21 22 22 22 20 20 22 21 20 19 20 20 18 17 16 15 13 12 12 13 14 15 16 16 16 16
12 13 13 16 17 17 16 12 11 12 12 20 25 24 23 20 17 21 20 22 21 22 20 19 19 19 20 18 18 16 15 14 13 11 11 12 13 13 15 16 16 16 15
18 17 17 19 18 14 14 16 17 16 20 24 24 26 20 19 16 17 21 20 22 21 20 18 17 18 19 17 16 15 14 12 11 11 11 12 14 14 14 15 15 14 13
15 17 20 23 17 18 16 17 16 20 20 20 23 20 17 17 16 17 22 21 21 20 19 17 17 18 16 17 17 15 12 11 10 10 11 12 14 14 14 14 13 11 11
7 15 14 16 14 15 16 16 15 19 16 14 13 20 18 21 18 19 18 18 15 16 18 19 18 17 18 17 15 14 13 11 10 10 11 12 13 14 13 13 11 10 10

GFSGL_700_spd_018.txt.gz
Wind_Speed
28 27 25 23 21 17 17 19 20 24 22 25 19 22 24 24 24 27 29 37 41 45 29 26 19 14 13 14 14 14 13 13 19 14 19 20 23 27 28 30 31 30 29
24 27 26 26 24 22 21 20 21 24 28 29 28 27 29 33 33 34 37 41 39 45 36 22 21 18 16 16 16 16 15 15 19 22 20 23 27 26 26 28 31 28 29
24 23 26 27 27 25 24 24 25 25 28 32 34 35 35 37 39 39 38 40 40 37 37 26 25 20 20 20 20 20 19 22 23 23 24 24 24 21 24 26 29 26 28
28 25 23 25 25 25 25 26 30 30 31 35 36 37 39 41 43 44 46 45 45 44 39 33 31 23 20 20 19 19 19 22 23 25 27 28 28 26 30 28 29 29 31
29 28 24 22 23 24 25 26 28 32 32 34 36 38 40 42 42 46 48 46 47 47 46 43 36 26 20 20 20 22 23 26 28 28 29 27 29 28 30 31 33 32 33
30 29 26 26 27 27 26 29 31 31 31 31 32 34 35 39 41 41 43 46 47 45 44 45 39 27 21 20 22 21 23 31 33 36 32 27 29 30 30 31 34 36 38
32 31 26 27 26 27 28 31 32 31 31 28 26 23 26 31 34 33 37 42 45 45 43 47 41 33 28 20 22 25 28 31 37 31 29 26 30 30 31 33 35 38 38
34 35 29 28 29 29 28 29 29 28 26 21 18 20 22 25 26 29 33 37 37 36 37 39 28 28 28 25 29 29 31 31 27 28 27 28 31 30 31 36 37 36 34
34 35 32 32 34 33 30 28 25 26 21 16 16 21 24 23 24 25 29 32 27 28 31 26 26 33 29 28 31 30 29 27 25 26 29 31 32 32 34 38 35 36 33
31 33 36 39 39 34 31 26 26 21 16 16 19 21 23 24 25 25 24 24 25 24 22 19 25 21 21 24 25 25 25 26 27 27 30 32 32 33 34 32 32 30 32
33 35 39 39 38 35 30 29 24 18 17 17 21 24 27 26 25 22 22 19 20 20 19 20 21 25 21 22 25 25 27 28 29 32 33 32 32 32 24 23 31 33 34
40 39 37 38 36 33 30 24 21 19 19 22 26 27 27 26 23 24 19 20 20 23 17 21 19 18 20 21 21 23 28 31 33 34 32 31 30 22 22 25 28 31 33
41 42 39 34 34 31 30 25 19 20 26 29 28 27 26 24 22 21 22 21 20 24 25 22 21 24 21 21 23 28 31 33 33 30 28 28 24 24 27 30 29 29 29
42 41 37 32 30 27 24 22 23 27 28 27 26 25 25 24 24 21 20 20 26 24 19 20 21 21 21 23 26 30 32 29 26 22 23 23 24 26 28 29 29 26 26
36 32 32 31 28 24 23 23 25 25 24 24 25 24 23 19 16 17 20 17 20 19 19 21 19 20 22 22 25 28 30 26 27 32 27 25 25 26 27 28 26 23 23
30 29 25 22 20 20 22 23 22 22 23 22 22 18 14 17 18 17 14 16 13 14 16 17 18 20 20 25 28 28 29 28 30 32 32 27 25 26 27 24 21 20 20
20 18 18 18 22 20 19 18 17 19 19 17 16 16 16 16 15 15 13 12 12 13 15 16 19 21 24 22 25 29 27 28 31 30 26 25 25 25 24 21 19 18 18
19 20 17 17 17 15 15 15 16 16 16 16 16 14 13 14 13 12 13 14 15 16 17 19 19 20 23 23 26 26 25 25 24 24 24 24 24 23 20 19 17 17 18
10 11 20 29 18 13 10 11 14 17 17 15 15 11 13 14 14 15 16 17 16 17 13 11 20 22 22 22 24 22 20 19 21 21 22 22 20 18 17 17 16 16 17
9 13 17 19 18 15 10 10 11 13 21 14 13 12 13 16 17 18 18 16 16 16 18 20 20 21 20 20 21 21 21 20 20 20 19 19 17 15 16 16 15 16 16
17 17 15 18 16 14 12 13 13 11 16 14 15 16 14 17 18 18 18 13 11 12 17 18 17 20 20 20 19 19 20 20 20 19 17 15 14 14 15 15 16 15 16
12 12 16 18 11 10 13 10 11 13 15 13 13 15 20 22 23 21 20 15 19 19 19 17 16 19 21 19 18 19 18 18 18 16 15 13 13 14 15 16 17 16 16
10 14 11 17 21 16 18 16 15 17 21 24 22 24 23 26 25 23 21 19 21 19 21 16 15 18 20 16 16 16 16 17 15 13 12 12 13 14 15 16 17 16 15
21 14 15 18 21 21 18 16 23 18 20 26 25 23 28 24 21 26 23 22 19 19 20 20 18 17 17 17 18 16 14 14 13 11 11 12 13 14 15 15 15 13 14
25 24 17 21 24 23 12 21 14 17 19 23 25 26 24 25 25 23 23 18 17 19 21 21 17 16 14 16 19 15 14 13 11 11 10 12 13 14 13 13 13 12 13
21 22 18 18 21 23 23 10 12 17 16 18 22 23 17 16 19 19 21 22 22 19 21 18 15 12 12 13 14 15 14 12 12 11 11 12 12 13 12 13 12 12 12

GFSGL_700_spd_021.txt.gz
Wind_Speed
18 20 24 25 22 21 19 17 15 17 16 13 14 17 19 19 20 23 26 27 28 28 29 30 29 18 18 18 17 15 13 14 12 10 12 14 16 18 21 22 23 25 26
20 21 25 27 26 24 20 16 17 17 18 19 19 18 21 25 26 27 29 33 32 32 30 30 30 27 30 25 18 17 16 15 15 15 15 14 16 19 19 22 23 25 22
24 21 25 30 28 25 21 20 19 19 21 21 21 21 22 27 29 31 33 36 36 36 34 33 32 29 29 29 22 23 19 15 17 17 15 20 22 22 21 21 22 25 25
23 23 22 26 25 24 22 22 22 22 23 24 26 27 28 31 32 33 34 40 42 41 38 35 34 33 27 26 27 21 24 21 18 18 18 24 27 28 27 27 26 28 27
24 24 25 23 24 26 27 26 26 27 25 27 29 31 32 34 35 32 23 33 42 43 41 39 38 35 34 28 33 24 24 24 22 19 22 25 24 26 29 30 32 31 31
26 25 26 26 26 26 25 26 25 26 29 29 31 33 35 34 32 25 23 27 35 38 39 38 37 39 39 37 32 26 28 24 22 23 25 28 24 23 28 28 29 31 33
23 29 28 29 29 27 26 26 25 24 26 29 31 32 31 27 18 18 20 27 34 33 35 34 30 37 33 26 26 27 32 21 27 24 27 24 27 24 28 29 30 32 33
27 31 31 31 31 30 30 29 28 28 29 30 29 28 22 20 22 23 26 29 31 33 33 29 25 31 30 22 27 27 25 21 26 24 25 26 25 26 30 30 32 34 34
30 34 31 32 31 32 31 30 29 29 29 28 26 19 19 19 21 25 31 30 30 33 30 26 27 22 19 21 23 24 24 16 21 24 27 27 26 29 29 31 33 37 35
26 35 32 32 31 32 32 32 29 31 28 27 22 19 19 20 23 27 30 29 31 31 27 24 26 20 18 22 19 22 23 22 22 24 28 29 30 31 29 30 31 27 25
28 36 35 34 32 33 36 35 33 28 28 25 23 21 19 23 28 30 29 29 28 27 23 21 20 19 18 22 23 22 23 23 23 29 30 31 33 31 29 28 23 24 29
32 34 36 35 36 37 39 39 32 28 27 26 21 19 24 28 28 28 28 27 29 27 21 21 21 17 16 18 19 21 23 25 27 31 32 33 28 24 25 25 24 27 32
35 39 40 42 40 39 39 33 33 30 28 20 21 25 27 27 28 27 27 28 28 26 23 16 21 20 19 19 20 23 25 27 29 30 31 23 20 21 22 24 26 28 29
32 42 44 47 43 41 34 34 31 28 22 22 24 27 26 27 24 24 26 25 22 22 19 21 20 18 18 19 23 25 27 26 25 27 26 23 16 19 22 25 27 27 28
39 40 43 44 40 32 31 29 22 21 21 24 27 28 25 23 21 23 22 20 20 17 16 16 17 19 20 22 25 27 24 24 26 26 24 26 21 21 22 24 26 26 24
36 33 32 28 28 28 22 20 20 22 25 24 23 22 21 22 20 20 19 20 17 15 13 12 15 18 21 23 22 23 22 24 28 28 23 20 21 24 25 25 24 22 20
27 25 25 23 19 18 19 20 23 24 21 19 21 19 17 18 18 16 15 16 12 11 14 17 19 22 23 21 20 22 23 28 27 28 26 22 23 25 25 23 20 19 18
19 19 17 18 17 19 19 22 18 15 17 19 17 16 15 17 14 11 12 12 11 14 16 19 21 23 22 17 19 23 25 26 25 26 24 24 24 25 23 20 18 18 18
20 21 20 18 16 16 15 14 20 23 22 18 15 13 13 13 11 12 13 14 15 18 21 23 23 15 14 18 20 21 21 20 20 22 22 22 22 22 19 17 18 18 19
18 17 16 15 17 18 14 19 18 25 21 16 10 10 12 11 12 12 15 18 19 21 22 21 21 21 18 19 21 20 18 18 19 21 20 19 19 17 16 16 17 18 19
16 19 18 14 14 13 8 13 19 17 13 11 8 10 12 10 11 10 12 16 18 20 19 17 18 17 19 17 17 18 18 19 19 19 16 15 15 14 14 16 17 18 20
21 19 22 19 17 15 14 13 17 14 9 10 10 12 15 16 15 15 19 17 19 20 17 13 13 16 18 15 15 15 15 17 17 13 12 13 13 12 13 15 16 17 18
17 16 16 19 15 12 12 13 14 17 17 18 16 17 15 18 20 22 25 22 19 17 19 18 14 16 18 14 14 15 17 17 15 13 13 13 12 12 13 15 15 15 16
18 17 23 29 27 22 21 19 23 22 24 22 21 18 18 22 23 26 26 21 21 20 22 19 18 14 16 15 13 13 17 17 16 14 13 12 12 12 12 13 13 14 15
32 21 18 19 21 23 22 21 24 18 17 23 18 16 20 18 22 23 25 25 20 21 20 20 18 16 14 14 16 16 15 15 15 15 14 13 13 11 11 12 12 12 14
21 18 18 20 23 25 19 22 23 22 20 18 17 16 17 23 24 18 18 16 16 17 17 19 15 12 11 10 13 15 15 14 14 15 15 14 13 11 10 11 11 11 12

GFSGL_700_spd_024.txt.gz
Wind_Speed
20 19 21 23 26 25 20 19 21 22 21 16 14 15 16 16 15 15 17 21 22 24 26 26 25 25 21 17 16 16 18 19 16 14 11 12 15 14 15 18 19 19 20
22 20 19 24 29 27 23 20 24 22 20 18 17 17 20 20 20 20 20 24 28 30 30 30 27 25 26 22 18 19 20 19 28 17 19 16 16 18 20 21 22 25 25
25 25 22 25 28 29 26 22 23 23 21 18 18 16 16 19 21 23 24 26 29 33 32 32 29 28 25 27 26 20 24 22 25 20 18 16 14 17 20 21 25 27 28
25 29 26 23 27 28 27 26 24 22 20 19 18 19 20 22 23 24 26 28 30 34 34 34 31 31 27 27 29 23 29 33 27 27 25 21 20 21 25 26 27 28 28
24 27 29 25 27 31 31 29 27 27 26 23 23 24 24 25 25 26 28 29 30 33 35 35 32 30 28 27 29 28 32 31 32 31 28 25 23 26 27 29 31 30 30
21 28 27 28 30 34 32 31 31 29 28 27 28 28 29 29 28 27 29 27 26 28 31 32 31 29 25 25 28 25 25 23 25 29 27 21 25 27 28 29 29 30 33
23 24 26 32 32 35 34 33 32 31 30 30 29 30 30 30 27 26 26 24 24 30 32 32 32 28 25 26 26 28 23 24 26 32 23 25 21 23 27 29 30 34 34
25 28 27 28 34 36 35 34 33 32 31 30 30 31 30 27 24 25 24 26 26 33 34 33 33 26 25 27 28 22 24 23 23 26 23 23 23 24 28 32 35 36 37
27 27 31 29 34 38 39 37 36 34 33 32 31 31 26 25 23 22 22 24 29 33 33 33 34 31 24 26 24 20 25 21 22 24 25 26 26 28 30 34 36 38 36
31 25 26 37 33 35 39 40 38 37 35 35 32 27 25 25 23 22 23 30 34 33 31 32 30 25 21 30 22 24 26 20 23 25 27 27 30 33 36 38 37 35 33
30 28 28 27 41 34 32 37 39 38 37 34 29 24 26 24 24 24 28 31 33 31 31 29 26 24 20 26 25 24 22 23 23 24 27 30 34 37 36 33 32 30 29
31 34 31 31 33 37 36 36 38 39 37 36 28 23 28 24 22 28 31 30 30 28 28 26 25 20 19 20 22 21 20 21 25 28 29 33 35 32 28 26 26 28 29
35 35 32 33 32 40 41 41 40 38 35 33 30 28 29 26 26 30 29 27 27 25 25 23 21 19 17 21 22 20 22 25 25 28 30 30 32 21 21 24 25 27 29
40 36 34 35 35 40 45 43 41 38 34 31 30 27 25 24 25 28 25 26 25 24 25 19 20 20 19 20 22 24 25 24 27 28 29 25 26 22 21 23 24 26 27
46 40 34 34 31 34 48 47 41 38 34 29 21 22 24 27 26 28 25 24 22 23 21 20 17 16 18 21 22 21 22 25 27 27 23 25 22 21 22 24 25 27 29
39 43 34 33 35 38 44 39 39 31 27 25 22 24 28 26 24 23 22 20 21 22 18 15 16 17 18 20 19 21 24 24 23 21 23 23 23 23 23 23 26 28 27
30 41 46 42 40 37 32 22 14 26 24 24 20 24 24 18 20 21 18 21 21 18 15 15 18 20 20 20 20 19 17 20 21 23 25 23 21 21 22 23 25 25 23
29 33 33 30 19 22 21 27 16 27 21 21 19 20 20 21 19 18 17 20 19 15 16 19 21 20 21 20 17 17 18 18 19 21 24 23 22 21 22 23 23 22 23
20 18 21 19 18 15 10 5 12 21 17 20 22 20 24 28 38 22 17 17 17 17 20 23 22 19 19 15 17 17 17 19 22 23 25 24 23 22 21 22 20 21 23
23 21 20 21 20 19 15 13 14 19 18 19 19 21 18 17 16 13 14 15 17 21 23 22 19 19 17 19 18 17 17 18 20 22 23 22 20 19 18 17 19 20 22
20 20 19 19 19 19 16 16 14 21 22 16 13 12 16 11 7 9 10 13 16 16 16 17 17 17 19 20 19 18 20 19 17 16 16 16 16 15 13 15 17 20 21
14 15 16 16 17 18 14 11 10 13 12 12 16 19 13 11 6 7 12 14 15 18 16 18 18 19 21 19 17 19 20 17 17 16 15 14 14 13 13 15 16 18 20
14 16 15 15 18 18 17 14 15 11 10 12 11 13 7 11 13 13 17 21 21 20 17 18 18 16 16 18 18 18 19 17 16 14 14 13 14 14 13 14 16 17 19
11 10 13 14 14 13 13 14 14 13 10 14 15 16 13 18 21 17 17 20 22 20 22 17 16 15 14 18 18 17 17 17 15 13 13 13 14 13 12 14 15 16 18
17 18 18 18 25 24 30 25 25 22 17 19 20 20 19 17 20 18 19 21 17 16 17 21 20 16 16 18 18 16 15 14 13 13 12 13 13 12 12 13 14 15 16
31 30 29 25 19 21 20 17 18 14 18 23 22 28 19 18 19 18 20 14 14 14 16 19 16 14 18 16 17 17 16 15 13 12 13 12 13 12 12 12 13 13 15

GFSGL_700_spd_027.txt.gz
Wind_Speed
23 21 21 24 26 26 27 22 21 24 27 26 23 20 15 13 13 12 12 14 15 17 20 21 24 23 20 18 16 15 16 17 16 17 14 15 19 19 20 19 18 19 22
25 25 25 23 25 29 29 24 24 26 28 28 26 21 18 15 14 14 16 16 18 20 22 24 24 25 23 22 19 17 19 17 19 24 26 20 22 23 21 20 21 22 25
28 29 28 27 24 29 30 27 25 29 30 30 27 23 20 17 16 18 19 20 20 22 25 26 24 26 24 24 22 21 22 21 24 26 30 27 23 23 21 23 22 25 30
32 32 31 30 24 27 31 29 25 28 32 31 27 24 23 21 22 22 22 22 22 24 27 29 29 28 25 24 23 20 23 23 24 25 27 29 30 26 29 28 27 29 25
34 34 33 31 25 26 32 32 30 30 32 31 29 27 25 23 21 21 22 24 26 27 28 27 28 30 27 24 22 21 23 24 22 22 24 26 29 25 31 28 27 27 29
33 33 32 32 31 30 33 35 34 33 33 33 31 29 27 25 23 24 25 28 30 29 27 22 29 32 28 25 22 22 23 22 25 24 27 24 26 19 23 28 27 28 29
36 33 32 33 36 35 35 40 38 37 36 35 34 33 30 27 26 27 28 30 32 29 25 28 33 34 32 26 23 23 25 24 21 25 27 24 24 22 28 24 27 31 32
38 34 32 30 34 38 37 40 42 42 40 39 37 35 32 30 30 29 30 32 32 26 28 31 35 34 33 28 24 25 25 25 26 27 27 24 24 23 26 29 29 33 35
39 35 34 30 32 36 40 39 44 44 43 41 40 38 36 33 30 30 32 33 28 28 30 35 32 32 30 32 26 25 24 23 24 26 23 23 24 26 29 31 33 38 41
36 33 33 34 34 36 35 42 42 45 44 43 41 38 37 35 32 33 31 31 28 28 33 31 30 29 30 27 24 23 27 23 25 27 25 24 26 30 31 34 38 41 39
34 33 37 32 32 38 37 38 43 45 45 44 43 42 40 36 32 27 25 27 33 32 33 30 28 27 27 24 22 21 21 26 25 24 22 24 27 30 34 37 37 36 33
38 39 34 34 32 31 36 41 41 41 48 50 48 42 36 34 31 24 21 27 36 33 32 30 28 26 24 23 21 18 22 25 24 21 22 26 28 32 35 34 31 30 30
44 43 39 41 43 38 37 38 44 46 44 42 44 41 41 36 31 26 19 37 39 36 33 30 30 25 22 19 19 19 21 22 22 24 23 26 29 30 28 26 25 26 27
47 48 53 52 44 44 44 39 41 47 48 48 40 40 40 37 33 29 31 37 37 34 30 29 25 21 18 19 20 19 20 22 23 22 24 27 26 23 24 26 26 26 26
53 53 54 53 50 48 48 46 45 52 48 43 40 42 41 36 31 27 30 33 32 31 28 23 21 19 19 19 18 17 19 22 21 23 23 23 24 25 26 28 28 28 29
55 56 56 53 54 51 50 52 46 48 43 43 42 40 31 26 21 30 31 28 28 25 21 19 19 18 18 17 16 16 18 20 21 22 22 23 23 25 26 26 27 28 29
57 54 64 63 57 63 53 50 47 41 48 47 43 31 10 14 19 26 25 21 20 20 17 18 18 17 17 15 15 15 18 21 20 20 21 21 22 24 25 25 26 26 25
56 63 55 38 46 57 57 42 38 40 29 31 31 27 28 16 22 19 19 20 20 20 18 16 15 15 15 15 15 17 19 18 19 20 20 21 20 21 23 24 24 23 23
37 30 88 45 38 54 43 37 49 59 44 26 24 25 22 26 26 21 19 22 17 14 15 15 15 16 15 16 16 16 16 17 19 19 19 19 19 20 22 21 20 22 21
17 12 11 31 14 13 18 15 19 23 25 24 25 25 25 21 16 17 14 15 14 15 15 16 15 14 15 16 15 15 15 16 17 17 17 18 19 21 20 19 19 19 21
10 12 12 13 17 16 16 12 11 15 22 23 23 22 20 17 14 13 15 15 14 13 13 12 12 14 15 15 14 15 15 16 16 15 16 18 20 20 19 18 18 19 21
7 7 9 9 9 12 15 16 17 19 20 19 19 17 15 15 14 13 12 10 10 10 10 12 14 14 15 15 14 15 16 18 16 14 17 19 20 19 18 17 17 18 20
4 4 3 4 8 12 12 12 14 13 11 11 13 17 13 12 15 13 11 8 9 10 11 15 14 12 13 15 15 16 17 18 15 14 16 18 18 17 16 16 15 17 18
6 8 8 7 10 9 7 11 14 12 10 11 10 11 13 9 9 12 12 15 15 16 15 15 14 12 11 12 17 18 17 16 13 14 15 16 17 16 14 15 14 15 17
25 17 13 9 14 11 5 8 10 15 13 11 15 13 14 15 14 14 15 14 17 17 17 14 12 12 15 15 17 18 16 14 13 14 15 15 16 15 13 13 13 14 16
14 19 19 20 17 17 18 19 17 21 20 15 24 18 12 13 15 19 19 20 18 17 16 14 14 14 14 14 16 16 15 14 13 15 15 15 14 14 13 12 12 13 15

GFSGL_700_spd_030.txt.gz
Wind_Speed
23 24 24 23 23 25 27 26 23 23 25 28 30 29 26 23 20 17 14 12 10 11 12 13 14 15 15 14 13 14 15 14 12 13 15 18 19 22 22 22 24 23 22
24 23 26 24 24 26 28 29 26 26 27 30 31 30 28 24 22 19 17 15 14 14 15 17 18 18 17 16 16 16 16 16 14 14 16 17 21 23 23 26 25 24 25
26 25 27 29 28 27 27 31 29 28 28 33 34 32 29 25 22 20 19 17 16 17 19 20 21 23 20 18 18 18 18 17 16 16 15 17 18 21 25 25 27 27 29
30 30 31 33 31 28 25 31 32 30 30 33 35 35 31 27 24 22 20 18 19 20 21 22 25 25 23 21 22 21 20 19 19 19 16 15 18 22 25 29 25 29 30
29 32 36 36 31 30 27 29 34 34 30 33 37 37 33 30 27 23 20 21 22 23 24 24 26 25 23 27 27 24 23 21 22 22 20 19 19 22 24 25 24 24 27
29 33 35 37 33 34 29 30 36 36 34 34 39 39 37 33 30 26 25 26 26 26 26 28 27 25 25 28 30 26 25 24 24 25 25 23 23 23 22 24 23 27 23
35 32 35 38 37 38 34 33 34 38 38 36 39 40 38 34 32 29 28 30 29 29 30 29 29 26 28 31 30 27 25 25 25 26 26 25 24 25 22 22 26 26 26
37 36 36 38 36 39 39 37 35 39 41 41 41 41 40 39 36 32 31 33 33 31 32 30 31 30 31 33 31 29 25 25 26 26 27 24 24 22 23 24 26 28 28
43 39 37 36 38 40 41 38 37 38 42 43 44 44 42 41 37 35 36 36 38 33 33 32 32 34 34 33 33 28 26 25 24 25 29 27 24 24 26 26 28 28 31
43 34 38 37 38 39 40 40 42 41 42 45 48 46 44 43 40 40 39 42 42 34 34 32 32 32 32 31 30 28 27 23 25 25 28 24 26 24 26 30 31 32 34
33 34 38 39 37 37 42 39 37 43 46 44 47 49 48 45 45 44 45 47 39 34 32 27 25 41 31 30 29 27 24 25 24 21 25 24 25 26 29 29 32 32 31
31 34 34 37 38 40 37 39 39 43 42 48 50 49 48 46 48 48 49 46 40 33 25 25 26 33 37 33 30 25 25 24 20 22 22 23 23 29 27 30 31 29 28
32 29 31 37 40 40 40 34 31 34 44 46 47 48 53 52 53 51 49 46 38 31 24 28 31 36 38 34 30 25 24 21 20 20 22 23 25 25 27 27 26 26 26
36 36 36 38 45 49 48 41 43 50 51 50 47 51 54 51 53 55 53 47 39 29 25 26 28 35 36 34 26 24 23 19 19 18 21 24 25 26 26 25 25 25 25
31 38 42 44 46 49 48 44 53 56 54 55 48 57 49 51 44 46 48 51 45 22 24 23 28 36 33 28 24 22 20 17 18 20 22 23 25 26 26 25 25 24 25
40 43 45 47 49 52 53 57 57 53 61 54 48 52 46 45 41 35 32 8 22 24 24 20 29 34 29 27 21 18 16 17 20 21 23 22 23 24 24 23 24 23 24
45 50 55 58 58 59 62 62 61 64 61 59 53 51 50 48 41 32 56 42 19 24 21 24 31 27 26 21 17 15 17 20 23 22 22 21 21 22 23 23 23 22 23
37 41 45 50 56 61 60 54 54 54 45 49 51 50 62 51 33 15 10 23 25 28 27 30 25 25 21 16 17 17 20 22 22 21 22 20 21 22 22 21 19 18 19
23 23 25 32 35 41 57 57 47 37 37 36 39 40 35 32 45 41 38 29 28 28 26 24 23 22 18 17 17 20 22 21 20 22 22 21 22 21 19 16 15 16 16
13 12 13 16 27 26 37 36 33 41 40 33 20 24 41 42 34 24 26 30 28 25 23 22 20 19 19 19 20 21 20 19 21 22 21 20 20 17 15 13 13 14 16
3 4 4 6 6 14 18 5 19 42 20 30 28 17 29 26 21 18 22 24 26 22 20 19 20 20 20 20 21 21 19 20 21 20 17 18 17 15 13 11 12 13 15
7 8 10 11 11 3 4 7 5 13 21 21 19 24 26 23 21 22 22 23 21 19 18 18 17 18 19 21 21 20 22 21 19 16 16 17 16 13 10 11 12 13 14
3 4 7 7 7 7 7 10 12 13 15 19 21 21 19 18 20 20 20 20 19 16 15 17 18 18 18 20 22 22 22 20 17 15 16 16 14 11 10 11 13 13 14
3 2 5 1 4 6 5 6 11 14 13 11 12 14 15 18 20 21 20 17 14 13 13 14 15 18 19 21 23 22 19 18 15 14 15 15 14 11 10 11 13 13 14
16 16 16 9 10 7 8 12 16 19 20 19 19 17 15 18 21 18 13 13 15 14 14 14 14 16 17 18 19 16 16 17 14 14 15 15 12 10 9 11 13 14 15
13 11 12 15 17 18 11 6 8 9 16 22 17 22 26 25 25 24 22 13 16 16 15 13 13 11 12 21 20 15 13 11 13 15 16 14 12 10 10 12 12 14 15

GFSGL_700_spd_033.txt.gz
Wind_Speed
28 26 21 21 23 24 25 24 25 22 23 25 28 32 33 30 27 23 21 18 14 12 9 10 10 11 11 10 10 10 11 13 13 15 15 15 16 14 18 21 21 22 23
25 25 26 25 24 27 27 25 26 26 25 27 29 34 36 33 30 26 23 20 16 14 14 14 14 15 15 13 12 11 11 13 14 15 15 17 18 18 19 21 21 21 22
29 29 28 29 29 30 29 26 26 29 28 30 30 35 37 36 32 28 25 22 19 18 18 17 18 19 19 17 16 14 14 15 16 17 18 18 19 19 18 20 23 23 26
33 32 32 31 30 29 27 28 27 29 31 32 31 34 38 38 35 31 29 26 24 22 22 21 21 22 23 22 19 18 20 19 19 20 19 20 20 21 21 23 22 24 26
36 36 34 31 31 32 32 30 28 29 31 33 33 36 39 41 38 35 31 27 27 26 25 25 25 25 26 26 23 21 24 23 22 23 22 22 23 24 24 25 24 24 22
36 34 32 35 35 35 36 33 31 31 30 35 36 36 42 43 41 37 33 31 29 29 29 29 29 30 30 27 26 25 25 24 24 24 24 25 25 24 24 25 23 18 19
38 31 33 35 34 34 35 37 33 33 32 35 38 37 42 45 45 41 37 34 33 33 32 32 34 34 33 30 30 29 28 26 26 26 26 26 25 25 24 25 23 21 22
37 36 31 29 33 35 35 35 37 35 36 36 39 39 40 46 47 45 41 38 36 37 36 37 38 37 36 34 33 34 29 29 29 27 27 24 25 24 25 25 24 23 23
38 39 38 36 28 36 36 35 37 40 39 37 40 43 42 44 48 47 46 44 43 42 41 41 40 38 36 36 34 35 29 28 27 28 26 24 24 25 25 25 25 23 26
27 32 29 36 44 35 36 37 37 36 36 41 40 43 44 45 47 48 49 49 50 47 46 46 43 39 36 37 38 30 25 25 26 28 24 23 23 22 25 25 24 26 28
30 28 31 35 38 41 38 39 38 36 32 36 39 44 46 48 50 49 51 51 53 53 50 49 45 40 37 36 33 27 25 25 26 26 22 21 21 21 23 23 25 27 28
37 35 32 32 33 36 40 39 39 32 36 43 41 39 45 48 49 52 55 55 57 57 53 52 47 41 37 35 31 26 25 25 25 24 21 21 22 21 20 24 26 26 27
35 34 36 33 32 35 38 37 39 43 43 43 44 46 43 38 43 50 52 51 54 57 57 54 45 43 39 30 30 27 24 22 23 23 21 21 22 21 21 25 25 26 26
28 28 32 33 32 35 29 35 33 37 41 45 45 46 45 42 47 50 51 52 52 55 59 55 43 40 37 36 32 29 24 20 23 22 22 22 22 20 22 24 24 25 26
29 29 31 34 36 39 37 40 42 37 41 49 51 52 51 52 46 56 51 56 57 57 53 34 50 35 29 25 33 27 21 22 24 22 24 23 20 20 22 21 23 25 25
26 27 28 30 33 37 40 43 47 47 46 48 46 50 56 60 54 58 62 54 55 50 53 47 41 40 32 33 30 25 22 24 23 24 24 22 20 21 20 21 22 23 25
31 31 35 38 43 48 52 55 57 56 58 62 62 59 59 61 56 64 63 54 50 48 31 38 13 33 33 29 25 22 23 22 25 26 23 20 20 19 19 20 21 22 24
27 31 32 35 42 47 50 55 60 62 65 66 66 62 51 46 46 51 51 51 45 46 37 34 22 28 28 26 24 23 23 26 26 23 21 20 19 19 20 18 19 22 22
31 34 35 34 36 37 39 42 44 49 55 51 40 42 45 47 41 43 37 29 18 15 16 21 25 27 27 26 26 24 26 26 24 23 21 19 18 20 19 17 19 21 20
25 26 26 24 22 22 26 29 30 25 33 33 37 30 39 46 37 25 21 14 16 20 25 29 29 27 28 26 25 26 26 26 24 21 20 19 19 20 19 18 20 20 18
15 16 15 11 14 19 14 12 7 8 25 23 40 32 20 10 9 22 25 25 27 25 26 26 26 28 28 27 27 27 27 25 22 20 20 20 20 20 19 20 20 19 17
8 8 5 5 7 3 5 4 3 3 7 6 8 12 5 11 9 10 15 19 23 22 22 24 27 27 25 25 26 27 25 22 22 23 22 21 22 20 20 19 19 18 18
4 3 2 2 2 4 5 5 3 4 5 5 6 8 13 13 12 15 19 20 21 23 25 28 26 25 25 24 23 24 24 26 26 24 23 22 21 21 20 18 18 18 17
2 3 3 2 2 1 3 1 1 5 2 6 10 13 14 15 15 14 15 18 20 23 23 22 21 21 20 21 24 25 24 25 24 22 23 22 22 21 18 17 17 19 16
9 12 12 14 15 15 15 15 12 11 15 15 15 11 11 15 16 18 19 19 19 18 16 16 15 14 15 17 21 24 24 23 21 21 22 22 22 20 16 17 19 19 17
12 12 15 16 19 17 16 16 17 18 23 23 23 19 20 19 20 22 22 21 18 15 14 13 12 13 14 17 17 14 17 19 20 21 22 22 21 18 16 18 19 19 17

GFSGL_700_spd_036.txt.gz
Wind_Speed
28 24 21 22 33 32 31 29 27 24 21 23 24 26 32 34 31 30 27 24 21 18 14 11 10 10 10 9 10 10 9 9 11 15 15 18 18 19 22 19 24 23 22
28 29 27 25 21 25 31 30 30 29 25 24 25 26 33 36 34 33 30 27 23 21 18 15 14 15 14 14 13 12 13 12 13 15 20 19 19 19 20 19 20 22 23
30 29 29 29 29 26 22 22 25 27 27 27 28 29 32 38 38 36 33 30 27 24 23 20 18 19 18 18 17 16 16 16 15 18 19 20 22 21 21 20 21 21 22
34 34 32 31 29 27 26 25 26 27 28 28 29 31 31 37 41 39 37 34 31 28 26 25 23 23 22 23 21 19 19 19 19 19 20 22 22 24 22 22 24 24 25
37 37 36 33 32 31 32 31 30 32 31 30 29 33 33 35 43 43 40 37 35 32 30 29 28 27 25 27 27 25 22 21 22 21 21 23 24 25 26 22 21 23 26
41 39 38 37 36 35 34 34 35 33 32 31 30 32 35 35 39 43 43 41 39 37 34 32 32 31 29 29 31 31 28 26 25 24 24 25 24 25 27 24 23 21 24
41 41 40 39 37 36 36 36 36 39 34 33 31 30 34 36 37 43 45 45 44 42 39 38 37 36 34 32 33 35 35 30 29 27 27 27 26 25 25 25 23 24 23
37 43 41 41 39 38 39 38 40 40 41 37 33 33 32 36 37 40 46 48 49 47 45 42 43 41 40 37 35 38 38 35 32 29 29 29 25 27 25 26 24 24 25
33 43 45 43 39 39 36 30 38 41 42 41 39 37 35 35 37 39 45 51 53 52 51 48 47 45 44 41 40 40 40 36 33 27 30 29 27 25 23 25 24 24 24
35 39 41 42 39 36 34 35 37 41 43 44 42 37 36 36 37 40 42 49 54 56 55 53 51 50 49 46 43 43 42 39 30 26 31 29 27 25 24 24 24 24 26
34 38 39 37 36 32 32 34 39 35 38 45 45 39 34 35 38 40 46 48 52 56 58 58 57 55 54 51 46 46 42 37 28 29 32 29 26 25 24 26 24 23 25
32 36 35 33 34 35 36 37 37 38 44 42 42 38 31 38 38 42 46 50 51 53 56 58 61 61 55 50 47 47 43 35 33 34 34 31 25 26 24 26 23 23 26
34 35 38 38 36 33 32 35 40 42 44 48 46 50 43 44 45 49 45 47 49 55 57 57 63 61 56 51 50 49 46 32 28 27 31 30 29 27 25 24 23 25 27
33 36 36 35 35 34 33 34 34 35 36 42 49 54 41 41 54 54 52 46 48 56 58 58 61 64 55 56 53 44 45 52 29 31 33 30 30 27 23 25 25 25 26
23 26 27 27 28 30 30 30 28 28 28 28 30 42 47 51 53 61 61 55 54 56 60 65 58 53 57 56 38 40 56 43 51 37 36 27 26 24 25 25 26 27 23
27 28 29 30 31 32 32 32 32 32 34 35 38 42 44 48 50 59 59 54 56 59 61 56 53 56 50 43 30 54 41 46 40 35 31 27 29 27 26 26 26 25 22
27 26 27 28 29 30 32 34 38 41 46 52 54 55 53 52 50 55 62 64 64 67 64 57 50 48 45 49 59 46 47 42 35 32 30 31 28 26 25 26 26 23 20
28 27 27 27 29 32 36 39 43 47 50 53 55 57 59 59 60 51 45 53 61 65 69 57 41 39 49 55 38 29 30 32 32 32 32 28 26 25 25 25 26 20 21
25 25 25 28 32 36 41 45 47 48 49 49 50 52 53 50 51 48 43 44 57 59 51 49 48 41 35 27 26 31 29 27 30 31 28 27 25 24 26 25 23 21 19
25 28 29 32 34 35 38 39 39 38 39 42 41 39 34 32 22 28 37 42 38 25 32 27 28 31 32 31 30 31 31 31 30 29 27 26 24 25 26 24 22 20 19
22 24 26 28 30 31 29 28 28 29 19 13 11 13 11 17 16 19 26 25 18 25 25 28 28 28 27 24 27 28 28 26 27 26 26 25 26 25 24 24 19 20 21
21 24 23 23 20 17 16 15 13 9 5 8 14 22 25 20 14 15 15 15 17 17 20 23 26 24 22 24 24 24 24 24 23 24 26 26 26 24 25 22 20 22 21
18 18 14 11 8 6 3 3 2 2 2 1 2 5 6 6 10 8 3 12 21 20 24 20 20 18 19 19 20 21 22 23 23 25 25 26 25 24 24 22 22 21 21
12 11 9 6 4 3 3 4 5 9 9 4 4 3 7 10 11 12 8 8 9 10 13 17 18 17 16 17 18 20 22 24 24 24 24 25 25 26 26 24 22 21 21
12 11 13 11 11 14 18 18 15 14 13 8 8 9 10 9 8 8 10 12 13 12 14 16 17 17 17 17 19 22 23 21 23 24 24 26 26 27 26 25 23 22 20
15 18 17 17 18 18 21 19 16 16 15 14 14 13 12 15 15 14 14 16 17 17 18 18 18 16 14 16 19 19 20 22 24 24 23 24 26 26 26 24 23 22 21

GFSGL_700_spd_039.txt.gz
Wind_Speed
22 20 23 26 28 30 29 27 27 25 24 24 22 22 22 25 29 29 28 27 24 22 19 16 13 14 11 9 8 9 9 9 8 9 14 14 13 15 19 17 21 19 20
26 23 22 21 22 24 31 31 30 28 27 24 27 23 25 24 29 32 31 30 27 25 23 20 17 17 15 14 12 11 14 12 13 13 15 19 16 15 16 18 19 19 22
30 27 24 25 24 24 22 24 30 33 32 29 29 27 26 25 27 32 33 33 31 28 27 25 23 22 18 17 16 17 16 17 16 17 18 19 21 22 19 18 19 18 20
34 32 29 26 25 24 24 22 20 23 25 26 27 29 27 27 27 28 34 34 35 32 31 30 28 26 23 21 22 20 23 20 20 20 20 21 24 24 24 22 20 19 19
32 33 32 29 28 27 26 24 25 25 24 24 24 24 26 29 30 29 31 36 37 36 35 35 33 31 27 26 26 26 25 25 23 25 23 23 24 24 25 26 26 22 24
29 35 35 33 34 32 30 28 28 29 29 28 29 28 27 27 29 32 31 37 40 40 40 39 37 36 33 31 30 30 30 30 27 25 26 28 26 26 25 26 27 20 28
22 28 37 38 37 36 34 33 32 31 34 34 34 35 32 27 27 29 33 34 40 44 44 43 42 42 40 37 36 34 34 34 33 29 25 26 28 29 30 26 26 26 26
25 24 28 42 42 42 40 39 36 36 36 36 38 38 37 33 28 28 30 35 37 44 46 47 48 48 48 43 42 40 39 39 37 35 31 25 24 31 32 26 28 29 28
29 28 28 34 45 45 44 41 39 37 37 39 42 43 40 37 32 30 31 36 40 42 47 50 52 53 52 50 47 47 45 45 42 38 36 31 25 24 31 28 29 28 25
36 33 32 31 40 46 45 43 41 41 41 44 44 43 40 35 32 31 34 35 40 43 46 49 53 55 55 55 55 53 51 49 46 42 41 32 27 22 25 34 31 33 26
34 36 36 35 33 39 46 45 43 43 43 43 43 44 44 41 36 33 33 40 33 45 48 49 49 52 56 58 59 58 54 51 48 46 42 33 30 35 32 41 35 32 28
35 36 33 33 33 34 37 41 42 43 43 40 45 42 39 39 40 40 37 39 39 45 49 49 54 53 53 57 59 56 53 51 50 51 47 41 37 26 40 43 33 32 27
33 34 34 32 30 36 38 38 37 36 33 35 38 37 40 42 45 46 46 42 40 44 43 51 56 59 59 62 60 56 55 51 49 50 45 38 36 33 40 35 36 28 27
28 31 30 32 30 36 37 36 35 33 32 31 34 33 35 38 42 48 50 46 44 48 53 55 61 66 66 67 66 64 54 49 53 56 48 42 57 42 42 35 34 28 28
23 28 30 30 29 32 31 32 33 31 30 31 31 30 31 34 40 46 45 53 53 51 53 59 56 69 72 66 68 65 56 56 62 47 34 48 47 40 37 35 33 29 27
27 24 23 24 26 27 26 27 27 27 27 27 29 31 32 35 35 37 49 53 59 62 66 62 57 58 61 70 67 66 63 55 50 49 52 47 33 31 38 33 33 31 27
34 32 30 28 30 30 30 30 30 31 30 32 33 35 38 40 42 44 48 56 60 61 63 62 62 63 66 68 63 59 59 50 41 44 44 35 43 35 26 32 34 30 27
32 28 26 27 30 30 28 28 28 29 32 33 35 39 45 50 53 53 52 53 58 59 59 62 62 59 54 56 59 52 48 43 39 40 32 27 25 26 33 34 32 30 27
34 30 29 29 29 28 27 27 29 32 35 38 43 50 52 54 53 53 54 58 58 52 51 55 55 53 50 59 67 61 37 32 27 23 25 29 28 34 35 32 30 25 25
30 27 26 25 24 26 27 30 32 35 37 41 46 48 47 49 49 49 52 52 47 45 45 48 40 30 33 45 36 23 27 27 24 23 25 30 31 35 31 29 24 25 25
28 27 25 25 24 25 27 31 34 38 39 39 38 40 39 38 31 27 28 26 26 22 25 30 36 37 30 27 35 28 22 25 25 29 22 27 28 28 27 25 25 24 25
21 21 21 22 24 25 26 27 30 33 31 27 22 24 21 19 17 15 16 20 26 25 22 19 18 17 15 15 17 19 18 16 16 21 24 23 26 26 23 24 25 23 23
15 17 18 17 14 14 13 14 18 17 12 11 11 11 12 14 14 12 11 11 9 11 15 17 14 16 14 12 12 15 19 21 20 21 23 25 25 24 24 24 24 24 23
8 7 12 11 11 10 11 10 10 10 12 11 11 11 12 12 10 8 8 7 3 3 2 12 10 10 5 8 12 18 20 22 21 21 22 23 26 25 22 23 24 23 23
12 10 9 10 12 14 13 14 14 15 16 17 14 13 14 14 12 11 10 7 4 4 4 4 6 7 10 13 13 17 20 18 18 21 20 23 24 25 23 24 24 24 24
18 17 20 19 18 18 19 20 19 20 18 17 16 18 17 16 15 14 13 12 13 13 12 12 11 11 13 17 20 17 17 17 17 20 21 22 25 25 26 24 25 25 26

GFSGL_700_spd_042.txt.gz
Wind_Speed
23 23 25 26 25 25 24 24 22 20 18 20 20 15 16 17 17 19 23 25 24 21 19 16 14 14 12 10 8 8 7 8 8 10 15 15 12 15 18 19 20 19 17
20 20 20 21 24 26 27 25 24 23 23 20 23 20 19 19 19 18 21 25 25 24 22 22 18 18 17 16 13 10 10 11 11 11 16 18 16 14 16 18 19 22 22
26 24 23 23 22 21 21 23 23 25 26 25 24 26 21 22 23 21 21 26 29 26 27 27 25 22 22 20 19 17 15 15 14 15 15 19 22 19 17 17 18 19 20
29 28 26 24 24 22 20 19 18 16 21 24 25 24 26 23 25 24 24 24 28 32 30 31 30 29 25 23 23 21 23 22 19 19 18 19 22 23 21 19 20 22 21
28 29 28 26 24 25 23 20 20 21 19 19 21 23 21 22 23 24 24 25 25 29 33 32 33 31 30 29 28 27 26 28 27 24 23 23 21 23 23 22 24 24 25
18 22 27 30 29 26 26 24 24 24 23 23 23 22 20 20 18 19 22 25 26 26 31 34 34 35 35 34 34 33 32 32 32 31 30 28 24 24 23 21 22 22 28
22 20 20 24 30 30 29 30 29 27 27 26 26 26 24 21 20 18 20 23 26 29 29 32 38 38 38 38 38 38 37 38 37 35 36 34 31 27 26 26 23 24 25
25 23 20 20 23 32 34 33 34 32 31 29 28 26 27 26 24 23 23 25 27 29 30 31 35 40 43 42 42 44 42 43 44 42 40 37 36 33 29 26 25 25 23
29 27 26 25 22 22 27 37 37 36 35 34 32 32 30 28 28 30 34 34 33 33 32 33 32 36 39 44 46 45 47 48 48 49 45 42 40 36 34 33 28 30 23
37 33 31 29 29 28 26 29 39 41 37 37 37 35 34 34 35 36 39 42 41 37 38 35 36 35 38 41 45 47 50 51 51 51 51 48 44 40 38 35 32 32 24
37 34 34 36 35 34 32 31 34 41 44 41 39 39 38 38 39 41 43 46 43 46 45 42 42 45 46 44 46 48 46 48 51 49 49 48 47 44 40 35 34 31 28
31 33 33 34 35 37 36 36 33 37 44 47 44 43 42 43 41 42 43 46 46 50 51 49 48 48 48 49 50 51 51 56 54 52 51 50 50 48 45 43 40 42 35
35 35 34 34 34 34 34 36 36 34 36 41 47 44 42 40 39 37 41 44 45 50 52 50 54 55 54 52 54 54 55 57 61 61 57 44 47 46 48 46 58 50 40
35 34 32 30 31 31 33 32 34 36 34 36 39 34 33 35 34 34 35 37 43 47 50 53 54 58 59 60 61 61 64 66 65 66 62 62 52 48 44 39 55 57 34
37 33 33 32 30 29 29 32 31 35 35 35 34 33 34 35 35 35 35 36 35 37 42 49 50 58 62 61 56 54 56 65 74 68 64 64 55 52 40 49 47 45 25
39 34 31 28 29 30 29 29 30 32 34 36 37 36 35 32 31 31 32 34 36 38 38 42 48 50 57 61 61 63 59 59 59 69 69 69 62 51 39 40 45 37 29
35 33 31 27 25 24 24 26 29 30 29 29 31 30 29 29 29 31 34 36 38 43 49 50 53 57 61 64 66 61 58 55 59 61 76 77 75 54 34 33 32 30 29
31 33 35 34 35 35 30 29 32 30 28 27 25 25 26 29 31 35 38 40 43 44 49 53 57 60 64 65 64 63 53 54 57 66 79 83 74 35 33 25 24 27 25
29 32 34 36 34 31 28 25 25 24 23 23 24 26 30 33 36 39 43 47 49 49 49 53 55 57 54 54 50 48 51 43 45 45 33 34 21 21 28 33 25 23 27
27 29 33 32 32 31 31 28 26 25 25 26 26 28 30 34 40 44 47 47 45 46 46 43 42 42 43 38 41 36 28 33 19 31 20 16 17 27 31 26 22 28 25
31 31 33 33 34 34 32 29 27 26 25 26 27 28 33 38 40 42 40 40 38 36 36 33 31 30 31 31 32 27 26 32 33 27 23 19 22 23 18 16 21 24 25
30 31 31 33 33 32 30 30 28 27 23 24 26 26 30 32 35 34 29 26 24 22 22 23 24 19 16 18 15 14 11 6 13 18 19 12 12 14 15 19 25 27 25
25 24 28 29 22 22 22 19 20 22 22 23 22 22 21 21 23 23 19 19 18 17 17 15 8 8 5 5 1 3 7 6 8 9 8 8 7 16 19 25 26 27 26
33 31 28 21 19 21 19 20 21 19 19 19 18 16 15 15 16 16 15 16 14 12 8 8 6 3 4 6 2 4 6 6 7 9 10 13 16 18 19 19 22 24 23
18 16 12 13 14 12 10 12 15 15 14 16 17 18 17 19 17 17 15 12 10 8 6 5 4 4 5 5 9 9 10 10 12 14 16 17 18 20 20 21 22 23 25
14 13 16 17 16 14 13 13 16 18 20 18 18 18 20 21 20 17 16 15 16 14 13 12 13 13 12 13 13 13 13 11 12 13 14 17 20 23 25 23 24 24 25

GFSGL_700_spd_045.txt.gz
Wind_Speed
27 27 27 26 23 22 22 20 19 17 15 14 11 10 10 11 11 12 11 17 20 19 18 16 13 12 10 8 7 6 6 7 8 11 11 9 9 10 12 14 16 18 17
28 28 27 27 26 25 24 21 19 18 16 16 15 12 12 13 15 15 14 14 20 21 21 22 20 19 16 14 11 10 11 11 9 11 13 14 14 14 14 14 17 18 18
22 23 25 26 27 26 23 22 21 20 20 19 21 20 16 13 15 16 15 15 16 21 23 24 24 23 22 21 18 16 14 15 16 14 15 17 18 17 16 15 17 18 17
24 23 23 22 20 19 18 19 18 19 21 22 21 19 17 15 16 19 18 17 18 19 22 26 26 26 24 24 25 22 21 20 20 20 20 20 21 20 21 18 17 19 19
28 26 23 22 22 21 21 20 17 16 16 17 18 19 17 17 16 17 19 17 17 19 20 22 25 28 28 27 29 28 27 28 27 27 26 26 25 25 24 23 20 20 19
23 23 27 28 26 24 23 23 22 20 19 18 18 18 17 15 13 13 14 17 18 20 22 22 23 27 30 31 30 31 31 33 34 35 32 32 30 29 29 27 25 22 21
16 18 20 24 28 28 26 27 26 25 24 23 21 21 20 17 14 14 14 16 18 19 20 24 26 27 28 31 33 35 37 38 38 39 40 38 36 33 34 36 31 28 24
20 19 19 17 19 25 28 29 29 29 29 27 26 23 23 20 20 20 20 22 23 23 23 23 26 29 32 32 34 37 40 41 42 45 44 43 41 39 40 40 36 32 29
28 24 23 22 19 17 18 22 31 33 33 32 30 29 28 25 25 27 29 30 31 30 31 31 31 31 31 34 38 38 39 42 41 45 44 45 44 44 45 45 43 37 35
36 32 29 25 24 23 21 20 18 22 33 37 35 33 32 30 29 31 34 37 38 36 38 36 38 38 38 37 38 40 43 39 40 43 41 43 43 43 46 47 44 40 37
26 27 31 31 30 29 27 28 28 27 25 28 36 38 35 33 35 35 36 39 38 41 43 41 40 42 45 46 45 45 44 43 43 46 46 46 48 48 47 49 45 44 41
33 35 34 34 34 34 34 35 35 35 34 31 31 35 40 38 38 38 40 40 41 43 43 43 43 44 46 49 49 49 49 50 52 53 54 53 53 53 51 48 44 44 47
36 37 32 30 32 32 32 33 34 35 36 35 35 35 38 40 40 41 41 41 40 45 44 42 44 44 44 48 50 51 54 57 58 62 61 59 55 57 52 46 47 49 48
43 42 42 36 32 31 33 34 35 35 34 34 35 36 37 37 40 41 40 39 41 42 41 40 38 36 34 35 39 42 50 55 60 63 63 61 59 58 56 54 55 53 53
42 42 42 40 34 33 34 36 35 35 35 34 33 34 35 34 35 35 37 36 36 34 30 30 31 31 34 37 41 45 47 49 50 52 51 55 61 64 64 61 59 52 61
28 27 34 38 37 35 34 36 37 36 34 34 33 33 34 33 32 32 32 27 31 33 31 30 32 36 42 46 49 51 52 51 46 49 52 54 58 63 66 71 63 58 61
29 27 25 32 38 37 34 33 34 34 32 29 28 29 31 31 30 33 30 27 27 29 33 35 38 42 46 50 53 54 56 55 54 54 57 60 61 63 69 86 82 56 38
26 29 29 30 35 35 35 32 28 27 27 28 29 28 26 24 24 23 23 24 27 32 37 40 43 45 47 49 52 56 60 64 57 48 50 54 52 50 55 35 47 28 23
25 29 28 28 28 30 30 33 32 31 26 25 24 25 24 22 22 21 20 23 27 32 37 41 46 46 44 43 44 45 41 38 37 35 41 41 40 33 20 20 18 15 16
26 27 27 26 25 30 31 34 33 33 30 30 28 27 25 25 23 24 26 27 30 33 36 39 42 40 37 34 32 31 29 26 28 30 28 31 23 17 24 27 15 23 25
31 28 26 28 31 35 37 36 36 36 37 35 31 31 29 25 28 28 27 27 30 32 31 33 34 35 32 28 25 24 23 18 13 16 20 10 17 9 8 9 19 16 18
30 29 30 35 38 39 41 40 38 39 40 38 33 30 28 28 27 25 24 26 27 28 26 26 29 28 23 17 15 15 13 12 7 5 9 1 7 5 10 15 16 14 17
28 27 36 38 39 38 37 36 37 36 35 34 31 27 26 25 22 22 22 22 23 23 22 23 22 19 12 8 6 5 5 4 3 4 2 4 7 9 9 9 10 13 15
28 33 31 35 38 37 36 34 32 31 26 21 19 20 21 20 19 20 21 21 21 21 20 16 12 12 10 8 5 6 6 4 3 4 5 6 8 11 10 7 8 9 10
41 38 39 37 33 33 25 21 20 20 19 19 19 20 21 20 20 19 19 21 23 21 17 19 18 15 11 10 10 11 11 11 10 10 11 9 6 7 8 10 13 13 16
44 40 37 25 22 22 22 21 21 21 20 18 18 18 18 20 22 24 23 23 22 19 20 19 18 18 19 18 17 17 15 11 11 9 9 11 14 13 15 16 17 20 22

GFSGL_700_spd_048.txt.gz
Wind_Speed
31 29 28 28 27 26 26 24 22 20 18 16 14 13 12 13 12 9 8 14 20 19 17 16 14 12 9 8 7 6 5 6 5 6 5 6 7 9 11 12 13 13 13
30 31 31 28 27 27 25 24 21 21 20 17 16 15 13 11 10 8 7 9 15 21 20 20 18 17 15 14 13 11 9 10 11 10 10 11 10 10 10 12 15 17 15
31 31 30 30 29 26 25 24 23 21 21 21 18 14 11 10 11 11 10 10 11 15 22 23 22 23 21 19 18 17 16 16 16 16 16 17 16 15 15 14 14 16 17
27 28 28 28 27 25 23 23 24 22 21 20 18 18 16 15 15 15 15 14 13 14 16 22 24 26 26 26 26 24 23 23 23 23 22 23 23 21 21 20 20 19 20
22 22 22 22 22 23 23 22 21 21 20 19 18 16 16 16 16 16 16 16 16 16 17 19 23 27 28 27 29 29 30 30 31 31 31 30 29 29 28 26 27 26 25
25 23 20 20 19 18 18 18 19 18 19 18 17 17 16 16 15 14 14 15 16 17 19 20 21 22 27 30 31 31 33 35 37 38 38 37 36 34 34 35 34 34 34
24 24 25 25 24 23 21 21 22 21 21 21 21 20 19 16 14 13 13 15 16 15 16 17 19 21 22 25 27 31 35 38 40 42 44 44 42 40 39 40 41 41 40
20 18 16 19 22 25 27 27 26 26 26 25 25 24 24 23 21 20 18 19 21 19 19 19 20 20 22 22 24 29 31 34 36 39 43 43 46 46 48 45 45 46 44
23 23 17 15 16 20 26 27 28 30 31 30 29 29 29 28 28 28 28 27 26 25 26 27 28 28 29 30 32 34 36 36 38 37 37 39 41 41 41 44 49 51 52
28 25 22 20 21 22 23 23 24 26 30 34 34 34 34 34 34 33 34 35 32 29 30 28 28 31 34 38 41 42 40 40 43 42 44 44 46 46 46 48 48 51 50
33 30 31 30 29 27 25 22 22 22 23 23 24 30 36 38 38 38 38 38 35 37 35 33 34 35 37 39 41 41 40 43 45 47 50 51 52 54 55 55 56 58 57
33 27 27 30 30 30 28 27 27 28 29 28 28 28 28 31 37 41 43 43 41 39 36 36 37 39 41 41 41 41 41 41 43 46 47 47 52 57 58 55 55 60 55
32 30 30 31 33 32 32 32 33 34 34 33 33 33 32 32 33 34 38 42 44 44 40 39 40 41 41 41 37 34 34 34 36 40 42 45 49 53 55 54 54 55 54
34 34 35 37 36 34 31 30 32 34 33 33 34 34 33 35 36 37 36 36 38 41 40 41 40 39 33 29 25 26 30 36 41 45 48 51 52 54 55 57 59 58 58
39 39 38 39 40 40 40 37 36 35 35 35 34 35 36 37 35 36 35 34 34 34 36 33 30 27 27 27 29 32 38 44 49 46 49 51 52 53 55 58 58 60 61
45 47 47 46 44 46 49 48 43 39 37 36 35 35 35 35 34 33 32 31 28 27 25 26 30 27 28 31 35 40 45 49 51 48 48 52 54 57 59 61 58 66 68
35 37 37 36 33 35 37 39 40 40 37 34 35 35 32 31 32 31 29 28 28 32 32 30 26 28 32 34 40 46 49 52 52 52 56 53 53 51 46 46 47 53 58
30 33 34 35 35 30 29 34 37 39 37 33 28 28 30 29 28 28 27 28 28 25 23 25 28 30 32 38 42 47 48 45 45 48 47 41 38 38 40 39 40 33 24
22 29 30 30 32 32 30 28 30 35 34 29 25 24 24 25 27 27 28 27 24 23 24 27 28 32 37 38 41 40 40 40 41 42 40 36 31 28 32 33 18 10 11
22 20 24 27 27 28 28 26 27 27 29 29 29 27 26 25 27 28 27 26 26 28 30 30 31 34 36 35 36 36 34 35 36 33 29 26 19 20 15 15 16 22 19
29 28 25 25 25 28 31 27 28 27 29 31 31 31 30 31 32 34 32 30 30 32 33 32 32 33 33 32 32 31 28 27 26 22 23 23 15 14 9 7 5 5 11
36 38 37 37 32 31 28 33 33 33 35 34 36 38 37 39 38 38 35 33 33 32 31 31 30 29 29 28 28 24 19 14 14 15 13 11 4 6 4 5 5 11 11
42 44 47 46 46 38 35 33 34 35 37 39 42 43 42 40 39 36 32 30 28 29 29 26 26 24 25 24 22 18 14 11 10 11 9 5 5 4 3 7 9 10 11
49 43 39 34 35 34 29 35 37 36 36 36 36 36 36 34 33 32 31 30 30 28 24 23 22 20 20 20 21 19 17 13 12 14 14 13 13 12 12 12 14 16 16
52 51 48 44 34 40 36 26 34 37 34 33 32 33 33 33 32 30 29 27 25 23 23 23 21 20 18 18 20 19 19 18 17 18 19 18 16 15 14 16 16 15 13
36 42 43 47 46 34 39 44 38 34 35 32 30 29 26 24 23 23 22 23 23 23 22 23 24 24 23 23 24 24 23 25 22 22 21 21 18 16 15 14 13 13 14

GFSGL_700_spd_051.txt.gz
Wind_Speed
30 32 33 32 31 29 28 27 25 23 21 20 18 16 16 13 12 13 15 20 20 19 18 16 13 10 8 7 6 5 4 4 4 5 4 6 7 8 10 11 13 13 12
28 31 32 32 32 31 30 28 27 25 24 22 21 19 15 13 11 11 12 14 19 22 21 21 18 17 14 14 12 11 11 11 11 11 12 11 11 12 13 13 15 16 17
29 32 32 33 32 32 30 29 29 26 26 23 23 20 16 15 14 12 12 13 14 18 24 24 22 23 22 21 19 18 18 19 21 20 18 20 20 19 20 20 19 20 21
29 33 32 32 31 30 29 28 27 25 24 24 23 21 20 18 17 16 14 13 13 15 17 22 25 27 27 26 26 25 25 26 27 28 27 26 28 28 27 26 27 27 27
29 30 30 30 29 28 27 27 26 26 23 21 22 21 20 21 20 19 17 16 15 16 18 19 21 25 28 29 30 30 31 31 32 33 34 33 33 34 34 34 36 34 36
18 20 23 25 25 25 24 23 23 24 24 23 22 21 21 20 18 17 17 17 18 19 19 20 21 23 24 27 30 31 33 35 38 38 38 40 38 39 39 42 42 43 45
18 16 16 17 17 18 19 20 20 18 19 20 19 20 20 19 18 17 15 16 17 19 19 19 20 21 22 24 25 27 30 32 34 36 38 40 39 38 40 44 43 46 46
19 20 20 20 20 20 20 20 20 21 21 21 22 23 23 21 19 17 16 18 19 18 18 18 19 18 20 21 21 24 26 28 30 32 37 37 38 39 43 45 46 46 47
16 18 19 17 16 19 22 25 26 27 26 26 25 26 27 26 25 24 25 25 25 25 25 25 26 26 27 30 32 34 35 36 38 40 43 44 47 48 50 52 53 54 55
19 18 19 16 15 15 12 13 17 25 28 30 31 31 32 32 32 32 33 33 33 33 31 30 30 30 32 34 37 38 38 38 42 42 43 45 47 49 51 54 55 56 57
32 28 23 21 22 20 18 17 18 22 24 26 29 31 34 36 36 37 37 39 39 39 38 36 34 35 35 35 36 37 36 36 38 40 40 41 41 42 43 44 44 45 46
35 35 30 28 27 26 24 24 22 23 24 24 25 25 25 26 27 30 33 37 39 42 41 41 41 40 39 38 38 37 38 37 38 37 36 38 40 43 44 46 50 51 50
38 36 35 33 31 30 29 32 27 31 30 27 27 27 27 27 27 30 33 34 36 39 40 41 41 41 40 39 37 36 31 31 31 34 37 40 47 51 51 56 58 57 59
37 36 36 37 36 35 37 35 32 29 29 29 29 28 27 28 29 30 32 35 35 36 37 37 36 37 36 35 32 28 27 30 33 37 43 48 54 56 55 55 56 58 59
33 36 37 38 39 40 39 37 34 33 32 30 28 29 31 30 30 33 35 36 35 35 36 33 29 26 24 23 24 26 28 31 36 41 48 55 58 57 58 57 59 59 60
35 34 35 37 39 39 38 38 38 37 37 36 38 35 33 33 34 35 36 36 35 34 31 27 23 20 20 24 27 26 29 33 38 43 49 54 51 49 52 57 56 58 52
33 35 35 38 46 47 44 43 42 44 45 42 40 38 35 35 36 38 36 35 34 31 26 24 23 24 26 26 27 29 31 37 39 43 49 49 47 49 50 48 47 42 37
27 28 31 37 39 41 42 42 38 35 36 36 35 36 35 36 33 30 30 30 28 27 25 26 26 26 26 28 29 30 33 37 40 44 46 45 45 44 41 37 33 31 29
25 27 27 28 33 35 35 35 36 35 31 32 33 35 35 32 26 25 25 27 27 26 27 28 27 28 30 31 31 32 35 38 40 43 42 40 42 38 35 31 24 21 23
30 28 23 23 27 29 31 32 34 34 34 30 30 31 29 28 26 24 24 25 26 28 29 29 30 32 33 33 33 33 35 38 39 38 38 37 35 32 30 21 22 21 19
31 30 32 29 23 22 21 22 25 28 32 30 32 32 31 29 29 28 28 28 30 31 32 33 34 34 35 36 35 34 35 37 35 35 33 32 27 23 17 14 17 12 8
36 36 37 36 34 33 28 24 22 22 25 27 29 29 30 31 30 32 31 33 35 35 34 34 35 35 37 36 35 34 34 33 32 31 28 25 21 19 13 10 7 8 5
34 35 41 43 40 40 38 35 37 36 30 29 30 32 34 35 35 37 37 37 38 37 35 35 35 35 36 34 33 31 29 29 31 28 24 22 17 16 14 10 11 8 9
45 44 46 49 51 51 47 42 42 42 35 29 33 37 39 38 37 35 35 35 34 34 34 34 34 34 33 32 30 26 25 28 29 26 25 20 18 18 19 19 18 17 14
58 55 52 56 55 51 44 49 51 44 38 39 29 32 33 33 33 32 33 33 33 33 33 33 31 29 28 27 27 28 29 28 27 26 24 22 22 22 22 22 22 20 19
56 60 56 59 51 54 51 44 31 39 38 38 31 36 36 34 34 33 31 30 29 29 29 28 28 28 28 28 29 30 30 30 30 28 26 24 24 25 24 23 25 23 21

GFSGL_700_spd_054.txt.gz
Wind_Speed
35 34 34 32 30 29 28 27 25 23 22 21 19 17 14 12 13 15 17 21 20 19 18 16 14 12 10 9 8 7 6 6 6 7 7 7 7 10 11 12 13 14 16
32 33 33 33 32 32 30 28 27 25 24 23 22 19 16 14 14 16 17 19 23 23 22 20 18 17 15 14 13 11 11 12 12 11 13 13 14 15 16 17 18 19 20
32 33 33 34 34 33 31 29 28 28 26 25 24 22 18 17 16 16 18 19 19 23 25 24 22 23 21 19 18 17 17 18 19 20 18 19 22 23 24 23 24 25 27
32 33 33 33 33 32 31 31 29 29 28 26 25 23 21 20 19 19 18 17 17 18 20 24 25 26 24 24 24 23 23 25 26 28 28 28 28 28 32 32 32 32 35
32 33 34 31 31 32 32 31 30 30 27 25 25 24 23 24 22 19 17 16 16 17 19 20 21 24 27 28 29 28 29 30 31 32 34 34 33 33 34 35 39 39 40
31 30 29 30 30 30 29 29 29 28 27 25 23 23 23 24 22 21 20 19 18 18 19 20 21 23 23 25 27 29 31 32 34 36 36 36 35 36 35 37 40 40 43
33 29 26 25 27 27 27 27 26 26 26 25 23 23 22 22 21 20 20 20 19 19 19 20 21 22 23 25 25 26 28 29 30 32 33 33 34 32 35 38 41 44 46
19 17 17 19 22 23 25 24 22 22 20 21 21 21 20 19 18 17 16 19 19 18 18 18 20 19 20 20 21 22 23 26 28 31 34 35 39 41 45 48 51 55 56
22 20 17 16 17 18 18 17 17 17 17 17 18 20 21 20 18 18 20 22 22 22 21 22 23 23 24 26 29 30 31 33 35 37 40 43 45 48 52 54 55 58 55
22 22 22 21 20 20 19 19 20 22 23 25 25 25 26 26 26 26 27 28 28 28 27 28 28 29 31 33 36 37 37 36 39 39 38 38 40 41 43 46 48 51 51
23 23 23 22 19 17 15 14 15 16 19 22 25 28 30 30 30 30 31 33 33 33 33 34 34 34 35 36 38 38 37 36 36 36 35 34 32 32 35 39 38 38 45
29 27 26 24 24 23 20 21 21 22 23 23 24 25 27 27 27 27 28 30 30 32 32 34 35 37 38 39 40 40 39 39 38 36 35 31 30 33 40 48 53 58 56
36 34 31 29 27 25 26 26 25 25 21 24 24 25 23 21 22 24 25 26 28 30 31 33 34 34 35 36 38 39 39 38 34 33 31 29 29 35 42 52 55 58 57
39 35 31 33 32 31 31 26 22 25 26 24 25 25 23 23 23 24 26 27 29 30 31 32 34 34 35 36 34 33 32 30 28 28 29 28 32 38 45 52 57 55 58
36 38 37 36 34 31 31 29 31 34 35 30 26 27 26 24 24 27 28 29 30 31 32 33 34 33 32 31 30 28 27 24 26 27 27 30 35 40 47 52 54 54 54
29 30 32 34 34 35 34 34 35 40 35 37 36 33 30 31 31 33 32 31 32 33 35 34 32 31 30 27 25 23 24 25 24 24 27 32 36 41 48 52 52 51 49
30 32 34 36 37 36 35 35 35 36 38 39 38 36 33 37 38 37 35 33 32 34 35 31 30 29 27 25 24 26 27 25 24 25 29 33 37 41 46 51 50 47 46
30 30 32 32 33 36 38 39 39 39 44 45 44 43 39 37 37 37 36 35 32 30 30 29 26 25 26 28 29 29 27 26 26 27 30 34 37 39 44 46 42 44 42
25 26 26 24 23 22 23 23 26 30 32 34 35 33 31 32 33 34 34 34 31 30 28 27 27 27 27 29 29 29 28 28 29 31 32 34 36 38 42 40 38 37 31
26 28 27 23 24 22 18 17 18 21 26 29 32 34 35 33 30 31 31 31 31 30 30 28 27 28 29 30 31 31 32 33 33 34 34 34 34 37 39 35 35 31 22
28 29 30 25 27 24 19 14 14 18 21 24 26 29 30 31 32 30 29 30 30 30 29 28 28 28 29 31 33 34 35 35 35 36 35 34 32 34 34 33 30 24 17
30 30 29 28 28 29 30 23 19 19 17 16 17 18 20 23 27 28 30 33 33 31 31 32 32 32 33 33 34 35 35 35 36 35 33 33 31 31 31 31 25 19 17
32 31 31 32 32 32 36 33 28 29 29 28 27 25 24 23 27 29 30 33 34 34 35 35 36 36 36 35 35 35 36 36 35 33 33 31 29 28 29 27 23 21 19
42 41 39 40 42 42 40 35 31 32 35 39 42 41 36 35 34 34 35 39 39 37 37 37 36 36 35 35 36 36 36 34 33 31 30 29 29 27 27 27 24 22 22
52 50 51 53 52 52 49 47 42 39 41 45 47 45 38 34 33 31 35 39 38 36 36 36 36 35 35 35 35 34 33 32 31 30 31 30 29 29 28 26 24 24 25
56 55 55 56 55 49 47 44 38 37 38 42 43 40 43 36 31 30 31 32 34 34 33 34 35 36 35 33 32 32 32 32 33 33 33 31 32 33 31 28 24 25 26

GFSGL_700_spd_057.txt.gz
Wind_Speed
34 34 34 34 33 33 31 29 26 24 23 21 19 17 16 15 15 16 18 20 18 18 16 14 13 12 11 10 8 7 6 6 6 8 8 10 10 12 14 15 18 19 20
33 35 35 34 34 34 32 30 28 26 25 22 21 20 18 16 15 16 18 21 22 22 21 19 16 16 14 13 11 10 10 11 12 12 14 15 15 18 19 21 23 25 28
36 36 37 37 36 35 33 31 30 28 26 25 24 22 19 17 17 18 18 19 21 24 25 24 22 22 19 17 16 16 17 18 19 19 18 21 21 23 26 28 29 31 33
34 36 38 37 37 36 33 32 32 30 29 28 25 23 22 20 19 19 19 19 18 19 24 26 26 27 25 23 23 23 23 24 25 26 26 26 28 27 31 33 37 37 40
32 35 37 35 35 36 36 34 33 32 31 29 27 26 24 24 22 20 19 18 18 18 19 19 23 26 26 27 28 27 28 29 30 32 33 33 32 32 34 35 39 40 41
33 32 31 34 35 36 36 34 34 33 31 30 28 25 25 24 22 20 19 18 17 17 18 18 19 20 21 23 25 26 28 30 31 31 31 30 28 31 31 34 38 40 43
32 33 30 33 36 35 35 35 33 32 31 29 26 24 23 21 21 21 21 21 21 21 20 20 20 20 20 21 22 24 26 27 28 28 25 26 28 31 36 41 45 48 50
30 33 34 33 34 33 34 33 31 31 29 28 26 24 22 21 20 21 21 24 24 22 21 19 20 20 20 20 21 23 23 25 26 27 29 30 35 38 43 46 49 50 48
29 34 32 31 29 31 31 30 29 28 27 25 25 25 22 19 20 21 23 24 23 20 19 20 21 21 21 22 24 26 26 29 31 33 35 38 40 42 45 47 47 48 47
24 25 27 26 28 27 26 26 25 25 23 23 22 21 20 20 21 22 24 25 24 22 21 22 23 25 26 28 31 33 34 34 37 38 38 37 37 39 42 43 40 40 41
30 27 25 24 25 24 25 25 25 24 24 23 22 22 23 24 25 26 27 28 27 26 27 28 29 31 33 35 36 37 38 39 40 40 39 38 37 35 33 31 34 39 42
32 26 24 25 27 27 27 26 24 24 24 24 25 26 28 30 31 31 31 31 29 31 30 28 27 28 30 33 34 35 37 38 38 39 40 39 35 31 29 30 34 39 45
35 32 30 31 31 31 28 26 25 23 21 21 22 24 27 28 28 27 27 27 26 25 25 25 26 27 29 31 33 34 36 37 37 38 37 33 28 28 26 30 35 41 48
38 34 34 36 36 32 31 30 26 25 24 19 17 19 24 24 22 23 24 25 26 27 25 26 28 29 30 32 33 35 36 36 36 37 33 27 25 22 25 31 37 41 48
43 41 38 40 36 35 33 30 29 26 24 24 23 24 24 23 24 26 27 25 23 25 29 30 30 29 30 32 33 33 32 32 32 30 26 24 22 22 26 31 36 42 47
49 47 43 38 33 27 29 29 30 33 34 31 27 25 26 26 26 28 31 30 31 32 33 32 30 31 33 34 33 31 29 29 27 25 26 25 22 23 26 31 36 41 46
32 40 43 41 20 31 34 25 26 29 29 27 28 27 30 30 31 32 34 36 37 39 37 33 32 31 33 31 29 28 27 26 26 28 28 25 25 25 28 32 35 40 45
27 30 30 48 29 24 20 24 26 27 28 31 33 35 36 37 37 38 37 41 40 39 38 36 32 31 29 27 27 27 27 29 31 31 28 28 27 27 29 31 34 39 44
28 29 22 20 19 26 31 35 35 34 34 36 40 41 41 40 41 41 40 37 35 35 35 34 32 30 29 28 28 28 29 31 32 31 30 30 30 31 32 30 33 37 40
22 23 22 24 27 25 23 22 23 26 28 29 30 30 29 28 30 32 32 31 31 33 33 33 32 31 30 28 28 28 29 31 32 32 33 33 33 34 34 32 32 34 35
29 30 29 30 27 22 20 19 20 22 21 22 22 22 22 24 25 28 29 28 28 29 30 31 30 30 29 29 30 30 31 32 33 34 36 37 37 37 34 32 31 31 32
30 31 32 28 25 21 21 22 23 24 23 21 18 14 14 16 17 18 19 21 23 26 28 31 33 34 35 35 35 35 37 37 37 38 38 38 37 36 33 31 30 30 30
31 32 32 30 29 27 26 27 28 28 30 29 28 24 19 19 19 21 23 24 26 27 29 31 33 35 38 40 41 41 41 40 39 38 38 37 36 33 31 30 29 29 30
35 35 35 34 34 32 32 31 31 29 29 33 34 36 34 29 27 26 29 34 35 36 37 38 40 39 41 43 42 42 41 40 39 37 36 34 32 31 30 29 29 29 29
43 42 42 42 43 43 42 42 40 38 37 38 41 44 46 45 41 37 36 35 36 37 39 41 40 40 41 42 41 38 37 37 37 35 34 33 31 31 30 31 31 31 30
56 52 52 52 50 49 48 48 48 47 46 43 44 46 46 43 40 38 37 38 39 37 37 38 37 37 37 36 35 34 35 36 35 36 35 34 33 32 32 32 34 33 32

GFSGL_700_spd_060.txt.gz
Wind_Speed
33 36 37 37 36 34 33 30 30 27 25 23 20 17 15 14 13 13 13 16 14 15 14 12 11 10 10 10 9 8 8 8 8 8 9 11 12 14 17 19 20 24 27
30 32 35 36 36 36 34 32 31 29 27 24 22 20 18 16 16 15 16 18 18 18 18 16 15 14 13 12 11 11 11 11 12 12 15 16 17 19 21 24 27 30 34
26 30 33 35 37 37 34 34 34 32 29 27 25 23 20 18 18 17 17 18 18 21 22 21 20 18 16 15 15 15 15 16 17 19 17 21 22 25 28 29 32 35 38
29 29 32 34 34 34 34 35 34 33 31 30 27 24 23 21 20 19 19 18 19 21 25 25 25 23 21 20 21 20 21 22 23 24 24 25 27 27 31 32 35 37 40
32 28 32 32 32 33 34 35 35 35 33 31 29 27 26 24 23 21 20 19 19 20 21 24 27 26 25 26 27 26 27 28 28 30 30 30 30 31 31 32 33 35 38
32 31 25 31 34 34 35 36 36 36 34 33 31 29 28 26 23 22 21 20 21 20 20 19 19 20 21 22 25 27 27 29 30 31 30 30 25 26 28 32 36 40 42
36 35 32 25 31 35 35 36 38 37 35 35 32 30 28 27 24 23 22 22 21 20 19 18 17 18 18 20 20 23 25 25 26 25 23 23 26 28 32 37 39 43 45
37 37 35 33 28 30 36 37 37 37 37 34 32 29 27 25 23 23 23 24 23 22 21 20 20 20 20 20 21 22 24 24 24 25 25 26 30 34 38 40 42 43 41
40 37 35 34 33 30 33 36 36 36 35 33 31 29 27 25 23 23 24 26 25 22 21 20 19 19 18 19 20 21 22 23 25 28 31 34 36 39 43 46 45 48 46
38 38 38 36 34 34 32 32 33 33 32 32 31 29 27 25 26 26 27 28 26 22 20 19 19 18 19 21 24 26 29 31 33 36 39 41 42 44 44 45 46 45 41
39 39 39 37 35 33 29 29 34 33 32 31 31 29 27 26 27 28 29 29 24 21 21 21 22 24 25 28 32 35 36 38 40 43 43 43 44 45 45 41 39 38 31
39 38 34 34 34 36 36 35 35 34 32 31 30 28 26 26 26 27 28 29 25 26 26 27 29 30 30 31 33 33 32 33 35 36 37 39 39 40 37 33 29 28 30
42 32 29 32 31 29 30 32 32 32 32 32 31 30 29 27 27 28 30 31 31 32 32 31 29 27 26 28 28 27 29 33 35 37 37 38 38 36 31 26 25 26 30
43 40 35 32 32 31 31 34 36 36 36 33 30 27 26 25 27 30 32 33 33 33 28 25 26 28 28 27 28 29 32 34 36 36 35 35 33 28 23 22 22 26 30
49 45 42 40 37 37 36 37 37 36 33 29 25 23 23 21 22 23 25 27 27 25 25 27 29 29 30 31 32 33 35 37 37 34 33 31 27 23 23 23 23 26 30
52 51 47 43 40 40 39 40 38 36 33 30 27 25 24 28 27 26 28 30 29 28 28 30 31 31 32 34 36 35 35 35 33 32 31 28 24 24 25 25 25 27 30
55 54 50 48 45 43 42 42 38 39 39 35 32 27 35 34 30 31 30 29 31 33 34 34 33 35 37 39 38 36 34 31 29 29 28 25 25 28 27 28 28 29 32
38 46 41 43 46 45 42 39 34 40 43 28 28 33 31 30 31 33 33 34 36 36 35 36 37 38 39 40 39 36 32 29 27 27 28 28 30 30 29 29 31 31 33
47 53 42 36 35 31 36 43 27 35 33 23 25 28 30 32 35 37 38 39 38 39 39 39 38 37 38 38 36 35 32 29 28 28 30 31 32 32 31 32 33 34 34
32 34 33 34 31 37 39 31 28 34 31 30 32 31 30 34 39 42 42 39 38 37 36 33 33 33 33 33 33 32 31 31 31 30 31 33 33 33 34 36 37 39 35
22 21 25 20 20 23 44 38 41 29 23 20 23 24 27 28 31 34 33 32 31 30 31 31 31 30 28 27 26 27 28 30 32 34 35 35 35 37 37 38 38 38 34
19 20 22 24 29 32 32 30 26 23 21 20 21 20 20 22 24 27 30 29 27 26 25 24 23 22 24 25 27 29 32 34 36 37 38 40 40 40 39 39 38 35 31
19 21 22 21 21 22 21 24 26 29 29 28 26 24 22 22 22 22 24 22 21 20 21 21 22 24 25 27 30 33 36 39 40 42 43 43 41 40 39 38 36 33 30
25 20 22 25 28 28 28 29 33 33 31 31 30 30 30 30 31 32 33 32 32 31 30 30 31 32 33 35 37 40 42 42 43 43 43 41 39 38 37 35 33 32 30
36 32 37 33 27 29 31 33 34 33 33 34 33 34 33 34 35 35 35 36 38 39 42 44 42 40 40 40 39 40 40 44 42 39 38 38 37 36 34 34 33 33 31
44 45 40 39 40 40 38 38 39 39 40 41 41 41 41 42 43 42 43 44 45 49 50 51 49 45 45 43 40 41 41 41 38 36 35 35 35 33 29 30 30 32 32

GFSGL_700_spd_063.txt.gz
Wind_Speed
32 32 33 35 37 36 34 31 28 26 23 22 20 17 15 13 11 10 10 10 11 11 10 9 9 7 7 9 8 7 6 6 5 6 8 12 12 14 17 21 24 27 30
28 30 33 34 37 38 37 34 31 29 26 24 22 20 18 16 15 12 12 13 13 14 13 12 12 10 9 8 7 8 8 8 10 10 13 15 17 21 23 25 27 30 34
26 29 31 36 37 39 38 35 33 31 28 26 25 23 21 19 17 15 14 14 14 16 16 16 16 14 11 11 11 11 12 13 15 17 16 19 21 24 28 29 31 33 33
24 24 30 33 36 38 37 35 34 32 30 28 27 25 23 21 20 18 17 16 15 17 17 19 20 19 17 16 16 16 17 19 20 21 21 22 25 25 28 30 31 31 35
28 26 24 29 33 35 36 35 35 33 31 29 28 27 26 24 23 20 19 18 17 18 19 18 21 22 21 22 23 22 24 24 24 24 24 25 26 25 26 28 30 32 35
31 26 24 22 29 33 35 34 34 34 33 31 30 29 28 26 23 22 20 21 19 20 21 20 19 19 20 23 24 25 26 26 25 25 24 25 23 25 26 29 32 35 37
34 32 28 23 21 30 32 34 35 35 34 33 32 31 30 28 25 23 22 22 22 23 22 21 21 21 19 20 20 21 22 23 22 22 23 22 22 24 30 33 37 41 44
34 35 35 29 26 22 29 33 33 34 35 33 32 31 30 29 26 25 23 24 25 24 23 22 21 20 19 18 19 21 21 21 21 23 24 24 28 31 36 39 43 46 47
35 33 32 33 29 28 25 25 30 32 35 33 32 32 31 29 26 24 25 27 27 24 23 22 21 21 20 20 21 20 20 20 22 25 28 31 35 38 42 46 46 49 48
38 34 36 37 35 31 28 25 23 29 31 31 32 32 30 28 26 25 26 28 28 25 24 22 21 20 19 20 21 21 24 25 28 31 34 38 41 43 45 46 46 45 40
38 42 41 39 38 35 35 33 27 25 30 31 33 31 30 28 28 28 30 31 31 26 23 21 19 18 18 19 22 26 30 32 35 37 39 39 40 40 41 41 40 32 30
32 39 45 43 41 41 36 34 32 30 31 32 32 31 31 30 31 31 32 33 31 28 24 22 21 21 22 23 27 32 34 35 34 34 35 35 36 37 39 40 34 28 28
33 33 44 45 42 43 38 35 36 33 33 34 34 35 32 32 32 32 33 32 30 29 26 25 25 27 29 29 28 29 30 31 31 32 33 34 36 38 37 35 31 25 21
37 31 39 47 44 42 40 40 40 38 37 36 36 34 33 33 31 29 28 30 32 32 31 30 30 30 30 27 27 27 28 31 33 33 35 36 39 39 36 31 26 22 23
40 35 40 44 41 39 41 40 41 40 38 38 36 36 33 31 30 29 31 31 33 33 33 33 31 28 27 27 27 28 30 32 33 34 36 38 38 36 32 27 23 24 25
44 39 43 43 39 38 36 35 36 36 37 38 36 36 36 35 31 27 26 26 27 28 29 28 27 28 30 28 29 31 32 34 34 36 37 37 34 32 28 25 25 27 27
42 40 47 48 46 43 39 37 37 38 38 39 40 39 35 31 29 28 26 25 29 30 29 30 31 31 31 32 34 34 38 39 36 36 36 34 30 27 26 27 28 29 28
45 46 44 42 42 49 44 43 42 42 40 40 38 37 36 36 34 30 31 31 33 32 31 34 33 34 35 37 36 36 39 38 37 35 34 32 29 28 28 29 29 29 29
41 43 46 48 46 51 52 50 46 43 40 39 38 41 41 33 37 31 31 32 33 33 35 39 38 38 38 40 40 39 37 36 34 33 31 31 29 30 29 29 28 30 31
45 44 43 41 39 38 35 37 40 35 18 27 39 41 42 32 40 39 33 34 35 35 38 43 43 44 44 44 39 34 33 32 30 29 29 29 30 29 29 30 30 32 35
35 38 37 28 25 22 26 26 33 29 23 27 31 44 32 36 38 43 41 40 38 37 41 44 44 43 40 36 33 32 31 28 27 27 28 30 31 31 33 33 33 35 36
21 23 25 38 47 56 47 48 48 56 45 50 35 40 35 36 33 36 29 25 25 26 28 30 33 32 31 31 31 30 30 29 29 30 32 34 35 37 38 37 38 38 37
21 22 23 28 35 25 21 32 23 26 33 34 24 42 45 36 36 31 26 22 23 24 25 25 25 25 23 23 24 25 27 29 31 34 36 39 40 41 43 43 40 37 36
22 25 26 21 24 28 28 26 27 30 31 35 40 40 39 34 33 29 28 27 27 26 27 27 28 29 29 31 32 32 32 35 37 38 40 41 41 42 41 40 39 37 35
26 24 30 31 22 25 25 28 32 31 29 29 32 30 30 33 33 33 33 34 35 35 35 37 37 36 35 37 38 40 41 43 43 43 43 44 44 41 39 40 36 32 32
29 29 33 32 36 37 36 34 33 33 32 30 30 29 31 34 35 36 39 40 40 41 41 42 42 43 43 44 45 45 45 46 46 45 43 44 44 42 42 40 37 30 29

GFSGL_700_spd_066.txt.gz
Wind_Speed
28 29 29 31 31 32 30 28 26 23 20 21 15 12 11 11 9 7 6 6 5 5 3 2 3 5 5 7 10 9 6 4 4 3 5 8 11 13 15 19 23 26 29
24 27 28 30 32 33 33 31 29 27 24 22 20 16 15 13 11 9 8 9 7 8 7 5 6 6 6 6 5 5 4 4 5 6 9 11 14 18 22 23 25 26 27
20 26 27 29 33 34 35 33 32 29 27 24 22 19 17 15 14 13 11 12 11 9 9 10 9 9 9 8 7 7 7 9 10 12 12 15 17 19 22 23 24 24 25
21 17 26 27 28 33 34 34 33 31 29 26 24 22 20 18 18 17 15 14 13 12 11 11 12 12 12 12 12 11 11 13 15 17 17 20 21 19 21 22 24 27 32
27 21 16 22 26 29 33 33 33 32 30 28 26 25 23 21 20 19 18 16 15 14 14 13 13 13 15 16 17 16 17 18 19 21 21 21 20 20 22 24 27 30 32
30 26 23 19 23 27 30 33 34 34 31 30 30 28 26 24 22 21 20 19 17 17 17 16 15 15 15 17 19 19 20 20 19 20 19 19 19 21 22 26 29 32 36
30 30 27 23 21 22 27 31 33 34 33 32 31 29 28 26 24 23 21 21 20 19 19 18 18 18 17 17 18 18 18 18 18 17 18 17 20 22 26 29 34 38 41
29 31 31 29 24 21 25 29 31 32 34 33 31 30 28 27 25 24 24 24 23 23 22 21 20 20 19 19 19 19 18 17 17 18 19 20 23 26 31 35 39 42 41
28 29 30 31 31 28 24 25 30 31 32 33 32 31 30 28 25 25 26 27 26 25 24 23 21 21 18 19 20 19 19 17 16 18 21 24 26 31 36 40 41 42 42
30 31 31 32 34 34 30 26 21 27 29 30 31 31 31 29 26 25 26 29 29 27 25 22 20 19 18 20 22 21 19 16 20 22 26 29 32 35 35 37 38 39 37
30 33 36 34 31 32 32 32 28 24 25 30 31 31 32 29 28 26 27 30 30 29 25 22 22 21 20 21 23 22 22 22 25 28 30 32 31 30 32 33 34 32 29
36 34 39 39 38 35 34 33 32 31 30 26 29 30 29 28 28 28 29 31 30 31 26 23 23 22 22 22 22 22 23 28 31 32 29 29 29 29 31 34 36 36 33
39 36 34 37 41 41 39 37 35 35 34 33 31 30 30 29 30 30 31 31 33 33 29 26 25 25 24 22 22 23 26 31 31 29 29 28 29 30 31 34 36 34 30
42 39 33 32 36 42 44 41 39 38 36 36 34 34 31 32 31 32 32 32 33 35 32 30 29 29 27 26 27 28 28 26 26 28 28 29 30 31 32 34 33 30 27
44 44 39 35 35 37 44 45 41 42 38 36 35 32 33 33 34 33 29 30 31 32 33 33 32 30 30 31 31 29 25 23 24 24 27 30 32 32 32 33 31 29 25
40 45 43 40 37 37 43 46 44 43 42 38 37 36 36 37 36 32 31 29 28 30 32 33 33 33 33 32 29 29 26 25 27 30 33 35 35 35 33 31 29 26 24
43 44 43 42 42 39 43 48 48 43 43 40 41 40 41 40 33 30 29 29 31 28 29 29 29 29 27 27 28 28 28 29 31 32 35 37 37 35 32 30 28 27 26
45 45 42 42 43 44 44 46 46 41 39 39 37 33 31 31 31 29 29 28 28 29 28 25 30 29 27 29 31 30 31 33 35 36 39 39 34 33 30 29 27 26 26
43 40 40 39 39 38 41 45 42 41 41 41 38 38 34 36 36 37 36 30 29 28 29 37 33 39 34 31 31 35 36 38 38 39 40 36 32 27 23 26 27 26 26
38 39 39 42 44 43 39 41 41 39 40 41 36 36 38 38 40 42 43 41 29 27 24 36 36 38 36 35 36 38 41 42 42 40 35 33 30 27 27 25 25 28 30
42 39 48 48 44 46 46 43 43 39 31 30 29 27 30 34 36 40 43 33 34 34 33 29 39 37 38 41 42 39 40 41 38 32 31 29 25 23 24 26 29 31 33
31 41 49 50 51 52 52 46 39 36 37 33 34 26 24 25 27 29 40 43 54 51 37 41 41 36 36 38 35 36 36 35 33 31 28 25 24 25 28 29 32 33 36
32 48 37 27 42 44 42 41 41 40 33 39 36 35 36 40 37 37 32 34 32 32 36 36 34 36 34 32 32 31 29 24 22 22 25 26 27 29 32 33 35 35 38
24 27 26 27 25 24 33 26 32 36 38 30 35 39 31 29 47 40 38 36 36 30 31 34 36 33 29 29 28 27 28 29 30 30 30 33 36 36 37 38 38 36 38
22 20 18 17 22 31 33 29 22 32 25 33 57 54 41 48 22 31 36 39 38 34 33 31 29 31 32 34 34 34 34 34 35 36 38 39 40 41 42 43 40 38 37
21 24 28 33 30 25 28 25 19 19 26 33 19 35 31 32 31 27 25 28 31 31 30 32 34 35 37 39 41 40 40 40 40 41 43 45 45 44 45 44 41 37 36

GFSGL_700_spd_069.txt.gz
Wind_Speed
32 30 28 27 29 28 25 22 20 17 17 13 10 9 9 8 8 7 7 6 7 8 7 6 6 6 7 8 8 11 11 10 7 4 1 5 8 11 15 17 20 21 21
31 31 30 28 29 31 29 26 24 21 21 18 14 13 12 10 9 8 7 4 6 6 7 8 7 7 5 6 7 9 8 8 8 7 5 6 8 13 16 18 20 19 20
30 31 31 31 29 31 31 29 27 26 24 23 19 14 13 12 11 10 9 8 5 5 7 8 10 10 9 8 8 8 8 8 7 7 6 9 10 14 16 18 20 20 22
29 30 30 30 28 27 28 30 30 28 27 26 24 20 17 16 15 13 11 11 9 7 7 8 11 11 12 12 11 11 11 11 11 11 11 12 12 13 18 18 18 22 25
27 26 22 28 29 29 29 30 29 30 29 27 26 24 23 20 18 16 14 13 13 12 11 10 10 12 15 16 16 15 15 16 16 16 15 16 15 14 15 18 21 25 26
31 27 24 22 26 28 26 28 30 29 29 30 29 27 26 25 21 19 18 17 16 16 15 14 13 14 14 16 18 18 19 19 18 18 17 15 12 14 16 19 23 28 34
26 30 29 25 21 24 26 26 28 31 30 31 31 29 28 26 24 23 21 20 19 18 18 17 17 16 16 16 16 16 17 17 17 16 14 12 14 15 18 21 26 31 34
23 28 31 30 27 22 22 26 27 29 31 30 30 30 29 27 26 25 24 23 22 21 21 19 19 18 18 18 18 18 16 16 14 14 15 15 17 19 22 26 30 30 29
28 30 30 29 31 28 25 20 24 27 28 31 31 30 31 30 27 26 26 26 25 23 22 22 21 20 19 19 21 19 18 16 15 17 18 19 19 22 27 30 30 31 30
26 24 24 29 31 32 27 26 21 23 26 27 30 31 30 30 29 28 28 28 28 26 24 23 23 20 18 20 21 19 18 13 16 16 17 19 22 26 28 27 27 28 31
33 31 25 23 29 28 31 31 29 23 22 28 29 30 31 30 29 28 29 30 29 28 26 24 21 19 18 19 21 22 21 17 18 19 20 22 24 24 23 24 25 28 30
37 33 28 27 28 30 29 30 33 30 29 25 27 31 32 31 30 30 30 30 29 31 29 26 23 21 22 23 23 22 20 19 20 21 25 25 23 20 22 23 26 27 28
37 36 30 30 30 33 35 32 33 35 32 31 29 27 27 30 30 30 30 30 31 32 30 28 26 25 25 25 25 24 22 23 23 26 26 23 21 21 21 23 26 28 29
37 39 42 33 31 34 34 37 36 37 37 35 33 32 29 26 29 30 29 29 30 32 32 30 28 28 27 27 26 26 25 24 25 26 24 23 21 21 24 28 30 29 27
33 34 42 40 34 33 32 33 35 38 38 40 37 34 32 32 27 28 27 28 29 30 31 34 34 32 30 29 29 28 27 27 28 26 25 22 22 24 27 30 32 32 28
32 35 35 43 39 36 35 33 33 37 41 40 40 40 35 32 31 28 30 29 27 28 33 35 33 33 32 31 31 30 31 30 27 24 24 22 24 26 31 35 36 33 29
34 30 33 38 43 41 40 37 36 37 39 41 42 41 39 36 34 33 30 27 28 30 33 32 28 28 30 31 32 32 32 31 27 25 24 25 26 29 33 35 34 33 26
36 34 33 36 38 40 41 41 41 40 38 41 41 39 39 40 36 34 32 30 30 31 28 27 30 29 29 31 30 29 29 29 27 21 22 26 31 33 35 33 32 29 21
36 38 38 39 41 42 40 38 40 41 39 41 39 38 38 38 38 35 29 25 27 29 32 32 32 30 31 32 28 25 26 26 31 26 29 37 33 36 34 29 27 24 22
31 37 39 42 44 45 44 39 39 34 37 36 38 37 34 34 32 31 29 29 31 31 31 31 34 36 37 39 36 26 30 36 40 33 32 35 38 36 30 28 24 22 21
30 27 30 44 45 40 38 39 40 38 40 35 32 28 29 34 35 37 38 38 39 40 42 39 43 48 49 52 31 47 51 42 30 34 35 36 32 26 23 22 21 20 21
35 35 33 42 43 36 42 42 42 42 43 43 39 38 46 41 36 39 40 40 41 37 36 38 42 44 38 33 37 32 33 38 38 33 27 26 22 23 20 19 19 21 23
31 29 32 26 40 37 39 45 48 49 53 45 45 41 36 44 43 43 35 34 36 37 39 36 32 33 31 33 38 37 33 32 31 28 24 20 21 21 22 23 24 27 29
29 33 29 26 22 32 47 39 40 37 39 42 39 45 54 54 48 51 46 38 34 34 30 30 33 31 36 43 30 27 27 26 24 26 26 25 27 27 28 30 32 33 33
17 23 30 27 37 15 10 21 25 31 28 52 54 39 28 42 43 40 29 29 30 27 31 30 33 33 34 34 32 28 26 27 29 30 30 31 32 33 34 35 36 35 35
21 19 20 20 19 15 15 19 30 12 21 39 34 32 22 30 25 32 36 30 23 21 25 31 34 31 31 33 32 32 31 33 34 36 37 37 37 39 40 40 40 39 38

GFSGL_700_spd_072.txt.gz
Wind_Speed
34 33 32 32 32 30 27 23 21 20 19 16 15 16 13 11 11 10 10 10 10 8 9 10 10 10 9 9 9 11 16 15 12 11 7 5 3 6 11 14 16 18 19
32 35 35 33 33 34 32 27 25 23 22 20 17 15 14 13 11 10 10 10 11 11 10 10 10 10 9 9 9 11 12 12 11 10 7 6 6 10 12 14 17 18 17
32 33 36 37 35 36 34 31 29 26 25 23 21 19 17 14 13 13 11 10 10 12 13 12 10 11 11 12 12 13 13 12 12 11 11 11 10 13 14 16 16 16 16
31 30 34 37 36 36 36 35 33 30 29 27 24 21 20 19 18 16 14 13 12 11 12 14 15 14 13 13 14 14 14 14 14 14 13 12 12 14 17 17 14 17 18
32 30 31 35 37 38 38 38 36 34 32 31 29 26 24 24 22 19 17 15 14 13 12 13 14 16 18 18 18 17 17 17 16 15 14 15 13 15 17 16 16 18 20
33 32 26 31 35 37 38 39 39 37 34 34 34 31 28 26 23 22 21 19 18 17 15 14 15 16 16 19 21 21 21 20 19 19 18 17 15 15 16 13 17 22 27
36 33 29 29 32 34 35 38 39 39 37 36 36 36 34 30 27 25 24 23 22 20 19 18 17 17 17 18 19 21 23 23 22 21 20 16 16 13 12 14 18 24 26
38 32 27 29 27 29 29 33 37 37 38 37 36 36 36 33 30 29 27 27 25 23 23 21 21 20 18 19 21 22 21 21 20 20 18 14 16 11 14 18 21 23 21
43 38 34 26 23 26 29 28 30 35 35 35 34 36 36 34 32 30 29 30 29 26 25 24 23 22 20 21 23 23 23 21 19 19 19 19 16 14 16 21 22 22 20
48 42 36 31 30 27 27 30 29 28 30 32 33 33 34 34 33 32 33 32 32 29 28 27 26 24 22 22 25 24 25 19 20 22 23 21 15 15 19 23 22 21 23
45 44 35 33 24 21 25 27 30 31 28 28 30 32 33 32 31 32 33 34 32 30 30 28 27 25 23 23 24 26 24 19 21 22 20 17 17 19 21 23 21 22 23
43 40 45 40 34 24 22 25 27 33 33 30 28 30 32 32 32 32 33 34 32 32 31 29 27 25 25 25 26 26 25 23 24 22 21 18 19 21 23 22 20 21 22
48 50 44 38 37 35 29 27 23 29 37 35 34 29 26 29 31 31 32 33 33 34 32 31 30 28 26 28 28 28 27 25 23 23 21 21 23 25 24 20 20 21 23
35 49 44 40 40 33 33 29 28 28 34 37 38 33 28 25 23 25 29 31 32 34 32 32 32 31 31 30 30 30 28 27 26 25 25 27 27 25 22 20 21 24 25
30 43 40 41 34 32 35 35 32 31 29 33 38 37 36 34 29 26 23 24 28 30 29 32 35 34 32 31 31 31 30 30 30 28 29 29 28 26 22 23 24 26 27
28 37 38 36 39 39 38 38 36 33 30 29 34 38 39 39 36 33 31 29 27 27 31 35 36 34 33 31 31 31 31 32 30 29 30 31 29 27 24 24 26 27 29
23 28 38 42 41 39 41 42 41 37 34 31 30 31 38 40 40 38 34 33 31 32 35 35 34 34 33 31 32 33 33 32 30 31 31 31 30 27 27 26 26 26 28
36 30 34 40 40 44 43 41 39 39 39 36 34 32 29 34 38 38 37 36 35 34 34 32 31 30 31 32 31 32 31 30 29 27 27 28 28 28 29 27 24 26 27
49 42 36 37 40 42 35 35 37 37 37 38 40 37 33 31 32 35 37 38 34 33 33 32 31 31 32 33 36 35 33 32 29 30 32 33 34 34 23 27 28 35 28
50 49 46 41 41 41 45 41 36 38 38 37 38 38 35 32 37 38 37 36 34 35 33 31 30 30 32 34 36 37 36 32 27 23 32 35 38 48 58 38 38 35 26
38 43 42 43 44 45 45 45 39 38 37 37 34 34 35 33 33 37 39 34 36 36 35 33 33 35 35 35 37 39 40 39 42 37 32 36 52 41 44 36 31 28 23
29 32 33 37 36 41 44 46 44 45 45 44 43 37 34 32 36 38 38 37 32 35 36 36 37 39 39 39 37 34 37 38 47 55 49 48 39 32 25 29 28 27 23
30 34 39 34 37 39 41 41 39 38 43 38 39 41 42 39 39 40 40 39 38 39 38 37 36 37 38 37 35 31 32 36 34 32 34 34 33 27 28 24 26 23 22
31 32 27 27 35 36 28 29 27 32 37 42 37 39 45 44 43 45 41 45 47 38 38 43 38 37 37 39 38 34 33 34 29 24 24 28 31 25 24 28 27 27 28
27 34 35 30 19 33 34 36 37 34 43 41 47 39 45 46 44 43 45 45 49 54 52 51 42 37 33 33 37 37 29 24 27 29 30 28 27 30 29 31 30 29 30
26 22 22 28 29 24 23 19 13 31 40 47 42 45 45 40 48 38 34 41 44 38 38 36 26 30 39 39 31 29 35 32 30 28 28 28 31 33 34 33 34 35 37

GFSGL_700_spd_075.txt.gz
Wind_Speed
22 26 27 28 27 27 25 22 21 18 19 19 18 17 16 13 13 12 10 10 10 11 9 10 13 14 12 10 12 15 18 21 20 17 15 12 9 10 11 13 17 16 15
25 28 29 29 30 30 28 24 22 22 21 20 19 18 18 16 15 13 11 11 11 11 11 11 12 13 12 12 11 12 15 18 18 17 15 13 11 12 11 13 16 17 17
22 29 31 31 31 32 30 28 27 25 24 23 22 20 18 17 15 14 13 12 12 12 14 12 12 13 13 13 13 14 14 16 17 16 15 14 12 13 15 17 18 15 15
29 26 31 33 32 32 32 31 29 29 27 27 25 23 22 20 18 17 16 15 14 14 15 16 16 15 14 14 14 14 16 17 17 16 16 15 15 16 20 20 15 16 13
35 31 27 28 31 32 34 33 33 32 31 30 29 27 25 24 23 21 20 19 18 18 17 16 17 19 19 18 18 18 19 19 19 19 18 18 17 18 21 20 18 17 14
38 34 30 27 28 31 33 34 35 36 35 35 34 32 30 28 26 24 24 23 22 21 20 19 18 19 20 22 23 22 22 22 22 23 21 20 17 20 21 19 18 18 18
43 41 37 33 31 29 32 35 35 36 37 39 37 37 36 33 30 29 27 27 26 25 23 22 22 21 21 22 22 24 26 27 26 26 24 22 21 20 21 18 18 18 20
46 42 35 32 30 32 32 35 35 34 36 38 39 39 38 38 35 32 30 30 30 28 27 26 26 24 24 24 25 25 25 25 24 26 25 21 22 19 21 19 17 19 21
38 33 31 31 29 29 33 33 32 31 32 34 37 39 38 38 37 36 35 35 34 32 30 30 29 28 25 25 26 27 26 25 25 25 25 23 22 20 19 20 17 21 21
38 37 32 32 31 30 31 33 31 28 25 25 31 35 36 37 37 38 38 38 38 36 34 33 31 30 28 28 29 28 28 24 25 26 27 26 23 19 20 22 21 22 21
37 41 40 43 36 31 30 32 31 29 28 27 27 28 32 33 35 38 37 40 40 37 37 35 32 31 30 30 30 31 30 27 27 29 29 28 24 20 20 22 22 23 22
34 36 36 39 36 34 31 33 35 35 35 31 30 29 29 30 30 34 37 40 39 39 37 34 33 31 31 32 33 33 32 33 31 28 28 26 22 20 21 24 23 24 22
35 36 42 43 42 43 38 36 36 38 41 37 35 33 31 29 29 30 33 36 38 39 36 34 32 32 33 35 35 34 33 34 31 28 28 25 22 22 24 24 25 24 23
33 41 38 41 47 51 48 40 37 33 34 36 38 37 35 33 29 28 31 33 34 36 36 35 34 35 36 36 35 34 34 32 31 30 29 26 24 24 25 25 24 24 24
20 24 36 44 48 44 50 44 39 30 32 29 31 32 37 38 30 30 29 28 30 32 32 34 36 37 37 36 35 32 32 33 33 31 31 29 27 28 26 25 25 25 25
29 26 29 33 37 45 48 41 36 33 33 33 32 32 31 34 34 33 34 34 32 32 33 35 37 37 36 35 33 31 31 32 33 33 34 32 30 29 28 27 27 27 26
41 35 27 26 30 34 38 40 45 42 40 33 31 29 33 31 34 36 37 37 38 39 39 36 36 36 35 34 33 32 32 33 34 35 35 34 33 32 31 29 28 25 22
39 41 37 27 27 31 37 40 42 34 37 38 38 35 36 34 33 35 40 43 44 42 41 41 39 36 35 35 35 35 35 35 35 35 35 35 35 36 36 34 31 30 30
42 41 48 38 31 28 30 36 40 40 41 44 37 37 39 36 34 32 31 40 41 43 43 43 39 37 36 35 36 37 38 36 34 32 30 30 32 33 34 32 31 34 41
45 43 51 46 41 35 32 33 34 40 41 37 35 36 38 36 36 34 33 32 34 37 41 41 41 39 39 37 36 37 36 33 33 33 33 32 31 31 32 28 33 31 37
44 48 54 51 47 44 42 39 35 38 39 41 38 38 40 37 36 34 36 35 37 39 37 40 43 41 41 41 41 38 36 35 35 35 34 31 34 37 33 33 41 51 51
38 44 47 52 56 57 50 47 44 40 42 45 40 41 42 42 40 38 34 35 35 39 39 41 43 41 39 38 37 36 34 32 33 34 33 36 36 40 42 48 49 39 37
38 41 42 43 46 56 50 50 45 43 42 46 46 45 44 47 46 43 41 41 41 42 40 43 43 41 41 39 38 39 39 39 40 38 38 37 37 37 33 32 31 37 33
36 36 37 37 36 40 43 45 44 43 44 46 44 45 46 45 48 45 47 46 45 44 46 44 39 41 43 44 44 45 42 41 41 42 40 41 36 32 26 27 30 29 28
31 32 33 32 31 34 37 36 38 34 40 38 41 40 41 41 39 42 43 50 47 46 46 45 44 46 44 41 40 42 42 42 43 44 40 36 33 29 28 30 29 27 28
26 30 28 30 32 27 24 27 31 35 31 34 35 41 31 40 42 37 40 42 51 51 48 48 44 43 41 42 41 39 36 38 39 37 39 43 43 35 31 37 30 28 29

GFSGL_700_spd_081.txt.gz
Wind_Speed
23 21 19 15 12 14 16 17 16 16 17 17 16 16 16 15 13 10 9 8 8 7 7 8 11 14 15 14 14 15 18 20 20 19 20 18 17 17 18 19 21 22 21
24 23 21 19 19 17 17 18 19 18 18 17 20 19 19 18 16 13 12 11 11 9 9 8 9 11 12 14 15 16 17 21 22 21 22 21 20 20 20 21 22 23 21
28 28 27 24 24 22 20 19 21 21 20 20 19 18 19 20 20 17 15 14 13 12 12 10 11 11 11 12 13 15 16 18 21 22 22 23 22 22 22 23 23 22 22
31 31 31 29 27 27 24 23 23 23 24 23 22 19 19 20 21 21 19 18 16 15 14 13 13 12 11 12 13 13 15 16 17 19 20 21 21 21 23 24 23 23 22
38 37 34 31 30 32 31 28 27 27 27 26 26 25 23 23 23 22 22 21 20 19 18 16 15 15 15 15 15 14 15 14 15 15 16 17 19 20 23 25 26 25 22
30 32 31 35 36 36 35 34 34 32 30 30 30 29 29 27 26 25 25 25 23 23 22 21 19 18 17 17 17 17 18 17 17 17 17 18 19 22 24 26 27 29 27
27 25 30 34 35 35 37 38 37 35 34 34 32 32 32 31 30 29 28 29 29 28 26 25 23 22 21 21 20 21 21 21 21 22 22 22 23 25 27 28 28 29 26
30 28 23 24 30 35 37 36 35 35 36 35 34 34 34 34 33 32 32 33 34 33 32 30 29 27 26 25 25 25 24 23 23 24 24 23 24 25 26 29 27 27 25
34 33 30 26 20 25 35 37 35 37 36 35 35 36 36 34 34 34 35 37 39 38 36 35 33 32 30 29 31 30 29 27 27 27 27 26 26 26 27 28 25 27 25
30 39 36 35 35 34 30 38 39 37 37 37 36 33 33 34 34 34 36 38 41 42 41 39 37 36 34 33 33 33 33 29 30 30 30 30 29 28 28 29 28 27 26
23 25 37 38 38 37 32 34 42 42 41 41 39 35 32 31 32 34 36 38 39 41 42 42 41 38 37 36 35 36 34 32 33 34 33 31 31 29 29 29 29 29 28
21 23 24 29 33 38 36 34 38 39 39 40 39 35 31 28 28 29 32 34 35 38 40 40 40 38 37 38 40 38 37 37 37 36 35 32 30 29 30 31 31 30 30
20 20 20 23 31 41 34 38 40 37 36 37 39 37 33 31 30 29 29 30 33 36 36 36 36 36 36 38 41 39 39 40 39 38 36 33 31 30 30 32 31 31 31
30 29 23 20 19 18 24 39 38 41 38 34 34 34 31 32 34 33 32 30 29 32 33 32 33 35 36 38 39 39 40 40 39 39 36 33 32 31 31 32 32 32 33
37 35 32 27 25 21 17 22 37 35 35 38 36 36 30 30 29 30 32 34 35 31 30 32 35 36 37 36 36 37 38 39 39 37 36 34 34 34 32 33 34 34 35
38 39 38 36 35 32 25 23 28 27 36 32 37 37 38 32 30 32 32 34 37 38 37 35 31 32 34 34 34 34 34 35 36 37 36 35 35 34 34 34 36 37 37
43 39 41 42 39 37 34 35 30 25 32 41 40 44 49 38 36 34 32 33 33 35 38 39 38 37 32 31 30 30 29 29 31 34 34 34 34 34 34 34 36 38 39
47 44 40 40 44 40 41 38 33 25 36 31 40 42 41 48 38 36 35 35 34 35 34 36 38 39 36 33 31 30 28 27 29 29 32 33 34 34 34 34 35 38 39
49 48 44 41 39 40 47 45 38 37 26 27 31 33 37 42 42 35 33 31 34 32 31 33 36 38 39 38 37 36 36 37 36 35 34 34 36 36 34 34 36 36 38
53 49 50 46 42 39 39 49 54 48 38 35 32 28 37 38 43 43 37 33 38 35 35 33 34 35 36 39 41 43 45 43 40 40 38 37 37 38 35 34 35 34 33
52 52 49 52 49 44 42 43 45 51 39 44 36 32 31 40 39 42 42 37 38 37 34 36 39 36 36 37 35 33 37 41 43 44 44 43 41 38 36 34 32 33 35
48 50 51 50 53 51 47 44 47 48 52 48 45 39 33 36 40 45 40 34 32 34 44 34 36 39 40 41 38 35 36 38 39 39 43 43 42 39 36 34 33 34 37
39 45 50 50 51 52 50 47 44 43 50 54 50 44 41 35 36 39 41 43 38 43 37 41 42 42 43 41 39 36 36 37 40 39 40 40 41 39 36 36 39 45 45
38 40 44 48 48 49 51 51 48 46 50 55 49 48 45 43 38 40 40 40 40 39 41 44 44 45 44 43 42 40 42 38 41 35 38 38 39 41 41 43 46 48 50
31 37 36 38 42 45 46 46 46 42 46 51 47 43 46 43 41 42 42 42 43 44 44 45 45 44 44 43 44 47 42 40 35 43 43 42 41 45 45 44 47 49 52
19 22 29 32 33 36 36 37 38 38 36 37 37 35 40 41 40 42 43 43 45 45 42 41 42 36 38 42 40 38 34 36 36 38 40 42 43 42 43 47 50 54 54

GFSGL_700_spd_084.txt.gz
Wind_Speed
25 22 21 19 15 15 16 16 15 16 17 15 13 12 11 10 11 11 9 8 7 6 6 8 11 13 14 16 17 18 19 20 22 22 23 22 20 19 19 19 20 22 23
26 26 23 22 21 18 16 16 17 17 18 18 17 15 14 13 12 14 12 11 10 9 8 9 9 10 12 14 15 17 19 21 23 24 23 23 23 22 21 21 21 23 23
31 31 27 25 24 21 19 17 17 19 19 19 20 17 16 16 16 16 16 15 13 12 11 10 11 11 11 12 13 14 16 18 20 23 23 23 23 23 23 23 23 23 23
33 33 31 28 27 26 24 24 22 21 22 23 22 20 19 18 18 19 19 18 16 15 15 14 14 12 13 13 13 13 14 15 16 17 18 19 21 23 23 24 23 24 24
34 32 33 31 31 28 29 28 28 27 26 25 26 25 24 24 21 21 20 19 18 18 17 17 17 15 15 15 14 15 15 15 15 15 14 14 16 19 21 22 23 24 24
37 35 34 34 35 35 35 32 33 32 31 30 30 29 29 28 26 25 22 22 22 21 21 20 19 19 18 18 18 17 18 17 16 17 16 15 16 19 21 22 24 25 26
34 36 35 38 40 38 37 38 36 35 36 36 34 34 33 32 30 29 26 27 27 25 24 24 23 23 21 22 20 21 20 20 20 20 20 20 20 23 23 25 26 26 26
27 33 33 32 33 36 38 38 38 38 39 38 36 36 36 35 34 32 31 31 32 31 30 29 28 27 28 25 25 25 23 23 21 22 21 21 22 24 25 26 25 26 25
25 29 30 31 28 29 34 38 38 39 38 37 37 37 37 35 34 35 35 36 38 37 35 34 33 32 30 30 30 30 29 27 27 26 26 25 25 26 28 28 26 28 26
18 24 33 33 35 34 30 30 33 39 43 41 38 37 36 35 34 35 36 38 41 40 39 39 38 37 34 34 35 34 33 30 30 32 32 28 29 29 29 29 26 27 27
21 21 23 32 38 42 38 35 35 31 37 44 43 40 38 35 33 33 35 39 40 39 40 41 40 39 38 38 37 38 36 35 36 36 35 34 32 31 31 30 28 28 28
22 23 25 26 29 33 44 46 43 38 36 44 45 43 41 38 35 35 36 38 38 40 39 38 39 39 38 39 42 41 40 41 42 39 39 35 33 33 32 31 31 30 30
28 24 24 27 27 28 31 36 38 39 39 41 50 50 46 42 39 36 36 36 37 40 37 36 37 38 37 37 41 45 45 46 44 43 40 37 35 33 33 33 30 31 33
40 34 31 26 25 25 26 26 32 39 40 45 44 46 46 44 41 38 37 36 35 36 34 34 33 34 35 35 40 43 45 45 44 44 43 38 36 36 35 32 32 32 35
43 43 40 38 36 31 29 26 19 20 27 38 45 47 48 47 42 40 39 38 36 36 35 35 34 33 33 34 36 40 41 42 42 42 42 40 37 36 34 33 33 33 35
45 45 45 43 41 40 38 34 31 23 21 25 35 44 50 49 47 44 40 38 37 38 40 39 38 37 33 29 31 34 36 37 38 39 39 39 38 36 35 34 34 35 34
51 47 50 49 45 43 43 44 41 35 31 28 28 35 47 52 48 44 35 37 39 40 41 43 44 41 38 37 32 29 29 32 35 35 36 36 36 36 34 33 34 34 34
54 55 49 51 55 50 44 44 46 44 38 37 32 33 35 42 46 49 40 38 44 45 37 41 43 42 41 40 37 34 33 31 31 31 31 29 30 32 32 33 32 33 32
49 52 51 51 53 55 53 47 44 46 46 40 38 35 30 30 48 45 54 46 45 46 43 38 40 40 36 34 34 34 34 34 34 35 36 36 35 36 35 34 34 33 32
38 44 50 51 51 54 56 55 49 43 45 47 43 39 38 31 33 40 42 46 51 43 43 37 36 36 35 33 31 32 34 36 37 37 39 40 40 40 39 37 36 35 33
32 35 43 50 51 52 54 57 57 49 44 42 46 48 45 38 31 36 37 41 45 44 38 42 35 35 35 36 35 34 33 32 34 35 39 43 44 45 45 43 40 38 34
34 32 34 42 49 52 54 55 57 55 48 48 42 48 52 47 37 32 33 40 42 42 46 49 37 35 36 35 36 39 38 37 36 36 38 39 38 38 39 42 41 40 38
34 37 39 40 44 49 53 55 55 56 55 51 47 47 48 51 48 35 34 35 39 42 39 37 45 39 34 41 40 36 38 40 41 37 39 39 37 36 38 39 39 39 40
33 36 39 42 44 47 51 52 53 52 53 55 52 48 50 49 52 43 39 39 37 38 41 46 47 42 41 40 44 47 52 49 40 44 44 41 41 39 39 42 39 39 42
27 30 34 37 40 42 46 48 50 49 49 49 52 50 49 48 52 51 48 41 42 37 40 40 40 41 43 39 39 41 37 34 40 46 46 43 41 42 40 43 42 43 44
23 26 27 31 33 36 39 40 42 41 42 44 46 48 45 46 49 57 52 45 42 39 40 42 45 45 46 44 45 45 44 45 44 44 41 41 40 40 42 41 39 36 41

GFSGL_700_spd_087.txt.gz
Wind_Speed
23 22 20 18 15 14 14 15 15 15 14 16 15 11 8 7 6 7 7 9 6 5 5 5 9 12 12 13 12 14 16 18 20 21 22 24 22 20 20 20 20 20 22
27 26 24 23 22 19 16 15 16 16 16 17 16 14 12 10 8 8 9 10 8 8 8 8 7 8 10 12 14 16 17 20 22 24 24 25 25 24 22 21 21 21 22
28 29 28 26 24 22 20 18 17 18 18 18 18 18 16 15 13 12 12 12 12 11 10 11 10 9 9 11 13 15 16 20 21 22 23 23 23 24 25 23 22 22 21
28 28 31 30 26 24 25 23 21 21 21 21 21 20 19 18 17 16 16 16 15 14 14 13 12 11 11 11 12 12 14 15 15 16 16 16 17 19 22 22 21 21 22
38 27 28 34 31 30 29 29 25 27 25 24 24 24 23 22 20 19 18 18 17 18 17 16 15 12 13 13 13 12 13 14 15 14 14 12 13 16 16 18 20 21 22
35 40 38 34 37 36 31 32 30 32 27 29 29 28 27 26 24 23 21 21 20 19 21 20 18 17 15 15 15 15 15 16 15 16 15 16 16 17 18 20 21 23 25
37 37 38 38 37 37 36 35 35 32 33 34 31 31 32 30 28 27 26 25 26 25 24 23 23 22 18 19 18 18 19 18 17 18 18 17 18 19 21 21 23 25 24
18 30 37 36 37 36 37 37 37 38 36 35 33 33 34 33 33 31 30 30 30 30 30 28 27 25 24 24 21 22 22 22 21 21 20 18 19 21 23 23 24 26 25
12 17 25 41 41 40 39 41 42 41 42 41 41 39 36 33 33 33 33 35 35 34 33 33 32 31 28 28 30 27 26 26 25 25 24 23 23 24 26 27 25 25 24
19 17 19 27 36 37 40 37 36 38 38 38 39 41 39 34 34 35 35 37 38 37 36 36 36 36 33 32 33 34 33 29 30 30 32 30 28 27 28 29 28 28 25
23 23 22 22 23 34 36 37 37 34 35 35 37 42 42 41 37 36 36 38 39 39 39 38 37 36 37 37 37 37 35 34 36 36 35 35 34 33 31 28 27 28 26
30 28 26 26 26 25 29 36 39 40 39 36 37 37 38 42 42 40 38 38 37 40 40 39 39 40 39 37 38 39 39 39 41 41 40 38 37 36 36 35 35 31 27
38 36 34 32 29 29 29 28 30 37 47 47 45 42 40 40 42 41 41 41 39 42 41 40 40 42 44 42 37 37 39 41 45 46 43 40 39 39 38 37 36 38 37
37 40 40 38 36 34 32 31 32 31 33 44 50 48 46 43 41 46 45 45 41 43 43 43 41 40 41 40 41 39 41 40 42 45 44 42 40 40 40 38 37 36 37
41 39 40 43 42 41 39 36 32 30 31 30 33 42 46 47 46 43 50 51 50 45 45 45 40 39 37 37 38 39 40 40 39 40 42 41 40 39 38 37 37 36 38
43 43 43 43 45 47 46 45 44 39 34 30 30 31 31 41 46 48 49 50 50 47 47 44 38 39 39 37 37 38 38 40 38 35 32 35 37 38 38 36 35 36 35
40 41 45 45 47 47 50 50 50 48 46 41 38 36 33 30 27 38 44 50 53 54 48 48 46 41 42 41 40 40 38 38 34 29 28 30 31 32 32 32 32 32 33
41 42 43 46 49 50 50 49 52 54 53 50 47 44 41 39 36 34 35 43 50 55 54 49 45 43 40 45 41 43 41 41 39 35 35 33 32 31 31 30 30 30 29
40 43 44 45 48 49 52 54 52 51 56 57 53 49 49 46 42 37 37 41 44 51 50 45 37 37 39 38 46 42 40 40 39 38 35 34 33 32 31 31 32 32 32
37 39 40 43 46 46 48 52 53 54 51 55 57 52 51 50 46 41 40 39 37 45 41 54 43 42 41 38 41 41 40 35 34 34 34 34 34 34 33 33 35 37 38
35 35 38 39 43 43 42 46 50 51 53 50 53 57 55 48 49 48 45 43 35 36 38 40 53 54 48 45 45 44 40 35 33 32 32 32 32 32 33 35 37 37 38
36 35 35 37 38 40 39 40 44 48 51 51 52 54 61 52 47 49 50 47 41 36 39 37 38 43 43 45 40 40 34 35 34 33 34 33 31 30 31 32 34 35 36
35 35 35 37 38 40 41 37 39 41 47 50 52 56 56 60 54 48 47 50 49 42 37 36 35 41 41 43 42 40 38 36 29 30 30 33 34 37 36 29 33 34 34
33 33 34 35 38 39 40 41 41 44 44 46 52 56 57 58 60 55 50 45 48 48 40 38 35 39 42 40 44 50 46 47 32 36 38 41 46 38 43 44 38 37 37
30 29 30 32 35 37 37 39 42 45 47 49 48 54 56 56 56 59 54 50 47 48 44 42 36 35 38 40 42 36 35 35 33 35 37 41 41 47 52 46 40 44 43
30 26 26 28 31 33 36 38 41 43 44 47 49 49 52 52 51 51 54 51 50 48 46 45 40 35 37 39 37 38 39 41 41 38 40 40 43 37 37 36 39 45 45

GFSGL_700_spd_090.txt.gz
Wind_Speed
25 23 21 17 16 15 15 13 12 11 11 11 9 9 5 6 4 4 4 4 2 2 2 2 7 13 14 12 11 12 13 16 22 23 23 23 23 22 20 20 21 20 19
27 25 23 22 20 18 15 14 13 11 12 13 11 11 9 11 8 7 6 6 5 5 5 5 4 7 10 12 12 13 14 13 15 17 18 20 22 23 24 21 19 20 20
31 27 25 25 24 21 18 16 15 14 13 14 15 14 14 13 13 10 10 9 8 8 8 7 7 6 7 10 11 11 13 15 17 17 15 16 17 19 20 21 20 19 19
35 32 29 26 24 23 21 20 18 16 15 15 15 16 15 16 14 13 12 12 11 11 10 10 9 9 8 9 9 9 11 13 12 12 12 14 14 11 14 15 14 14 17
25 24 26 31 29 27 24 24 21 21 18 18 19 18 18 18 18 16 15 14 14 14 14 12 12 11 10 11 11 10 11 11 12 13 13 12 12 12 13 14 16 17 17
28 29 26 30 15 24 30 28 25 24 24 23 21 21 22 21 20 20 19 16 16 16 16 16 16 16 14 13 13 13 13 13 13 14 14 14 13 16 16 18 19 20 18
29 30 30 30 25 26 28 30 28 26 27 28 26 28 26 24 23 22 22 23 21 21 20 20 20 20 19 19 18 17 16 17 16 16 16 14 16 16 19 18 19 21 20
23 29 32 32 34 35 33 28 29 31 30 30 29 28 29 26 26 26 26 27 27 26 26 25 24 23 22 23 21 21 21 20 20 21 20 17 18 18 21 22 23 23 21
11 12 19 26 35 35 35 34 33 33 32 33 33 33 34 32 31 30 30 30 31 31 29 28 29 29 25 24 28 29 28 24 23 23 25 23 21 21 23 26 25 27 24
18 18 17 15 18 26 35 36 34 35 35 36 37 39 38 37 35 34 34 34 35 34 34 32 31 31 31 32 32 29 32 31 32 30 29 29 26 25 25 26 25 27 27
22 22 21 21 21 20 23 31 35 40 38 35 36 36 37 34 33 33 35 37 37 36 37 36 35 33 32 34 35 37 34 32 35 36 35 33 33 31 29 29 29 30 27
27 28 28 27 26 25 25 24 27 34 37 36 36 35 33 34 35 33 36 38 38 38 37 36 35 36 36 35 36 37 36 35 36 39 39 37 36 36 34 33 33 32 30
30 31 31 32 33 33 32 31 29 29 31 37 40 40 40 39 38 37 37 36 40 40 40 41 40 39 39 40 39 38 36 36 37 40 41 41 39 38 37 36 33 34 34
31 32 33 35 36 37 39 38 37 34 35 34 31 37 43 45 45 44 45 44 42 42 41 41 41 40 40 41 42 42 41 41 40 39 40 40 40 39 38 36 35 32 33
22 25 30 34 38 41 41 42 43 41 39 38 37 36 35 34 35 42 47 50 48 45 42 48 50 45 42 39 40 41 41 41 42 39 39 39 39 38 35 34 34 32 33
25 26 26 27 32 38 42 46 44 46 48 47 42 40 38 36 32 32 37 45 49 51 50 47 48 49 46 43 39 40 39 39 40 41 41 39 36 37 34 32 32 31 32
28 29 29 30 31 33 36 43 49 48 47 52 51 48 45 40 37 36 34 32 34 43 48 49 50 47 45 43 43 42 41 39 39 42 43 36 29 25 27 28 28 29 29
33 35 36 36 37 37 38 41 44 48 52 53 53 56 55 50 46 45 44 39 36 34 33 37 42 43 46 47 45 46 49 46 44 41 42 42 49 36 33 31 26 26 26
35 37 38 39 41 44 45 44 45 47 49 52 54 52 53 57 54 51 50 48 46 41 38 37 36 36 37 43 46 49 52 49 46 46 43 42 43 40 40 36 30 27 27
33 36 38 40 42 45 48 49 48 48 50 51 51 53 54 52 54 57 55 52 49 47 44 40 37 33 37 38 43 42 37 37 38 46 52 49 48 43 37 33 31 31 30
33 34 35 38 41 43 47 50 48 48 49 50 52 51 54 56 54 52 52 53 52 46 48 47 41 36 35 39 39 47 47 39 46 43 46 46 45 35 36 33 32 31 31
35 37 38 39 40 43 45 47 48 47 47 47 48 50 50 54 56 56 55 54 52 49 47 49 47 44 38 39 39 40 49 54 56 46 45 49 46 52 52 30 35 30 25
36 38 39 40 41 42 43 45 47 47 46 46 45 47 49 53 53 55 58 51 47 51 50 46 49 48 44 41 43 41 40 40 42 44 50 46 43 38 33 26 34 19 23
37 39 41 41 39 38 39 41 43 44 46 46 47 45 45 49 53 53 52 54 53 49 51 51 46 48 50 45 39 41 41 39 37 40 40 38 44 41 43 36 32 31 32
36 37 40 36 34 33 33 34 36 39 40 42 45 47 47 48 46 48 51 52 53 52 50 52 53 45 45 50 43 39 40 38 37 38 42 45 42 39 35 32 30 27 30
31 32 38 38 32 30 30 30 31 33 35 38 42 43 46 48 48 48 49 48 50 51 52 50 52 52 47 43 43 39 37 35 35 42 37 33 31 30 30 33 32 34 36

GFSGL_700_spd_093.txt.gz
Wind_Speed
19 18 18 18 17 16 15 16 13 13 9 6 9 8 6 4 4 5 4 6 4 5 4 4 11 13 11 12 13 20 23 25 24 22 21 21 22 20 20 19 16 16 16
24 25 22 19 18 16 15 15 14 14 13 10 10 9 8 7 5 2 3 4 3 2 2 4 5 7 10 13 11 11 12 11 14 18 24 25 22 19 18 16 15 14 14
30 28 27 24 20 17 14 13 13 13 12 11 10 10 10 9 8 7 7 6 6 6 5 4 4 5 7 9 10 10 11 12 13 12 9 11 11 14 14 15 12 10 11
31 33 30 25 24 20 17 17 16 14 13 12 11 10 11 10 7 8 10 10 10 8 8 7 6 7 7 9 10 10 11 12 12 11 10 10 11 12 12 10 9 10 12
33 26 27 30 24 24 21 20 19 19 17 15 14 12 10 11 10 10 10 10 11 11 10 10 10 10 10 12 10 10 10 11 11 11 10 9 9 11 11 13 14 14 14
8 13 19 22 27 23 34 19 21 20 20 19 17 15 13 13 13 13 13 13 13 12 12 13 13 12 11 11 11 13 14 13 13 14 13 12 11 13 15 15 16 16 13
18 17 16 20 23 14 11 23 25 24 23 22 21 20 20 19 18 16 16 16 15 15 16 15 16 15 15 16 15 15 17 16 15 16 15 14 14 14 18 18 18 18 17
17 23 25 24 23 23 24 25 22 26 24 24 23 24 22 20 20 21 21 21 20 19 19 19 19 19 19 20 21 20 18 19 18 20 20 17 18 18 20 22 22 20 17
5 5 8 17 25 27 27 29 28 29 28 28 25 27 28 27 25 25 25 25 26 26 24 23 23 23 22 22 24 25 24 22 21 23 24 24 24 23 24 26 24 25 21
11 11 11 12 12 14 20 26 36 33 32 30 29 31 30 31 31 32 31 31 29 29 28 27 27 27 27 27 28 28 29 26 27 29 28 26 26 27 27 28 27 27 25
18 18 17 17 16 16 16 16 18 24 31 33 31 33 33 34 32 30 30 29 28 28 29 29 30 30 31 31 32 33 33 32 31 31 32 32 31 31 30 31 32 32 31
21 21 20 20 20 20 20 21 22 21 20 23 28 32 33 34 31 30 29 30 31 30 28 29 32 33 32 33 33 34 36 37 36 36 37 36 34 32 31 32 33 34 33
24 25 25 25 25 24 25 25 25 26 26 26 26 24 28 33 35 35 32 32 32 35 32 30 29 32 34 34 34 34 34 36 37 37 36 36 36 36 36 35 34 33 34
23 25 27 28 28 28 28 29 29 30 31 31 32 32 29 28 32 38 40 40 41 39 39 38 38 35 35 35 34 32 34 36 39 40 38 36 36 36 35 34 35 34 35
19 20 20 20 20 22 25 28 30 31 32 33 35 37 37 35 33 34 36 38 41 45 46 45 45 43 42 39 40 39 37 38 39 39 40 38 36 35 34 32 34 35 36
17 19 19 20 21 22 23 23 25 27 29 33 36 38 39 42 41 40 38 39 39 39 40 44 48 48 47 46 45 40 41 45 42 38 38 37 36 36 34 32 34 33 34
21 21 22 23 24 25 26 27 27 26 28 29 31 36 41 42 44 46 44 44 41 41 40 39 38 38 41 43 47 46 42 41 42 45 42 39 36 37 37 36 34 31 33
25 26 27 28 30 31 33 33 34 36 35 33 33 36 37 39 44 48 47 51 50 49 45 43 41 37 35 33 36 40 43 43 44 44 45 44 41 41 40 38 38 39 43
28 30 32 33 35 36 37 37 38 39 39 40 41 41 42 43 43 45 51 55 54 55 55 51 49 46 43 39 37 35 36 39 40 45 47 49 47 47 45 46 43 45 38
29 31 34 36 38 39 40 42 42 42 44 45 45 45 47 49 49 47 49 53 59 60 58 57 54 53 51 47 42 39 36 35 36 40 42 43 44 48 46 45 47 49 48
26 28 31 34 37 39 41 41 43 45 46 47 48 48 49 52 53 53 52 54 57 62 62 57 58 57 54 51 49 44 42 35 36 36 40 41 39 41 38 37 41 43 50
23 26 31 35 37 38 40 42 43 44 46 49 50 51 51 52 53 55 56 57 59 60 63 62 54 54 57 55 54 51 48 41 39 37 37 42 48 49 48 46 43 47 48
25 28 30 33 35 37 39 42 44 46 47 50 52 53 53 54 54 53 55 57 59 60 60 62 56 53 52 56 54 53 52 48 45 43 42 39 39 41 44 47 49 52 49
27 29 32 34 35 38 41 43 44 45 46 48 49 50 51 52 53 53 52 55 57 58 58 60 54 54 51 50 54 53 51 51 48 44 43 42 41 39 39 40 40 39 38
27 30 31 32 33 37 41 41 39 39 40 41 42 44 45 46 48 50 50 52 52 52 54 57 56 54 53 51 51 53 50 48 49 47 44 44 43 42 38 37 39 34 30
30 29 28 32 32 37 39 40 37 34 33 35 37 38 39 41 43 45 46 48 51 50 49 50 53 54 52 53 51 50 51 47 43 45 47 44 42 43 42 37 38 35 36

GFSGL_700_spd_096.txt.gz
Wind_Speed
18 20 20 17 15 17 17 16 14 12 10 9 9 9 7 7 5 6 5 7 5 6 9 14 25 25 26 23 25 27 25 23 23 23 23 22 22 21 23 20 21 19 16
23 20 19 19 18 16 16 17 15 13 14 11 10 9 12 10 7 5 7 6 6 5 6 7 13 16 17 17 16 15 20 23 22 22 24 27 28 30 25 22 18 17 15
27 24 22 20 18 17 15 15 15 13 13 13 11 11 11 11 10 10 10 8 7 6 6 6 8 8 9 10 11 11 11 14 14 13 12 14 17 17 17 15 15 10 9
32 25 25 23 23 21 20 19 17 15 14 13 12 11 12 12 12 12 12 12 8 9 10 9 9 8 10 11 11 11 12 12 12 12 9 9 10 13 11 10 11 11 11
19 28 32 31 29 27 26 23 21 20 18 16 14 13 12 12 12 13 13 13 12 11 11 12 12 12 11 11 13 12 13 13 13 13 11 10 10 12 13 14 14 13 12
8 24 32 31 30 30 29 25 26 24 23 19 17 15 14 13 13 13 13 13 14 14 14 13 13 14 13 13 12 14 15 15 15 15 14 13 13 14 16 17 17 15 12
14 13 15 14 12 31 32 30 34 26 26 23 20 20 18 17 16 16 16 17 17 17 17 17 17 16 16 16 16 17 16 16 17 16 16 15 15 16 19 20 20 19 17
17 18 13 18 18 3 17 14 26 25 27 24 25 24 23 23 21 21 21 21 20 18 18 19 19 19 19 20 20 21 19 19 19 21 21 18 19 19 22 24 24 23 20
4 5 8 9 14 18 19 19 16 25 22 24 28 26 26 25 24 24 24 24 23 23 23 24 22 21 20 22 25 25 25 24 24 25 26 26 25 25 26 28 26 26 24
8 8 7 7 8 9 17 24 28 28 24 24 29 30 29 28 28 28 28 28 28 29 29 30 28 28 26 26 27 28 30 28 29 30 30 31 30 30 31 32 31 31 30
14 14 15 15 14 14 14 15 16 18 22 33 35 32 33 34 33 32 31 31 32 32 31 29 29 28 29 28 28 27 28 30 30 31 30 30 30 30 30 30 30 33 34
19 20 21 21 21 21 22 22 22 22 20 19 21 26 29 32 34 35 34 34 32 31 31 30 30 29 29 30 30 29 30 31 30 30 30 30 29 29 27 29 31 32 32
25 25 24 24 25 25 25 26 26 27 27 28 27 26 25 25 26 29 31 33 35 34 33 32 34 33 32 31 32 29 30 32 33 33 31 29 30 31 30 30 31 31 32
27 28 27 27 28 28 29 29 30 31 31 30 31 31 31 29 30 30 29 30 33 36 37 38 39 38 36 38 35 35 33 32 33 34 33 30 30 30 30 28 30 30 33
22 23 24 24 24 23 24 26 28 31 32 31 32 32 34 34 34 35 36 35 35 36 35 37 39 43 45 45 45 43 41 38 37 39 39 38 37 35 32 31 31 30 33
18 19 20 21 22 22 21 22 23 23 24 25 26 29 31 35 37 37 37 39 40 41 40 40 41 40 39 41 44 46 47 47 44 45 43 42 42 40 36 33 33 32 33
17 18 19 20 22 22 24 24 23 26 28 28 28 30 31 32 32 34 36 37 40 42 44 45 46 45 44 44 42 42 43 42 44 45 46 46 43 40 41 40 39 37 35
18 18 20 22 24 25 27 29 31 33 33 34 37 39 39 39 40 39 38 37 37 38 40 44 47 48 50 50 48 45 43 40 38 38 41 43 46 44 41 41 42 41 37
19 20 21 23 25 27 30 32 35 37 38 41 41 41 44 45 45 47 47 46 45 44 44 45 45 48 51 51 53 54 51 47 44 41 39 40 41 43 43 44 47 47 47
19 21 23 24 25 27 29 31 33 35 38 41 44 46 47 48 49 51 52 53 53 53 53 54 54 52 50 52 52 55 57 56 52 48 44 42 40 39 42 43 43 44 46
18 20 21 23 25 26 28 29 30 33 36 38 41 43 45 49 50 52 52 54 56 58 58 58 60 60 58 55 54 56 56 58 59 55 51 47 44 41 39 42 44 43 36
20 21 22 23 26 28 31 32 34 35 37 39 42 43 46 48 50 52 53 53 55 58 59 61 63 65 64 63 59 58 59 56 57 60 57 53 49 47 41 40 42 47 45
18 21 24 27 30 32 35 38 40 42 43 43 44 45 47 48 51 53 54 55 56 57 58 61 63 64 65 66 65 62 60 59 55 57 59 58 54 51 49 44 41 41 42
18 22 24 26 29 31 34 37 40 43 46 48 49 50 50 49 49 50 51 51 52 54 57 58 60 62 62 61 64 64 59 58 58 54 56 57 56 52 52 51 44 42 41
18 21 23 26 29 31 34 34 38 41 42 44 45 46 47 48 48 48 48 48 48 49 51 54 55 56 58 58 59 60 60 58 57 54 52 53 54 52 51 51 48 42 42
18 20 23 26 30 31 33 35 36 39 41 42 42 41 41 42 43 44 45 46 46 47 48 49 51 52 54 56 55 52 54 54 55 56 52 49 51 50 48 49 48 46 42

GFSGL_700_spd_102.txt.gz
Wind_Speed
17 14 18 19 20 21 17 15 14 11 14 10 10 10 9 8 7 6 6 5 7 8 12 15 16 20 22 22 21 20 21 22 23 23 25 26 25 27 27 27 26 25 22
19 21 20 23 23 22 20 20 19 14 11 14 13 11 12 11 9 8 9 9 8 8 8 8 12 16 18 21 21 21 22 23 24 22 20 20 21 22 23 21 19 19 18
27 28 24 23 25 25 23 21 19 20 17 17 16 15 13 14 12 12 10 10 10 10 11 10 12 11 11 14 16 18 19 20 20 19 18 16 17 20 20 19 17 15 13
29 28 28 25 26 25 23 22 21 18 19 19 19 19 17 17 15 14 13 12 12 12 12 13 15 13 12 14 14 14 16 16 17 17 16 15 14 15 18 18 16 16 14
19 27 29 27 25 25 24 23 22 21 21 22 20 20 20 18 17 18 16 16 16 14 15 15 16 17 16 17 17 16 18 17 18 17 15 15 14 15 19 20 19 18 15
7 13 24 19 23 31 28 26 25 23 22 21 20 20 19 18 18 17 17 16 16 16 15 15 16 18 19 19 20 20 21 22 20 20 19 18 17 19 21 23 23 22 17
12 11 17 15 20 31 30 27 25 26 25 24 23 24 22 21 19 19 18 17 17 17 17 17 17 17 19 20 21 21 21 22 22 23 22 21 22 21 25 24 26 26 25
19 17 12 17 27 24 34 31 35 31 29 29 26 25 26 25 25 24 22 21 21 22 22 22 22 21 21 24 24 24 23 24 24 26 27 25 25 24 26 28 28 28 27
21 20 16 7 11 9 13 16 19 25 40 39 30 26 25 24 28 26 25 25 25 26 26 26 26 26 25 25 28 28 28 26 29 30 30 29 30 29 30 30 29 32 31
14 16 17 17 18 17 19 20 13 14 16 24 45 29 27 24 26 29 28 27 27 28 27 27 27 28 28 29 30 32 32 32 32 32 32 32 33 32 33 34 34 35 34
12 12 13 15 16 16 14 14 19 20 18 16 30 28 31 25 38 34 27 26 32 32 30 30 31 33 33 33 34 34 36 35 34 34 33 32 31 32 32 34 35 36 37
12 13 14 15 15 15 15 15 17 19 19 18 24 32 32 35 32 35 37 29 35 37 35 33 33 34 35 35 35 33 33 34 34 33 32 30 31 32 32 32 33 35 36
19 21 21 22 22 21 22 22 22 21 21 22 24 26 28 28 27 31 37 41 42 32 31 31 32 35 37 38 38 36 35 35 36 36 36 35 33 31 31 31 31 34 33
22 22 23 24 26 26 26 26 26 26 26 26 27 29 31 32 32 33 33 34 35 34 33 33 32 31 32 34 35 35 36 37 38 39 39 38 38 38 37 38 36 35 34
25 26 26 26 25 24 25 26 27 28 29 30 30 30 32 33 33 33 34 35 36 36 37 37 37 38 38 38 38 38 38 38 39 40 40 41 41 42 40 40 41 40 42
23 23 23 23 23 23 22 21 21 23 24 26 26 27 28 27 26 27 27 29 31 32 33 35 35 37 38 39 40 41 42 43 44 44 43 44 43 43 40 37 37 38 39
19 19 19 19 19 19 19 19 19 18 20 22 24 25 26 27 28 28 29 30 32 33 34 34 34 34 36 36 38 39 40 41 43 44 44 44 45 44 44 43 43 42 40
19 18 18 18 18 18 18 18 19 20 22 23 24 25 27 30 33 34 35 36 37 39 40 41 41 42 43 43 43 43 44 44 43 42 41 41 42 44 44 44 44 44 45
19 19 19 19 20 20 21 22 22 23 24 26 28 30 30 31 33 36 39 41 43 44 45 46 48 49 50 51 51 52 53 52 52 51 50 49 47 48 47 47 46 45 46
21 21 21 21 22 23 23 24 26 27 28 29 30 31 32 34 35 36 37 39 40 43 45 48 50 51 54 56 58 58 59 59 58 58 59 58 56 56 55 53 52 51 49
22 22 22 22 22 23 24 25 26 27 28 30 31 33 35 36 37 39 41 43 44 46 48 50 51 53 55 56 58 60 63 65 65 64 63 63 64 63 62 62 60 58 56
22 22 22 23 23 24 24 25 26 28 28 29 30 31 32 34 36 39 41 42 45 48 52 55 58 60 62 64 64 65 65 67 69 70 70 69 68 68 68 68 66 65 64
23 23 24 24 24 25 25 25 26 27 28 29 30 32 33 36 38 41 44 47 50 54 57 59 62 63 65 67 69 71 72 73 73 74 74 74 72 72 71 72 70 68 67
23 23 24 25 24 25 25 25 26 26 27 28 31 32 35 38 41 43 45 48 50 53 56 57 58 61 63 63 64 65 67 69 71 74 76 77 76 73 71 70 70 70 68
25 24 24 25 24 24 24 25 26 27 28 30 32 33 36 38 39 41 43 47 50 50 50 51 51 52 54 56 56 57 59 60 62 63 66 69 71 71 69 68 65 63 63
25 25 26 27 25 25 25 26 26 27 29 29 31 33 35 35 35 37 40 44 47 47 48 48 47 47 47 48 49 50 51 53 54 55 57 59 60 60 60 60 59 59 58

GFSGL_700_spd_105.txt.gz
Wind_Speed
18 14 16 18 19 19 20 16 14 13 13 12 10 11 8 7 6 6 7 7 8 9 10 13 15 16 19 20 20 20 19 19 20 21 22 23 22 24 24 24 23 22 20
19 21 19 21 22 22 22 20 17 16 14 16 13 12 11 10 9 9 9 8 8 8 7 7 11 14 15 16 18 20 22 22 22 20 20 20 19 21 22 21 19 18 17
32 27 27 23 23 24 25 23 20 18 16 16 16 15 14 13 13 11 11 10 9 9 10 9 9 10 10 11 13 14 17 19 19 18 17 17 16 18 19 20 18 18 18
33 35 34 29 25 27 26 24 21 20 21 20 19 18 19 15 15 15 15 14 12 11 10 11 11 11 12 13 13 13 13 14 16 18 18 17 17 18 20 20 16 18 18
23 38 35 33 29 27 27 25 23 22 21 20 21 21 19 19 17 18 16 16 15 14 13 13 14 14 14 16 17 17 17 17 17 18 19 18 18 19 22 23 22 20 18
7 21 31 26 30 27 26 26 24 23 22 21 21 22 22 21 19 18 17 17 17 16 16 17 16 15 17 17 19 17 19 20 20 22 21 19 19 21 23 23 25 24 21
7 6 8 13 22 29 26 28 25 22 22 22 21 22 23 21 19 18 18 18 18 17 16 16 17 19 18 18 20 20 19 20 23 23 24 23 24 23 26 25 26 27 27
15 14 12 15 10 12 21 23 30 27 21 20 22 24 25 23 22 22 22 22 22 21 21 21 21 23 22 22 22 22 23 23 24 26 27 26 28 28 28 29 29 30 29
21 18 16 13 12 11 15 19 21 34 32 20 28 32 31 27 25 23 23 23 24 25 24 24 25 26 26 26 26 26 26 27 27 28 30 30 31 31 33 33 32 33 33
21 23 21 17 12 11 9 8 15 22 20 25 22 22 41 33 24 22 22 23 25 26 26 27 27 28 29 28 28 28 29 29 30 31 32 34 35 34 33 35 35 34 32
17 18 20 21 19 16 16 19 20 23 23 24 22 22 24 45 31 22 26 27 28 29 29 30 29 29 30 32 32 32 33 32 33 33 33 34 32 31 32 32 34 35 36
11 12 13 13 13 13 13 12 13 17 20 21 21 17 16 30 22 26 32 33 32 33 33 34 35 31 32 33 34 35 36 35 35 35 34 34 33 32 32 31 31 31 31
12 12 13 14 15 15 16 16 17 17 19 21 20 19 17 28 34 28 27 31 32 33 34 35 41 42 40 33 32 34 35 37 38 38 37 37 36 36 36 37 35 35 34
15 15 15 17 18 19 19 20 21 22 22 22 23 24 25 27 29 30 31 33 34 32 33 33 35 37 39 39 35 34 35 34 34 34 35 35 36 37 38 39 38 39 40
14 16 20 20 21 21 21 23 24 25 26 26 26 25 26 27 29 31 32 33 33 34 34 35 34 34 35 36 37 36 37 37 38 38 39 39 40 40 40 39 40 39 38
15 17 18 19 21 22 22 23 24 24 25 25 26 26 25 25 23 23 25 26 27 26 27 27 28 29 29 30 31 32 33 35 36 37 38 39 41 42 42 42 42 42 41
15 17 19 19 19 19 19 19 19 20 20 21 22 23 23 23 23 24 24 25 25 27 29 30 32 32 34 34 35 35 36 37 37 37 38 39 39 40 41 42 42 43 43
18 19 18 18 18 17 17 17 17 17 18 18 20 21 23 24 26 27 28 30 32 33 34 34 35 36 37 38 40 41 41 42 44 44 44 45 45 45 44 45 45 45 45
19 18 17 16 16 16 16 17 18 18 19 20 21 23 25 26 27 29 31 32 33 35 37 38 40 41 42 43 44 46 47 48 50 51 52 52 52 52 52 51 52 52 53
19 18 18 18 18 18 19 19 20 21 21 22 23 25 26 28 29 30 31 32 33 34 35 37 39 41 43 46 48 50 52 53 55 57 58 59 59 59 58 59 59 58 57
21 21 21 22 22 22 22 22 22 23 24 26 27 29 30 31 32 33 34 35 36 37 38 40 41 43 45 46 48 50 53 56 58 60 61 64 66 66 65 64 63 64 64
23 23 23 23 23 23 23 23 24 25 26 27 28 29 30 30 31 32 34 36 37 39 41 44 47 50 54 57 59 61 63 65 66 67 68 69 69 69 70 69 69 68 69
22 22 22 22 23 23 24 24 24 25 26 26 27 28 29 29 30 31 32 35 37 40 43 46 49 52 55 60 62 63 64 66 67 68 69 71 73 74 74 73 71 70 69
22 21 22 22 23 24 24 25 25 25 26 27 28 28 28 29 30 31 33 36 39 42 44 46 49 53 56 57 58 59 61 62 63 64 65 68 70 71 72 72 72 70 67
28 26 26 24 24 25 25 25 26 27 26 27 27 27 28 28 28 31 34 37 39 39 40 42 46 50 50 51 52 52 53 53 54 56 58 60 61 62 64 65 64 64 63
33 32 30 27 25 26 27 27 28 28 28 27 26 27 27 29 31 32 34 36 37 38 39 40 44 48 50 49 48 48 48 48 48 48 49 50 52 52 53 55 55 55 55

GFSGL_700_spd_108.txt.gz
Wind_Speed
16 14 14 16 18 18 17 16 13 13 13 11 10 9 7 8 8 7 6 7 7 9 11 12 13 14 14 16 18 19 20 22 22 23 24 27 25 25 23 22 21 21 19
23 20 17 15 18 19 19 20 16 12 14 13 13 11 11 10 10 8 8 7 7 7 7 7 8 9 10 12 14 16 17 19 20 21 19 20 20 21 21 20 20 19 19
29 27 24 23 19 20 21 22 19 16 14 14 16 14 12 13 11 11 9 8 9 8 9 10 8 7 8 8 8 10 13 13 13 13 14 16 17 18 18 19 18 18 18
37 37 33 28 25 23 22 24 23 21 19 18 15 15 15 14 13 12 11 11 11 11 10 9 9 10 10 10 10 10 11 12 14 14 16 16 16 17 18 19 18 18 18
35 37 35 37 34 28 25 22 24 23 21 21 21 20 19 17 18 14 14 14 15 15 14 13 13 12 13 14 13 14 14 14 15 16 16 17 16 18 22 22 23 22 20
27 35 43 32 42 35 32 27 25 24 22 21 21 20 21 21 17 18 16 16 16 17 17 16 16 17 16 16 16 15 15 16 16 17 18 19 20 21 24 25 26 27 26
10 16 27 31 29 44 34 27 23 23 23 22 21 21 20 20 19 18 17 17 17 16 17 17 18 18 16 16 17 17 18 19 20 20 20 21 22 22 24 25 26 28 28
9 6 4 6 6 17 30 31 26 24 24 24 22 20 18 18 19 19 19 20 20 20 20 20 20 20 20 20 21 20 21 22 24 24 25 25 26 26 27 28 29 28 27
17 15 11 11 14 12 11 18 25 20 33 27 22 19 15 18 22 23 22 22 22 23 23 24 24 24 23 22 24 24 23 25 26 25 25 27 29 30 32 32 31 31 29
22 20 16 15 12 11 14 17 19 20 22 30 32 26 25 18 16 30 24 23 23 23 24 24 25 26 27 27 25 26 27 28 28 29 29 29 31 32 33 34 31 30 30
23 22 23 20 17 13 12 13 10 12 16 18 21 23 36 27 26 27 33 25 23 22 22 25 27 29 29 29 29 27 25 27 30 31 31 30 30 30 29 32 31 31 31
19 17 18 21 22 19 16 16 15 15 17 20 19 22 23 22 23 24 34 29 23 22 26 32 32 31 35 34 35 35 33 28 30 32 32 32 33 33 33 31 31 32 32
15 15 14 16 16 16 17 15 15 15 16 17 18 20 21 20 18 15 19 22 24 27 28 29 35 29 30 33 32 33 36 37 35 34 31 32 32 32 32 32 32 31 32
15 16 16 17 17 18 19 19 19 19 19 21 22 23 23 22 21 20 26 27 29 32 32 33 33 32 33 32 31 31 32 35 40 39 36 34 34 35 36 37 36 36 35
16 17 17 18 18 19 19 19 20 21 22 23 23 23 22 22 24 25 26 28 30 31 31 31 31 30 30 29 29 30 31 31 33 33 33 34 34 34 35 37 37 38 38
13 14 15 16 18 19 19 20 21 22 22 23 23 22 22 23 23 22 23 24 24 24 24 25 26 27 28 27 28 29 30 31 32 33 34 34 35 36 36 36 37 37 38
13 14 16 17 18 18 18 18 18 19 20 21 20 20 20 20 20 21 21 20 21 23 25 26 27 28 30 31 32 33 35 36 35 35 36 37 38 38 39 40 41 43 43
14 14 15 15 16 16 16 16 16 18 18 18 18 19 19 19 20 21 22 23 24 26 27 28 29 30 32 33 34 35 36 37 38 40 41 42 44 44 44 45 46 47 47
14 14 14 14 14 14 14 16 16 16 17 18 19 19 19 20 21 23 24 25 26 28 29 31 31 33 34 35 37 38 39 41 42 44 45 46 48 50 51 52 52 52 53
15 14 15 15 15 16 17 17 18 19 19 19 19 20 21 22 23 24 25 26 27 28 29 30 31 32 34 36 38 40 42 44 45 47 48 50 52 53 55 56 57 58 59
15 16 16 17 18 19 19 20 20 19 19 20 21 21 22 24 25 26 27 27 27 28 29 29 30 33 35 37 39 41 44 47 48 49 51 54 57 59 60 61 62 63 63
18 19 20 21 21 21 20 19 19 20 21 21 23 23 25 26 27 27 28 29 29 29 30 31 33 35 38 41 42 44 46 49 51 54 57 60 61 61 62 64 64 65 65
19 19 20 21 22 22 21 21 21 21 21 22 23 24 24 24 25 26 27 28 29 29 31 33 35 37 39 41 43 47 51 54 56 58 59 60 60 60 60 61 62 63 64
21 22 22 22 22 23 23 23 22 22 21 22 22 23 23 24 25 26 26 27 29 31 33 34 37 39 41 43 45 48 52 55 56 57 58 59 60 60 59 57 56 55 57
32 28 28 27 27 26 26 25 25 24 23 23 24 25 25 26 26 26 27 28 30 31 34 35 37 39 40 41 43 45 49 51 53 54 55 55 55 54 53 53 52 52 52
41 40 37 36 34 31 29 28 27 28 27 26 26 26 26 25 26 26 27 28 30 31 33 36 37 39 40 41 42 44 46 47 48 48 48 46 44 43 42 42 42 42 42

GFSGL_700_spd_111.txt.gz
Wind_Speed
11 11 14 16 17 17 14 14 14 14 13 11 10 8 8 7 6 6 7 9 10 10 12 11 12 13 14 14 14 14 15 14 18 19 23 22 25 25 18 18 17 15 14
16 15 13 13 15 16 16 16 17 15 14 14 13 11 10 10 9 8 7 8 8 7 7 8 7 9 11 12 13 14 12 13 15 17 16 17 17 19 20 16 15 14 16
25 23 21 19 17 16 18 19 18 18 14 15 14 12 11 12 11 10 9 9 8 9 8 9 8 7 7 9 8 9 9 10 10 11 12 13 14 19 23 19 19 19 15
32 29 29 26 22 21 22 20 20 19 19 17 16 15 15 14 13 13 12 11 10 10 10 10 9 9 10 9 10 11 10 10 13 13 13 12 11 12 19 21 18 17 21
29 40 40 32 32 30 26 22 21 21 22 22 20 19 16 15 19 15 14 12 14 14 14 13 13 13 13 13 12 12 13 14 14 12 13 13 12 14 18 19 20 21 21
24 23 29 35 33 29 32 31 26 22 24 24 22 22 22 24 17 16 15 15 16 15 16 15 15 17 14 14 14 13 13 14 14 16 17 17 17 19 21 22 24 25 25
21 25 26 26 33 39 31 31 32 26 25 26 24 22 21 19 17 18 18 18 18 15 16 16 16 15 14 14 14 16 16 18 19 20 20 19 20 21 22 22 22 24 25
19 8 8 9 17 24 33 30 35 29 26 23 22 21 20 19 17 16 18 19 18 17 17 18 20 18 19 19 18 19 20 20 21 23 23 23 24 24 25 26 26 26 24
19 14 7 6 8 4 5 19 28 26 24 30 24 21 19 17 16 16 19 19 20 23 22 21 22 22 21 21 21 21 22 23 24 25 23 25 27 28 29 27 28 27 25
20 15 14 12 11 12 9 8 9 13 19 22 23 26 21 20 15 11 14 19 23 28 26 24 22 22 22 23 23 24 23 25 24 24 25 26 29 30 31 30 27 26 28
23 22 21 19 18 14 9 10 11 12 14 15 15 23 29 29 28 26 25 25 23 29 28 24 20 20 21 22 23 27 28 27 28 29 26 23 25 26 30 32 31 31 30
24 23 26 26 23 19 17 14 12 12 13 13 14 14 16 20 21 23 25 25 25 32 28 19 20 22 25 26 27 28 28 31 30 33 33 35 35 30 30 29 31 30 29
22 23 21 20 20 20 20 18 16 16 15 13 12 13 14 17 21 21 21 19 18 28 16 18 23 24 25 30 29 28 29 29 29 29 29 32 33 33 32 33 32 33 32
28 25 24 22 22 23 21 20 19 18 16 16 16 17 17 19 20 22 21 19 18 19 23 24 27 28 27 27 27 28 27 26 26 26 27 28 29 30 31 32 32 31 31
15 16 17 18 18 18 18 18 18 19 20 20 20 20 21 21 22 22 22 22 22 23 24 25 26 25 25 24 24 24 26 25 26 27 28 28 30 31 32 33 33 33 33
17 18 19 19 21 20 20 20 21 21 22 22 22 22 23 22 24 23 23 22 22 21 21 22 22 22 22 23 23 25 27 27 28 30 32 33 34 35 35 35 36 38 38
15 15 17 18 19 20 21 22 22 22 23 23 23 22 22 21 21 20 19 19 19 20 21 22 23 24 25 26 28 29 30 31 31 32 33 34 36 37 38 39 40 41 42
11 13 15 16 16 17 18 19 20 20 20 20 19 19 18 17 17 18 19 19 20 21 22 23 24 25 26 27 28 29 30 31 32 34 36 38 39 41 42 43 44 46 48
11 14 15 16 17 16 16 17 17 18 18 18 18 18 17 17 18 19 20 20 21 22 23 25 26 27 28 28 30 31 33 35 36 37 38 40 41 42 44 45 47 48 49
29 23 17 18 17 17 16 17 17 18 18 18 17 17 17 18 18 18 19 20 22 23 24 25 26 27 28 29 31 32 34 35 37 39 40 42 43 45 48 50 51 52 53
21 18 17 20 21 20 19 19 18 18 18 18 18 17 18 18 18 20 21 21 22 23 23 24 25 26 27 29 30 32 33 35 36 38 40 43 45 47 49 52 54 56 59
18 18 18 18 19 19 18 17 18 19 19 19 22 18 19 20 21 22 22 22 21 21 22 23 24 26 27 29 31 32 35 37 38 40 43 45 47 49 52 54 55 56 56
17 17 18 19 21 21 20 21 21 22 22 22 22 24 21 22 22 22 21 22 21 22 22 23 25 27 28 30 32 34 37 39 41 43 46 48 51 53 55 56 57 58 57
17 16 17 19 20 21 21 21 23 23 23 24 24 24 23 22 21 22 21 22 22 23 24 26 27 29 31 33 37 40 42 44 46 47 49 51 52 53 53 54 54 53 52
22 25 27 27 26 23 22 21 23 24 24 24 24 24 24 24 23 22 23 24 24 25 26 27 28 30 33 36 38 39 41 42 43 45 48 50 49 48 48 49 48 47 45
30 34 30 29 32 33 32 28 26 27 28 28 26 25 24 23 25 26 26 25 25 27 28 29 30 32 34 36 37 37 37 38 39 43 44 45 44 45 45 44 41 38 35

GFSGL_700_spd_114.txt.gz
Wind_Speed
16 15 14 14 15 15 14 11 13 13 9 8 9 8 7 5 4 5 8 8 9 9 11 12 9 11 12 15 15 16 16 17 19 14 15 18 18 16 13 16 13 15 16
11 11 9 13 15 14 15 15 14 13 13 11 12 10 9 7 7 7 7 7 5 6 7 9 8 8 12 12 12 14 13 10 15 13 11 8 11 13 17 17 18 19 15
12 6 13 17 10 11 12 15 16 16 15 14 13 14 12 11 10 10 10 9 8 8 8 7 6 7 7 6 7 9 10 11 12 12 11 9 7 19 13 13 18 21 16
16 18 19 16 19 18 17 16 15 17 18 18 14 15 14 12 13 13 13 12 11 10 8 7 6 7 8 6 8 8 10 10 12 12 11 11 10 12 13 14 15 14 16
23 20 21 23 25 27 26 23 19 16 19 20 18 17 16 17 17 16 16 16 12 11 10 10 11 9 10 9 9 10 11 11 12 12 12 12 14 13 15 16 17 17 17
26 16 26 32 35 32 31 32 29 24 21 21 23 23 22 17 17 18 12 13 15 15 7 11 11 8 11 12 10 10 12 11 11 13 13 15 15 16 17 19 20 20 20
19 26 18 21 17 22 33 37 39 29 28 24 22 22 20 18 15 17 17 18 16 12 11 11 12 11 12 10 11 13 15 15 16 17 17 17 17 18 20 19 21 22 23
28 22 21 24 24 20 23 27 33 25 31 30 23 20 21 18 16 16 18 17 16 16 15 14 14 13 14 15 15 15 16 18 20 20 20 20 22 23 23 23 24 22 22
27 24 17 12 8 9 7 17 26 31 34 34 30 25 21 16 14 16 17 16 15 15 16 18 19 19 18 18 18 18 17 18 20 21 22 23 24 24 24 23 24 24 23
24 21 20 13 10 9 5 5 12 19 13 19 26 29 28 31 19 18 18 17 12 13 18 20 23 23 21 19 19 19 19 20 21 22 23 27 29 28 23 21 23 24 26
23 23 19 19 16 13 10 7 10 9 8 10 13 17 20 22 25 22 18 18 21 24 25 21 22 25 22 20 18 19 22 22 21 22 25 28 28 30 33 27 30 30 29
28 26 25 23 19 18 15 10 11 12 13 11 10 9 8 15 25 27 27 21 23 23 25 22 23 26 25 18 18 19 21 22 24 24 24 24 25 25 23 25 26 28 27
30 28 26 22 21 23 18 18 16 16 16 16 16 16 14 13 15 15 15 16 17 17 16 16 15 18 18 18 23 26 27 25 25 24 22 23 26 26 25 25 23 23 24
34 34 34 29 29 24 22 24 22 19 17 16 15 12 13 13 15 16 18 19 19 19 19 20 21 21 20 21 22 23 21 21 20 21 22 22 23 25 26 27 27 26 26
32 29 34 31 33 31 28 21 19 19 18 18 17 16 17 18 19 20 21 21 22 22 23 22 21 20 20 20 20 20 20 20 21 22 23 25 26 27 28 29 30 31 32
24 25 28 28 21 20 18 17 18 20 21 21 20 21 21 21 21 21 21 20 20 20 21 20 19 18 19 20 20 21 22 23 24 25 27 28 30 31 32 32 33 34 35
14 17 18 19 18 17 18 19 20 21 21 21 21 22 22 22 21 20 19 19 19 20 17 17 18 19 20 22 23 24 24 25 26 28 29 31 32 33 34 35 36 38 39
8 12 20 20 16 17 17 18 20 21 20 19 20 20 19 18 18 17 17 16 17 18 18 18 19 22 22 23 24 26 27 27 28 29 30 32 33 34 36 37 38 39 41
5 6 9 10 13 16 17 17 17 18 18 17 17 17 17 16 16 17 17 18 18 19 20 20 22 23 24 25 26 27 28 28 29 30 31 33 33 35 36 38 40 42 44
16 23 24 19 20 15 13 16 16 16 16 16 18 17 17 17 19 19 20 20 21 20 21 22 23 24 24 25 26 27 28 29 30 31 32 34 36 38 40 42 44 46 46
24 23 25 26 25 24 26 29 28 25 23 23 22 19 20 20 20 20 20 19 20 21 21 23 23 24 24 24 25 26 27 29 30 32 34 36 38 40 42 44 45 46 47
22 21 21 23 22 23 24 23 22 21 21 20 20 18 20 20 22 22 21 21 21 21 22 23 23 24 24 25 25 26 27 28 30 33 35 37 39 41 44 46 47 48 51
16 17 19 19 20 21 19 20 20 20 20 21 24 20 19 21 22 21 21 21 21 21 21 21 22 24 24 26 26 27 27 30 32 35 38 40 41 43 44 46 48 49 50
15 17 18 17 17 17 17 16 18 18 18 19 21 24 21 21 22 23 22 22 22 21 22 23 24 25 25 26 28 30 31 34 36 39 40 42 44 46 47 48 48 48 48
23 22 20 22 21 21 20 19 17 18 19 18 21 23 25 25 23 23 24 22 22 22 23 25 25 26 25 28 29 32 35 36 38 39 40 41 42 44 45 45 44 43 41
21 25 25 25 26 29 29 25 24 26 27 27 25 23 23 27 28 27 25 26 26 25 25 27 28 29 27 29 29 32 35 36 37 37 36 37 39 40 39 38 36 34 34

GFSGL_700_spd_117.txt.gz
Wind_Speed
19 17 17 16 15 13 13 10 7 7 7 5 7 7 7 6 7 7 8 10 9 10 11 11 10 12 17 19 15 15 15 15 14 11 11 8 6 7 5 12 7 9 12
16 18 18 17 16 16 16 15 12 11 11 11 9 8 7 7 7 6 6 5 4 6 9 9 9 10 11 11 12 13 14 13 9 6 5 5 8 9 7 8 13 16 13
16 14 17 15 13 15 15 15 14 13 13 13 13 11 11 10 10 10 9 8 7 7 8 7 9 7 6 6 7 7 5 5 7 6 5 6 8 12 12 9 12 11 12
16 20 15 13 13 11 12 14 14 13 16 16 13 13 15 16 13 11 10 11 10 10 9 8 8 7 4 5 6 6 6 7 7 8 5 4 6 7 8 9 9 11 11
23 24 18 15 17 17 18 16 19 16 16 18 18 18 18 17 14 13 12 13 13 13 13 10 7 7 9 7 7 9 9 8 7 7 9 9 9 9 10 11 12 12 12
25 27 16 19 24 26 23 24 28 24 22 19 23 22 19 15 14 14 12 14 17 17 22 18 9 9 8 7 8 9 8 7 8 10 11 12 14 14 14 16 16 15 15
15 18 21 22 19 20 18 19 25 30 29 33 24 21 20 19 16 15 16 15 14 13 11 10 11 9 10 10 10 9 10 10 9 10 12 14 14 16 17 18 20 20 20
26 23 21 19 22 24 26 25 25 27 35 30 23 25 21 20 17 16 16 15 14 12 10 11 10 11 12 14 13 13 14 15 15 14 15 15 15 16 17 19 19 19 20
31 30 26 20 23 20 16 12 14 22 21 21 25 25 27 26 19 18 17 16 14 15 14 13 13 14 15 17 18 17 16 16 16 19 19 20 21 21 22 21 21 21 18
26 27 27 23 19 14 7 5 7 11 15 23 32 28 27 23 23 19 17 15 15 13 10 8 11 15 18 20 20 20 18 17 18 19 21 24 24 23 22 20 23 25 26
27 28 27 23 20 15 12 8 6 8 11 8 12 16 22 24 24 20 25 18 18 14 14 16 17 20 20 19 22 20 18 18 18 20 22 25 25 25 23 23 23 22 22
23 25 25 26 23 21 19 14 13 12 12 10 10 10 12 15 17 17 21 26 25 21 23 25 27 22 18 16 19 22 17 18 21 22 23 22 22 22 21 19 19 21 23
19 24 27 28 26 22 20 18 16 14 13 13 12 10 10 10 8 16 21 23 23 19 18 19 19 17 10 9 15 22 24 26 24 23 23 22 21 21 20 19 20 21 23
22 23 27 26 24 24 23 19 20 21 19 15 13 12 13 13 13 12 15 17 18 18 19 19 18 17 17 18 19 20 21 21 20 21 21 21 22 22 23 23 23 23 24
25 26 24 29 30 27 26 22 23 24 22 20 19 15 15 15 15 16 18 20 20 20 21 20 21 21 21 20 19 19 19 18 20 21 21 22 23 24 25 26 27 28 29
25 22 25 26 29 27 30 29 33 27 26 22 23 20 19 19 20 21 21 22 23 22 21 21 20 20 20 19 19 18 18 20 21 23 23 24 25 26 28 29 30 31 33
18 18 20 20 19 21 22 26 28 23 24 19 21 22 22 22 22 22 22 22 22 22 20 19 18 17 17 18 19 20 20 21 23 24 25 25 26 28 29 30 31 32 32
18 19 18 14 10 8 11 16 17 14 18 19 19 20 20 21 21 21 20 20 19 18 18 18 18 17 18 20 21 21 22 23 24 25 26 27 29 30 31 32 34 36 37
11 9 7 7 4 10 15 24 23 17 14 15 17 18 17 18 18 18 18 18 17 18 18 18 19 19 20 21 22 23 23 24 25 26 27 28 30 31 31 33 35 36 39
24 23 16 11 17 9 11 14 10 9 11 10 10 11 13 16 18 17 18 18 18 18 19 20 22 21 21 22 23 25 26 26 26 27 28 28 30 32 34 36 38 40 42
18 22 22 17 20 22 21 20 23 26 25 26 21 21 20 18 18 18 20 21 22 21 22 22 22 23 23 24 25 25 26 26 26 27 29 31 33 34 36 38 40 41 43
18 16 17 17 16 18 22 22 23 22 22 23 21 22 23 24 25 25 22 22 21 21 21 23 23 23 24 24 25 25 25 26 27 28 30 32 33 34 36 38 40 43 44
14 13 13 15 16 17 16 16 17 18 20 21 20 19 19 20 22 21 19 21 20 21 21 22 23 23 23 23 24 25 26 27 29 30 31 32 35 37 39 41 44 46 48
12 11 10 11 13 14 15 15 18 19 19 22 22 21 21 19 20 21 19 20 21 21 21 20 21 22 23 23 25 26 27 28 29 30 32 34 36 38 40 41 44 46 47
18 18 18 18 17 15 16 15 15 16 17 18 21 20 19 19 20 19 19 20 21 20 20 21 22 22 22 20 23 25 26 28 31 32 33 34 36 37 39 40 40 40 39
18 18 19 19 21 23 22 23 24 21 20 22 23 23 25 26 24 25 24 21 20 20 22 22 21 23 23 23 26 27 25 27 31 32 32 32 32 31 33 34 34 33 33

GFSGL_700_spd_120.txt.gz
Wind_Speed
16 15 16 19 16 14 14 11 8 10 10 10 12 9 7 12 12 11 11 13 14 15 15 15 17 17 21 22 21 17 17 17 16 14 11 11 8 5 5 9 7 8 8
11 15 18 18 18 18 16 14 11 10 12 11 11 9 8 11 10 11 10 10 11 12 13 13 15 16 17 17 18 18 15 15 10 3 5 9 8 6 7 12 9 8 8
13 13 19 20 20 17 18 18 15 14 12 13 12 11 11 14 14 13 12 11 13 13 12 12 12 13 13 12 10 10 9 11 9 7 8 12 11 10 12 12 8 8 11
18 16 17 20 20 18 17 17 16 16 17 16 16 15 16 17 14 12 14 14 13 11 11 11 11 8 8 9 10 11 10 10 9 9 9 10 12 12 12 10 9 13 13
23 20 19 23 20 19 15 16 15 16 15 18 21 20 18 18 16 16 16 16 15 14 13 12 11 11 10 10 11 11 11 11 10 10 9 11 13 12 12 14 14 13 14
27 23 21 25 24 21 22 16 16 21 22 21 23 22 22 18 18 20 18 16 17 19 19 15 15 12 15 13 14 13 12 12 11 11 13 14 15 13 13 14 14 13 13
22 31 31 29 28 21 17 17 19 25 28 30 29 27 24 22 21 20 19 19 19 18 17 17 20 22 15 16 13 12 13 13 14 16 16 16 16 15 15 15 16 17 15
24 11 16 13 19 15 17 22 25 30 32 30 31 30 26 24 26 24 22 19 20 19 18 17 17 17 17 17 14 15 16 16 17 17 17 17 16 15 16 18 19 19 22
25 21 22 21 21 20 24 25 26 25 29 31 30 34 27 31 29 30 25 21 19 21 19 18 18 16 14 14 16 18 19 20 20 20 19 17 17 18 19 20 22 19 19
26 24 24 23 24 20 19 17 13 11 18 16 20 21 34 32 31 27 25 19 20 20 19 18 17 16 14 14 17 19 21 22 21 20 18 20 20 20 23 24 22 22 20
24 26 24 16 18 19 16 13 10 8 12 7 11 19 22 20 17 19 20 22 22 19 17 17 16 14 13 16 19 19 17 19 21 21 19 19 22 25 25 26 25 23 21
24 23 23 24 23 22 21 17 15 9 7 8 7 8 11 17 20 23 26 25 25 19 21 23 22 23 26 26 24 20 20 21 24 23 24 26 27 25 24 24 25 25 24
22 20 18 19 22 24 23 20 19 15 14 13 12 12 12 15 18 21 22 21 21 24 24 25 26 25 24 22 14 16 19 21 23 26 26 25 22 21 21 22 24 26 26
22 22 15 20 25 25 25 21 17 14 15 15 13 14 16 18 18 17 15 20 21 19 19 17 17 17 18 18 16 16 17 19 22 24 23 22 22 22 23 23 24 25 26
17 17 16 17 21 20 23 22 25 21 17 19 20 19 20 19 19 20 20 20 21 20 21 22 21 20 19 18 17 17 18 20 20 20 21 22 23 24 24 25 26 27 28
14 17 14 17 19 21 19 25 27 26 27 20 27 25 23 21 20 20 21 22 23 23 23 22 20 20 19 19 19 19 20 20 20 21 22 23 24 25 26 26 27 29 30
14 16 16 22 16 20 19 27 25 26 22 30 34 30 22 21 21 22 24 23 22 21 21 21 20 19 19 18 19 20 20 20 20 22 24 25 26 27 28 29 30 31 31
12 11 11 14 14 15 17 20 20 25 22 27 32 28 28 17 15 19 19 20 20 20 19 18 18 18 18 19 20 20 21 22 23 24 25 27 28 29 29 30 31 32 33
10 9 9 10 11 12 11 10 13 14 13 14 14 14 18 16 17 16 16 15 16 16 16 16 18 18 19 20 22 21 22 23 25 26 27 28 29 30 30 31 31 33 34
12 13 17 18 14 16 13 9 6 7 7 10 14 19 20 18 17 18 19 16 16 16 16 18 18 19 21 22 22 22 23 25 26 26 27 27 28 29 29 31 33 34 36
17 19 19 17 15 19 18 18 14 13 14 15 16 16 19 18 16 17 17 16 16 18 20 20 20 22 23 22 23 23 24 25 25 26 27 28 29 30 31 33 35 36 38
14 17 18 17 17 18 17 18 19 18 17 16 15 19 22 22 20 21 22 21 21 22 22 22 21 22 22 23 23 24 25 25 25 26 27 29 30 32 33 34 35 37 39
16 18 18 18 20 20 17 17 18 19 19 18 17 18 19 21 20 18 19 19 19 20 22 23 23 23 22 21 23 24 25 26 27 27 28 29 30 31 32 34 36 37 40
12 12 14 16 16 16 15 15 16 17 19 19 18 17 19 20 20 20 19 20 21 22 21 22 22 22 22 22 24 25 24 24 25 26 27 28 30 33 35 35 35 35 36
20 19 19 19 18 16 15 16 15 15 16 18 18 19 19 20 21 22 20 20 20 20 20 22 23 23 21 21 23 24 23 24 26 28 30 31 32 33 32 30 29 30 32
21 22 19 20 21 21 21 23 25 20 22 22 23 23 23 23 23 24 24 24 26 23 21 21 21 23 24 23 23 25 25 23 23 26 28 28 29 29 28 26 26 28 29

GFSGL_700_spd_123.txt.gz
Wind_Speed
10 13 15 14 14 12 12 12 10 11 13 11 10 11 14 17 17 16 15 16 17 18 18 18 20 21 21 20 19 18 16 16 16 15 17 15 10 6 7 9 13 15 15
11 12 16 16 16 15 14 14 14 11 13 13 12 13 12 15 15 18 16 16 16 15 16 17 18 18 17 17 17 17 16 14 12 11 11 13 11 8 9 11 13 14 14
19 15 16 19 18 17 17 17 17 16 14 15 14 14 13 13 13 15 15 11 13 15 14 15 16 16 17 18 17 15 13 11 8 9 11 13 13 11 11 13 12 13 16
19 21 18 20 21 20 20 21 22 20 19 18 17 17 18 16 16 15 14 14 14 14 12 13 12 12 12 13 14 15 13 11 11 11 12 14 13 11 10 10 12 13 16
22 24 20 20 22 21 21 22 21 21 22 22 21 21 21 19 18 18 19 17 16 15 14 15 14 12 13 13 13 13 14 14 15 15 15 15 14 13 13 13 14 16 15
28 30 24 22 20 20 21 23 21 21 21 22 20 20 22 20 18 21 21 20 18 17 21 19 16 15 14 16 16 17 17 17 18 17 16 15 16 16 16 15 15 14 14
33 32 28 28 25 24 24 24 26 24 22 24 25 25 24 21 23 22 23 23 21 20 20 20 23 22 23 23 19 17 18 17 18 19 17 18 18 17 16 16 17 19 18
28 30 38 34 30 27 31 25 20 20 21 22 26 28 32 28 27 28 25 23 22 21 20 20 20 20 22 19 22 20 19 21 20 20 20 19 19 18 18 18 19 23 23
26 25 24 27 26 14 14 19 22 21 24 28 32 34 34 31 33 33 30 28 24 21 21 20 19 19 19 19 20 19 20 21 21 21 21 20 20 20 21 23 21 23 24
32 28 29 24 26 21 19 19 19 17 15 23 26 29 28 30 32 32 38 37 33 34 29 20 21 21 21 20 19 18 19 21 22 22 21 20 21 22 20 21 24 26 24
32 33 35 25 23 19 12 16 14 13 11 8 4 8 13 20 28 31 32 36 34 33 30 23 23 21 22 20 16 16 18 20 23 21 21 21 22 23 25 27 26 24 22
22 31 20 21 13 2 11 16 15 14 10 7 8 11 10 13 13 17 21 17 18 23 22 21 21 21 21 24 23 26 34 31 31 24 26 25 24 26 29 29 26 25 24
4 13 7 6 16 13 21 18 18 16 14 13 13 11 10 9 10 16 17 21 24 19 20 21 21 25 24 25 30 28 24 27 26 27 28 26 26 26 28 28 26 26 27
15 11 9 10 11 13 15 20 20 15 14 14 15 15 14 14 13 14 15 17 19 21 21 22 22 23 19 20 21 23 22 22 22 23 24 23 24 24 25 25 26 27 28
17 18 14 14 14 17 17 18 19 21 18 16 15 17 18 19 20 20 20 20 17 21 21 21 21 20 22 22 22 23 23 23 22 21 21 21 23 24 25 26 26 27 28
14 13 11 14 14 15 18 19 21 17 20 23 23 20 23 28 29 22 21 22 22 21 20 20 22 24 24 23 22 22 21 21 21 21 21 23 24 25 26 27 28 29 30
9 11 12 14 17 17 19 19 16 17 21 22 21 25 22 22 30 32 25 21 20 21 22 23 23 23 22 21 21 21 21 21 21 21 22 23 25 26 27 27 29 30 31
10 10 11 14 17 19 20 19 23 19 22 24 22 25 25 25 26 32 31 21 22 18 19 20 20 20 19 19 19 20 21 22 22 22 23 25 26 27 28 29 30 31 31
10 11 12 12 11 11 12 12 14 15 15 18 16 13 12 10 12 16 29 29 20 14 17 17 18 19 19 19 20 21 21 23 23 24 26 26 27 28 29 30 30 31 32
8 10 12 9 9 10 9 10 12 14 16 17 17 15 14 12 11 10 10 11 10 11 16 17 19 20 21 21 21 21 22 24 25 25 26 27 27 28 28 29 30 31 32
13 17 20 19 18 13 14 11 13 13 11 13 12 12 11 10 10 10 11 13 15 19 23 24 25 22 21 21 22 23 24 26 26 27 27 27 27 27 27 28 29 30 32
13 13 15 16 15 16 15 16 16 16 16 17 17 16 16 17 16 15 17 18 21 22 22 22 21 22 23 26 27 27 24 24 24 25 26 26 26 27 27 29 30 32 34
14 15 15 16 18 20 19 18 19 19 17 16 16 16 17 18 17 17 18 19 20 21 21 21 21 21 20 21 22 23 24 24 25 25 24 25 25 26 28 30 31 33 33
13 13 13 13 14 15 17 19 19 19 18 17 16 16 17 17 16 17 17 18 19 20 19 19 20 19 20 21 22 23 23 23 23 23 24 26 27 28 29 30 31 32 31
16 17 17 17 17 17 18 19 19 20 19 18 17 17 19 20 20 19 19 18 19 18 17 17 18 19 20 21 21 22 22 22 21 23 25 26 26 27 27 28 29 29 28
23 21 21 24 21 22 24 26 25 23 24 24 23 22 22 22 22 22 22 21 20 20 20 21 21 20 18 17 18 19 20 19 20 21 21 21 22 25 27 28 29 29 28

GFSGL_700_spd_129.txt.gz
Wind_Speed
18 19 20 18 18 18 17 16 16 15 14 14 14 15 16 14 15 15 15 15 15 16 18 20 21 21 21 20 19 18 17 16 15 16 16 15 11 10 11 12 13 16 17
17 19 19 19 20 19 18 17 17 16 16 16 16 15 16 15 17 17 17 17 17 17 18 19 18 18 18 17 17 15 14 14 13 11 11 11 10 11 13 14 15 16 17
13 15 17 19 19 19 19 20 20 19 19 18 18 19 18 18 19 18 17 18 17 16 16 17 18 17 16 16 14 12 13 11 10 9 9 10 10 12 13 13 15 17 17
17 16 17 15 14 18 20 23 23 23 23 21 19 19 19 18 18 17 15 16 17 17 16 15 16 15 14 13 12 11 11 11 11 10 10 10 11 11 12 13 15 17 19
22 20 20 18 20 20 20 23 26 26 26 24 23 20 19 19 20 21 18 18 18 18 19 17 17 17 16 15 14 14 13 13 13 13 12 12 12 12 13 14 15 16 18
27 23 22 24 24 25 25 21 25 27 27 27 26 25 24 24 22 23 22 23 22 22 22 21 20 20 18 17 17 16 16 14 15 16 14 13 13 14 14 14 15 16 19
34 29 27 26 30 30 29 29 25 28 28 27 27 28 27 24 22 25 26 26 25 24 25 25 23 23 24 22 21 19 19 17 20 19 17 14 15 17 18 18 18 18 19
30 29 29 31 32 37 36 33 31 29 30 30 28 28 27 25 23 25 25 25 25 27 26 27 25 25 25 26 24 24 25 25 21 17 17 16 17 17 19 20 20 20 20
31 31 34 35 40 38 42 41 37 33 29 30 30 31 30 28 24 26 27 29 30 29 32 32 27 29 27 26 25 22 21 19 18 18 19 18 17 17 19 20 20 21 21
32 34 32 31 37 42 41 36 30 36 35 36 33 32 29 29 28 29 31 33 36 36 32 35 34 33 30 24 23 21 22 22 19 18 18 15 13 14 16 19 20 21 21
31 29 32 39 40 41 40 50 32 36 40 41 37 36 27 22 21 19 27 30 33 32 32 37 38 38 30 27 24 27 25 23 19 19 18 21 25 27 24 24 22 22 23
22 17 21 23 21 28 41 35 39 22 25 26 15 15 21 15 16 21 18 17 11 24 32 20 26 34 37 43 41 39 35 28 24 26 28 34 33 32 29 24 24 25 26
15 15 13 3 14 21 16 4 16 28 20 17 16 16 14 16 13 11 10 14 13 12 21 19 26 14 12 13 23 29 24 24 28 29 27 27 23 24 20 24 23 22 22
12 9 6 5 7 9 8 14 15 14 19 20 17 14 14 15 17 17 15 14 16 16 19 15 13 14 16 18 20 17 18 26 23 22 23 23 23 23 22 21 21 21 22
12 10 7 8 6 6 8 7 12 14 13 17 18 28 23 21 21 20 18 17 19 19 19 21 22 22 21 19 21 21 19 19 19 21 23 22 21 19 18 19 20 20 22
11 11 11 11 9 11 12 15 15 18 11 18 20 20 19 20 22 24 23 22 21 21 22 23 24 23 26 26 23 27 21 22 20 20 19 19 19 18 18 19 19 20 21
18 18 19 15 16 15 13 15 15 19 14 19 15 19 17 15 22 19 17 19 19 19 20 21 26 25 26 27 26 24 23 23 20 19 18 16 17 18 18 19 20 20 22
10 11 14 15 15 14 18 18 15 22 21 22 19 21 21 20 24 24 23 18 19 19 19 23 25 24 24 24 23 22 21 19 16 15 16 15 15 15 15 15 17 21 27
12 12 12 16 18 19 21 19 22 22 18 19 19 20 22 22 24 22 24 20 19 21 22 24 25 24 19 13 14 16 15 14 13 12 12 13 13 13 15 22 29 28 28
9 9 11 12 12 12 12 12 14 15 15 15 15 15 15 15 15 15 15 17 15 16 16 16 16 18 17 16 15 14 14 16 18 20 20 21 27 29 32 32 26 26 27
10 10 10 10 11 12 11 11 12 12 14 15 16 15 14 13 12 14 16 16 14 12 12 13 13 13 13 15 16 16 16 17 18 18 23 23 23 22 23 25 24 22 21
12 11 12 13 14 15 15 15 15 13 13 14 14 14 16 16 14 14 15 16 17 16 16 17 18 17 15 15 15 16 18 19 21 22 21 21 21 20 20 20 19 20 21
13 12 11 11 11 11 11 11 11 13 14 14 14 15 15 16 17 18 19 19 20 20 20 21 21 21 21 21 20 20 21 22 21 21 20 19 18 18 18 18 19 20 21
14 13 13 12 12 12 12 11 11 11 12 13 13 14 15 15 16 17 18 19 19 19 19 19 19 19 19 19 20 20 20 20 19 19 17 17 17 17 17 18 19 20 21
17 17 17 15 15 15 15 16 16 16 15 15 15 15 16 16 16 16 17 18 18 19 19 19 19 19 19 18 18 17 17 17 18 18 17 17 17 18 20 20 20 22 24
20 20 20 19 19 19 19 19 19 19 18 17 17 18 18 18 19 19 19 19 19 20 21 21 20 21 21 20 19 20 20 19 17 17 18 18 19 20 19 20 23 24 25